ECMWFNIL_prec_precacc_042.txt.gz
Total_Precipitation_Accumulation
0.00 0.00 0.00 0.00 0.00 0.00 0.00 0.00 0.00 0.00 0.00 0.00 0.00 0.00 0.00 0.00 0.00 0.00 0.00 0.00 0.00 0.00 0.00 0.00 0.00 0.00 0.01 0.01 0.01 0.01 0.01 0.01 0.00 0.01 0.01 0.01 0.01 0.01 0.01 0.00 0.00 0.00
0.00 0.00 0.00 0.00 0.00 0.00 0.00 0.00 0.00 0.00 0.00 0.00 0.00 0.00 0.00 0.00 0.00 0.00 0.00 0.00 0.00 0.00 0.00 0.00 0.00 0.00 0.00 0.01 0.01 0.01 0.01 0.01 0.01 0.00 0.01 0.01 0.01 0.01 0.01 0.00 0.00 0.00
0.00 0.00 0.00 0.00 0.00 0.00 0.00 0.00 0.00 0.00 0.00 0.00 0.00 0.00 0.00 0.00 0.00 0.00 0.00 0.00 0.00 0.00 0.00 0.00 0.00 0.00 0.00 0.00 0.01 0.01 0.00 0.01 0.00 0.00 0.00 0.00 0.01 0.01 0.01 0.01 0.01 0.01
0.00 0.00 0.00 0.00 0.00 0.00 0.00 0.00 0.00 0.00 0.00 0.00 0.00 0.00 0.00 0.00 0.00 0.00 0.00 0.00 0.00 0.00 0.00 0.00 0.00 0.00 0.00 0.00 0.00 0.00 0.00 0.00 0.00 0.00 0.00 0.00 0.01 0.00 0.01 0.01 0.00 0.00
0.00 0.00 0.00 0.00 0.00 0.00 0.00 0.00 0.00 0.00 0.00 0.00 0.00 0.00 0.00 0.00 0.00 0.00 0.00 0.00 0.00 0.00 0.00 0.00 0.00 0.00 0.00 0.00 0.00 0.00 0.00 0.00 0.00 0.00 0.00 0.00 0.00 0.00 0.00 0.00 0.00 0.00
0.00 0.00 0.00 0.00 0.00 0.00 0.00 0.00 0.00 0.00 0.00 0.00 0.00 0.00 0.00 0.00 0.00 0.00 0.00 0.00 0.00 0.00 0.00 0.00 0.00 0.00 0.00 0.00 0.00 0.00 0.00 0.00 0.00 0.00 0.00 0.00 0.00 0.00 0.00 0.00 0.00 0.00
0.00 0.00 0.00 0.00 0.00 0.00 0.00 0.00 0.00 0.00 0.01 0.00 0.01 0.00 0.00 0.00 0.00 0.00 0.00 0.00 0.00 0.00 0.00 0.00 0.00 0.00 0.00 0.00 0.00 0.00 0.00 0.00 0.00 0.00 0.00 0.00 0.00 0.00 0.00 0.00 0.00 0.00
0.00 0.00 0.00 0.00 0.00 0.00 0.01 0.01 0.01 0.00 0.00 0.00 0.00 0.00 0.00 0.00 0.00 0.00 0.00 0.00 0.00 0.00 0.00 0.00 0.00 0.00 0.00 0.00 0.00 0.00 0.00 0.00 0.00 0.00 0.00 0.00 0.00 0.00 0.00 0.00 0.00 0.00
0.00 0.00 0.00 0.00 0.00 0.00 0.01 0.01 0.00 0.01 0.00 0.00 0.00 0.00 0.00 0.00 0.00 0.00 0.00 0.00 0.00 0.00 0.00 0.00 0.01 0.01 0.00 0.00 0.00 0.00 0.00 0.00 0.00 0.00 0.00 0.00 0.00 0.00 0.00 0.00 0.00 0.00
0.00 0.00 0.00 0.00 0.00 0.02 0.03 0.10 0.04 0.01 0.01 0.00 0.00 0.00 0.00 0.00 0.00 0.00 0.00 0.00 0.01 0.02 0.03 0.03 0.02 0.02 0.02 0.00 0.00 0.00 0.00 0.00 0.00 0.00 0.00 0.00 0.00 0.00 0.00 0.00 0.00 0.00
0.07 0.03 0.00 0.01 0.03 0.08 0.05 0.05 0.04 0.05 0.03 0.01 0.00 0.01 0.03 0.06 0.04 0.04 0.08 0.11 0.12 0.09 0.07 0.06 0.04 0.02 0.00 0.00 0.00 0.00 0.00 0.00 0.00 0.00 0.00 0.00 0.00 0.00 0.00 0.00 0.00 0.00
0.03 0.01 0.01 0.02 0.05 0.03 0.06 0.02 0.01 0.00 0.00 0.01 0.02 0.05 0.06 0.07 0.10 0.16 0.19 0.18 0.14 0.11 0.08 0.06 0.02 0.00 0.00 0.00 0.00 0.00 0.00 0.00 0.00 0.00 0.00 0.00 0.00 0.00 0.00 0.00 0.00 0.00
0.04 0.02 0.03 0.05 0.03 0.05 0.16 0.22 0.12 0.01 0.02 0.03 0.04 0.11 0.22 0.20 0.24 0.23 0.20 0.17 0.13 0.10 0.05 0.01 0.00 0.00 0.00 0.00 0.00 0.00 0.00 0.00 0.00 0.00 0.00 0.00 0.00 0.00 0.00 0.00 0.00 0.01
0.00 0.05 0.23 0.15 0.22 0.17 0.21 0.13 0.23 0.14 0.12 0.15 0.29 0.30 0.29 0.31 0.28 0.26 0.22 0.15 0.07 0.02 0.00 0.01 0.00 0.00 0.00 0.00 0.00 0.00 0.00 0.00 0.00 0.00 0.00 0.00 0.01 0.01 0.00 0.00 0.00 0.00
0.00 0.03 0.16 0.38 0.12 0.41 0.32 0.21 0.35 0.29 0.35 0.37 0.26 0.38 0.41 0.33 0.22 0.14 0.07 0.04 0.02 0.01 0.00 0.00 0.00 0.00 0.00 0.00 0.00 0.00 0.00 0.00 0.00 0.00 0.00 0.00 0.02 0.03 0.01 0.01 0.00 0.01
0.00 0.00 0.04 0.16 0.15 1.40 1.81 0.56 0.60 0.69 0.67 0.53 0.36 0.35 0.25 0.16 0.11 0.07 0.05 0.03 0.01 0.01 0.01 0.00 0.00 0.00 0.00 0.00 0.00 0.00 0.00 0.00 0.00 0.00 0.00 0.00 0.00 0.00 0.01 0.00 0.00 0.02
0.00 0.00 0.00 0.00 0.60 0.96 1.15 1.32 0.79 0.37 0.28 0.29 0.25 0.16 0.13 0.13 0.11 0.10 0.07 0.04 0.02 0.01 0.01 0.00 0.00 0.00 0.00 0.00 0.00 0.00 0.00 0.00 0.00 0.00 0.00 0.00 0.01 0.00 0.01 0.00 0.00 0.00
0.00 0.00 0.00 0.06 0.44 1.07 1.09 0.96 0.63 0.19 0.16 0.09 0.08 0.08 0.10 0.10 0.12 0.12 0.09 0.06 0.04 0.02 0.01 0.00 0.00 0.00 0.00 0.00 0.00 0.00 0.00 0.00 0.00 0.00 0.00 0.00 0.00 0.00 0.00 0.01 0.01 0.04
0.00 0.00 0.00 0.19 0.98 1.22 0.79 1.08 0.38 0.43 0.27 0.13 0.10 0.19 0.05 0.09 0.13 0.14 0.12 0.09 0.05 0.03 0.01 0.01 0.01 0.00 0.00 0.00 0.00 0.00 0.00 0.00 0.00 0.00 0.00 0.00 0.00 0.00 0.00 0.01 0.06 0.08
0.00 0.00 0.02 0.97 1.21 1.60 0.99 0.11 0.15 0.07 0.22 0.37 0.26 0.12 0.18 0.13 0.14 0.15 0.13 0.11 0.08 0.06 0.05 0.03 0.02 0.01 0.01 0.00 0.00 0.01 0.01 0.01 0.01 0.01 0.00 0.01 0.01 0.02 0.01 0.01 0.02 0.05
0.00 0.00 0.31 0.77 1.12 0.96 0.38 0.22 0.02 0.14 0.17 0.32 0.17 0.09 0.12 0.06 0.06 0.06 0.06 0.06 0.05 0.05 0.05 0.05 0.04 0.02 0.01 0.01 0.00 0.00 0.00 0.00 0.00 0.01 0.02 0.02 0.02 0.02 0.02 0.02 0.14 0.47
0.01 0.01 0.03 0.77 0.55 0.23 0.11 0.02 0.05 0.19 0.13 0.12 0.12 0.11 0.05 0.03 0.04 0.04 0.08 0.21 0.15 0.15 0.12 0.08 0.05 0.03 0.01 0.01 0.01 0.02 0.01 0.02 0.02 0.01 0.02 0.01 0.02 0.01 0.02 0.07 0.12 0.37
0.00 0.01 0.07 0.01 0.01 0.04 0.01 0.00 0.02 0.10 0.03 0.05 0.05 0.03 0.01 0.01 0.02 0.04 0.03 0.09 0.08 0.03 0.03 0.03 0.05 0.05 0.05 0.04 0.04 0.02 0.02 0.02 0.01 0.01 0.04 0.03 0.05 0.08 0.04 0.12 0.24 0.20
0.00 0.00 0.00 0.01 0.00 0.00 0.00 0.01 0.01 0.03 0.04 0.04 0.03 0.01 0.01 0.00 0.01 0.02 0.04 0.03 0.02 0.02 0.02 0.05 0.06 0.03 0.01 0.01 0.01 0.01 0.02 0.03 0.02 0.03 0.07 0.06 0.08 0.30 0.30 0.25 0.05 0.05
0.00 0.00 0.00 0.00 0.01 0.00 0.00 0.02 0.04 0.05 0.03 0.02 0.01 0.01 0.00 0.00 0.00 0.02 0.03 0.01 0.01 0.06 0.04 0.03 0.05 0.04 0.03 0.02 0.02 0.08 0.07 0.10 0.13 0.10 0.09 0.27 0.16 0.29 0.23 0.07 0.12 0.05
0.00 0.00 0.00 0.00 0.01 0.01 0.02 0.04 0.03 0.01 0.01 0.00 0.01 0.01 0.01 0.01 0.00 0.01 0.02 0.02 0.02 0.04 0.05 0.01 0.03 0.07 0.02 0.01 0.04 0.07 0.09 0.09 0.10 0.08 0.09 0.05 0.05 0.11 0.18 0.16 0.05 0.09

ECMWFNIL_prec_precacc_048.txt.gz
Total_Precipitation_Accumulation
0.00 0.00 0.00 0.00 0.00 0.00 0.00 0.00 0.00 0.00 0.00 0.00 0.00 0.00 0.00 0.00 0.00 0.00 0.00 0.00 0.00 0.00 0.00 0.00 0.00 0.00 0.01 0.01 0.01 0.01 0.01 0.01 0.00 0.01 0.01 0.01 0.01 0.01 0.01 0.00 0.00 0.00
0.00 0.00 0.00 0.00 0.00 0.00 0.00 0.00 0.00 0.00 0.00 0.00 0.00 0.00 0.00 0.00 0.00 0.00 0.00 0.00 0.00 0.00 0.00 0.00 0.00 0.00 0.00 0.01 0.01 0.01 0.01 0.01 0.01 0.00 0.01 0.01 0.01 0.01 0.01 0.00 0.00 0.00
0.00 0.00 0.00 0.00 0.00 0.00 0.00 0.00 0.00 0.00 0.00 0.00 0.00 0.00 0.00 0.00 0.00 0.00 0.00 0.00 0.00 0.00 0.00 0.00 0.00 0.00 0.00 0.00 0.01 0.01 0.00 0.01 0.00 0.00 0.00 0.00 0.01 0.01 0.01 0.01 0.01 0.01
0.00 0.00 0.00 0.00 0.00 0.00 0.00 0.00 0.00 0.00 0.00 0.00 0.00 0.00 0.00 0.00 0.00 0.00 0.00 0.00 0.00 0.00 0.00 0.00 0.00 0.00 0.00 0.00 0.00 0.00 0.00 0.00 0.00 0.00 0.00 0.00 0.01 0.00 0.01 0.01 0.00 0.00
0.00 0.00 0.00 0.00 0.00 0.00 0.00 0.00 0.00 0.00 0.00 0.00 0.00 0.00 0.00 0.00 0.00 0.00 0.00 0.00 0.00 0.00 0.00 0.00 0.00 0.00 0.00 0.00 0.00 0.00 0.00 0.00 0.00 0.00 0.00 0.00 0.00 0.00 0.00 0.00 0.00 0.00
0.00 0.00 0.00 0.00 0.00 0.00 0.00 0.00 0.00 0.00 0.00 0.00 0.00 0.00 0.00 0.00 0.00 0.00 0.00 0.00 0.00 0.00 0.00 0.00 0.00 0.00 0.00 0.00 0.00 0.00 0.00 0.00 0.00 0.00 0.00 0.00 0.00 0.00 0.00 0.00 0.00 0.00
0.00 0.00 0.00 0.00 0.00 0.00 0.00 0.00 0.00 0.00 0.01 0.00 0.01 0.00 0.00 0.00 0.00 0.00 0.00 0.00 0.00 0.00 0.00 0.00 0.00 0.00 0.00 0.00 0.00 0.00 0.00 0.00 0.00 0.00 0.00 0.00 0.00 0.00 0.00 0.00 0.00 0.00
0.00 0.00 0.00 0.00 0.00 0.00 0.01 0.01 0.01 0.00 0.00 0.00 0.00 0.00 0.00 0.00 0.00 0.00 0.00 0.00 0.00 0.00 0.00 0.00 0.00 0.00 0.00 0.00 0.00 0.00 0.00 0.00 0.00 0.00 0.00 0.00 0.00 0.00 0.00 0.00 0.00 0.00
0.00 0.00 0.00 0.00 0.00 0.00 0.01 0.01 0.00 0.01 0.00 0.00 0.00 0.00 0.00 0.00 0.00 0.00 0.00 0.00 0.00 0.00 0.00 0.00 0.01 0.01 0.00 0.00 0.00 0.00 0.00 0.00 0.00 0.00 0.00 0.00 0.00 0.00 0.00 0.00 0.00 0.00
0.00 0.00 0.00 0.00 0.00 0.03 0.03 0.10 0.04 0.01 0.01 0.00 0.00 0.00 0.00 0.00 0.00 0.00 0.00 0.00 0.01 0.02 0.03 0.03 0.02 0.02 0.02 0.00 0.00 0.00 0.00 0.00 0.00 0.00 0.00 0.00 0.00 0.00 0.00 0.00 0.00 0.00
0.07 0.03 0.00 0.01 0.03 0.08 0.05 0.05 0.04 0.05 0.03 0.01 0.00 0.01 0.03 0.06 0.04 0.04 0.08 0.11 0.12 0.09 0.07 0.06 0.04 0.02 0.00 0.00 0.00 0.00 0.00 0.00 0.00 0.00 0.00 0.00 0.00 0.00 0.00 0.00 0.00 0.00
0.03 0.01 0.01 0.02 0.05 0.03 0.06 0.02 0.01 0.00 0.00 0.01 0.02 0.05 0.06 0.07 0.10 0.16 0.19 0.18 0.14 0.11 0.08 0.06 0.02 0.00 0.00 0.00 0.00 0.00 0.00 0.00 0.00 0.00 0.00 0.00 0.00 0.00 0.00 0.00 0.00 0.00
0.04 0.02 0.03 0.05 0.03 0.05 0.16 0.22 0.12 0.01 0.02 0.03 0.04 0.11 0.22 0.20 0.24 0.23 0.20 0.17 0.13 0.10 0.05 0.01 0.00 0.00 0.00 0.00 0.00 0.00 0.00 0.00 0.00 0.00 0.00 0.00 0.00 0.00 0.00 0.00 0.00 0.01
0.00 0.05 0.23 0.15 0.22 0.17 0.21 0.12 0.23 0.14 0.12 0.15 0.29 0.30 0.29 0.31 0.28 0.26 0.22 0.15 0.07 0.02 0.00 0.01 0.00 0.00 0.00 0.00 0.00 0.00 0.00 0.00 0.00 0.00 0.00 0.00 0.01 0.01 0.00 0.00 0.00 0.00
0.00 0.03 0.16 0.38 0.12 0.41 0.32 0.21 0.35 0.29 0.35 0.37 0.26 0.38 0.41 0.33 0.22 0.14 0.07 0.04 0.02 0.01 0.00 0.00 0.00 0.00 0.00 0.00 0.00 0.00 0.00 0.00 0.00 0.00 0.00 0.00 0.01 0.03 0.01 0.01 0.00 0.01
0.00 0.00 0.04 0.16 0.15 1.40 1.81 0.56 0.60 0.69 0.67 0.53 0.36 0.35 0.25 0.16 0.11 0.07 0.05 0.03 0.01 0.01 0.01 0.00 0.00 0.00 0.00 0.00 0.00 0.00 0.00 0.00 0.00 0.00 0.00 0.00 0.00 0.00 0.01 0.00 0.00 0.02
0.00 0.00 0.00 0.00 0.60 0.96 1.15 1.32 0.79 0.37 0.28 0.29 0.25 0.16 0.13 0.13 0.11 0.10 0.07 0.04 0.02 0.01 0.01 0.00 0.00 0.00 0.00 0.00 0.00 0.00 0.00 0.00 0.00 0.00 0.00 0.00 0.01 0.00 0.01 0.00 0.00 0.00
0.00 0.00 0.00 0.06 0.44 1.07 1.09 0.96 0.63 0.19 0.16 0.09 0.08 0.08 0.10 0.10 0.12 0.12 0.09 0.06 0.04 0.02 0.01 0.00 0.00 0.00 0.00 0.00 0.00 0.00 0.00 0.00 0.00 0.00 0.00 0.00 0.00 0.00 0.00 0.01 0.01 0.04
0.00 0.00 0.00 0.19 0.98 1.22 0.79 1.08 0.38 0.43 0.27 0.13 0.10 0.19 0.05 0.09 0.13 0.14 0.12 0.09 0.05 0.03 0.02 0.01 0.01 0.00 0.00 0.00 0.00 0.00 0.00 0.00 0.00 0.00 0.00 0.00 0.00 0.00 0.00 0.01 0.06 0.08
0.00 0.00 0.02 0.97 1.21 1.60 0.99 0.11 0.15 0.07 0.22 0.37 0.26 0.12 0.18 0.13 0.14 0.15 0.13 0.11 0.08 0.06 0.05 0.03 0.02 0.01 0.01 0.00 0.00 0.01 0.01 0.01 0.01 0.01 0.00 0.01 0.01 0.02 0.01 0.00 0.02 0.05
0.00 0.00 0.31 0.77 1.12 0.96 0.38 0.22 0.02 0.14 0.17 0.32 0.17 0.09 0.12 0.06 0.06 0.06 0.06 0.06 0.05 0.05 0.05 0.05 0.04 0.02 0.01 0.01 0.00 0.00 0.00 0.00 0.00 0.01 0.02 0.02 0.02 0.02 0.02 0.02 0.14 0.47
0.01 0.01 0.03 0.77 0.55 0.23 0.11 0.02 0.05 0.19 0.13 0.12 0.12 0.11 0.05 0.03 0.04 0.04 0.08 0.21 0.15 0.15 0.12 0.08 0.05 0.03 0.01 0.01 0.01 0.02 0.01 0.02 0.02 0.01 0.02 0.01 0.02 0.01 0.02 0.07 0.12 0.37
0.00 0.01 0.07 0.01 0.01 0.04 0.01 0.00 0.02 0.10 0.03 0.05 0.05 0.03 0.01 0.01 0.02 0.04 0.03 0.09 0.08 0.03 0.03 0.03 0.05 0.05 0.05 0.04 0.04 0.02 0.02 0.02 0.01 0.01 0.04 0.03 0.05 0.08 0.04 0.12 0.24 0.20
0.00 0.00 0.00 0.01 0.00 0.00 0.00 0.01 0.01 0.03 0.04 0.04 0.03 0.01 0.01 0.00 0.01 0.02 0.04 0.03 0.02 0.02 0.02 0.05 0.06 0.03 0.01 0.01 0.01 0.01 0.02 0.03 0.02 0.03 0.07 0.06 0.08 0.30 0.30 0.25 0.05 0.05
0.00 0.00 0.00 0.00 0.01 0.00 0.00 0.02 0.04 0.05 0.03 0.02 0.01 0.01 0.00 0.00 0.00 0.02 0.03 0.01 0.00 0.06 0.04 0.03 0.05 0.04 0.03 0.02 0.02 0.08 0.07 0.10 0.13 0.10 0.09 0.27 0.16 0.29 0.23 0.07 0.12 0.06
0.00 0.00 0.00 0.00 0.01 0.01 0.02 0.04 0.03 0.01 0.01 0.00 0.01 0.01 0.01 0.01 0.00 0.01 0.02 0.02 0.02 0.04 0.05 0.01 0.03 0.07 0.02 0.01 0.04 0.07 0.09 0.09 0.10 0.09 0.08 0.05 0.05 0.11 0.18 0.16 0.05 0.09

ECMWFNIL_prec_precacc_051.txt.gz
Total_Precipitation_Accumulation
0.00 0.00 0.00 0.00 0.00 0.00 0.00 0.00 0.00 0.00 0.00 0.00 0.00 0.00 0.00 0.00 0.00 0.00 0.00 0.00 0.00 0.00 0.00 0.00 0.00 0.00 0.01 0.01 0.01 0.01 0.01 0.01 0.00 0.01 0.01 0.01 0.01 0.01 0.01 0.00 0.00 0.00
0.00 0.00 0.00 0.00 0.00 0.00 0.00 0.00 0.00 0.00 0.00 0.00 0.00 0.00 0.00 0.00 0.00 0.00 0.00 0.00 0.00 0.00 0.00 0.00 0.00 0.00 0.00 0.01 0.01 0.01 0.01 0.01 0.01 0.00 0.01 0.01 0.01 0.01 0.01 0.00 0.00 0.00
0.00 0.00 0.00 0.00 0.00 0.00 0.00 0.00 0.00 0.00 0.00 0.00 0.00 0.00 0.00 0.00 0.00 0.00 0.00 0.00 0.00 0.00 0.00 0.00 0.00 0.00 0.00 0.00 0.01 0.01 0.00 0.01 0.00 0.00 0.00 0.01 0.01 0.01 0.01 0.01 0.01 0.01
0.00 0.00 0.00 0.00 0.00 0.00 0.00 0.00 0.00 0.00 0.00 0.00 0.00 0.00 0.00 0.00 0.00 0.00 0.00 0.00 0.00 0.00 0.00 0.00 0.00 0.00 0.00 0.00 0.00 0.00 0.00 0.00 0.00 0.00 0.00 0.00 0.01 0.01 0.01 0.01 0.00 0.00
0.00 0.00 0.00 0.00 0.00 0.00 0.00 0.00 0.00 0.00 0.00 0.00 0.00 0.00 0.00 0.00 0.00 0.00 0.00 0.00 0.00 0.00 0.00 0.00 0.00 0.00 0.00 0.00 0.00 0.00 0.00 0.00 0.00 0.00 0.00 0.00 0.00 0.00 0.00 0.00 0.00 0.00
0.00 0.00 0.00 0.00 0.00 0.00 0.00 0.00 0.00 0.00 0.00 0.00 0.00 0.00 0.00 0.00 0.00 0.00 0.00 0.00 0.00 0.00 0.00 0.00 0.00 0.00 0.00 0.00 0.00 0.00 0.00 0.00 0.00 0.00 0.00 0.00 0.00 0.00 0.00 0.00 0.00 0.00
0.00 0.00 0.00 0.00 0.00 0.00 0.00 0.00 0.00 0.00 0.01 0.00 0.01 0.00 0.00 0.00 0.00 0.00 0.00 0.00 0.00 0.00 0.00 0.00 0.00 0.00 0.00 0.00 0.00 0.00 0.00 0.00 0.00 0.00 0.00 0.00 0.00 0.00 0.00 0.00 0.00 0.00
0.00 0.00 0.00 0.00 0.00 0.00 0.01 0.01 0.01 0.00 0.00 0.00 0.00 0.00 0.00 0.00 0.00 0.00 0.00 0.00 0.00 0.00 0.00 0.00 0.00 0.00 0.00 0.00 0.00 0.00 0.00 0.00 0.00 0.00 0.00 0.00 0.00 0.00 0.00 0.00 0.00 0.00
0.00 0.00 0.00 0.00 0.00 0.00 0.01 0.01 0.00 0.01 0.00 0.00 0.00 0.00 0.00 0.00 0.00 0.00 0.00 0.00 0.00 0.00 0.00 0.00 0.01 0.01 0.00 0.00 0.00 0.00 0.00 0.00 0.00 0.00 0.00 0.00 0.00 0.00 0.00 0.00 0.00 0.00
0.00 0.00 0.00 0.00 0.00 0.03 0.03 0.10 0.04 0.01 0.01 0.00 0.00 0.00 0.00 0.00 0.00 0.00 0.00 0.00 0.01 0.02 0.03 0.03 0.02 0.02 0.02 0.00 0.00 0.00 0.00 0.00 0.00 0.00 0.00 0.00 0.00 0.00 0.00 0.00 0.00 0.00
0.07 0.03 0.00 0.01 0.03 0.08 0.05 0.05 0.04 0.05 0.03 0.01 0.00 0.01 0.03 0.06 0.04 0.04 0.08 0.11 0.12 0.09 0.07 0.06 0.04 0.02 0.00 0.00 0.00 0.00 0.00 0.00 0.00 0.00 0.00 0.00 0.00 0.00 0.00 0.00 0.00 0.00
0.03 0.01 0.01 0.02 0.05 0.03 0.06 0.02 0.01 0.00 0.00 0.01 0.02 0.05 0.06 0.07 0.10 0.16 0.19 0.18 0.14 0.11 0.08 0.06 0.02 0.00 0.00 0.00 0.00 0.00 0.00 0.00 0.00 0.00 0.00 0.00 0.00 0.00 0.00 0.00 0.00 0.00
0.04 0.02 0.03 0.05 0.03 0.05 0.16 0.22 0.12 0.01 0.02 0.03 0.04 0.11 0.22 0.20 0.24 0.23 0.20 0.17 0.13 0.10 0.05 0.01 0.00 0.00 0.00 0.00 0.00 0.00 0.00 0.00 0.00 0.00 0.00 0.00 0.00 0.00 0.00 0.00 0.00 0.01
0.00 0.05 0.23 0.15 0.22 0.17 0.21 0.12 0.23 0.14 0.12 0.15 0.29 0.30 0.29 0.31 0.28 0.26 0.22 0.15 0.07 0.02 0.00 0.01 0.00 0.00 0.00 0.00 0.00 0.00 0.00 0.00 0.00 0.00 0.00 0.00 0.01 0.01 0.00 0.00 0.00 0.00
0.00 0.03 0.16 0.38 0.12 0.41 0.32 0.21 0.35 0.29 0.35 0.37 0.26 0.38 0.41 0.33 0.22 0.14 0.07 0.04 0.02 0.01 0.00 0.00 0.00 0.00 0.00 0.00 0.00 0.00 0.00 0.00 0.00 0.00 0.00 0.00 0.01 0.03 0.01 0.01 0.00 0.01
0.00 0.00 0.04 0.16 0.15 1.40 1.81 0.56 0.60 0.69 0.67 0.53 0.36 0.35 0.25 0.16 0.11 0.07 0.05 0.03 0.01 0.01 0.01 0.00 0.00 0.00 0.00 0.00 0.00 0.00 0.00 0.00 0.00 0.00 0.00 0.00 0.00 0.00 0.01 0.00 0.00 0.02
0.00 0.00 0.00 0.00 0.60 0.96 1.15 1.32 0.79 0.37 0.28 0.29 0.25 0.16 0.13 0.13 0.11 0.10 0.07 0.04 0.02 0.01 0.01 0.00 0.00 0.00 0.00 0.00 0.00 0.00 0.00 0.00 0.00 0.00 0.00 0.00 0.01 0.00 0.01 0.00 0.00 0.00
0.00 0.00 0.00 0.06 0.44 1.07 1.09 0.96 0.63 0.19 0.16 0.09 0.08 0.08 0.10 0.10 0.12 0.12 0.09 0.06 0.04 0.02 0.01 0.00 0.00 0.00 0.00 0.00 0.00 0.00 0.00 0.00 0.00 0.00 0.00 0.00 0.00 0.00 0.00 0.01 0.01 0.04
0.00 0.00 0.00 0.19 0.98 1.22 0.79 1.08 0.38 0.43 0.27 0.13 0.10 0.19 0.05 0.09 0.13 0.14 0.12 0.09 0.05 0.03 0.02 0.01 0.01 0.00 0.00 0.00 0.00 0.00 0.00 0.00 0.00 0.00 0.00 0.00 0.00 0.00 0.00 0.01 0.06 0.08
0.00 0.00 0.02 0.97 1.21 1.60 0.99 0.11 0.15 0.07 0.22 0.37 0.26 0.12 0.18 0.13 0.14 0.15 0.13 0.11 0.08 0.06 0.05 0.03 0.02 0.01 0.01 0.00 0.00 0.01 0.01 0.01 0.01 0.01 0.00 0.01 0.01 0.02 0.01 0.00 0.02 0.05
0.00 0.00 0.31 0.77 1.12 0.96 0.38 0.22 0.02 0.14 0.17 0.32 0.17 0.09 0.12 0.06 0.06 0.06 0.06 0.06 0.05 0.05 0.05 0.05 0.04 0.02 0.01 0.01 0.00 0.00 0.00 0.00 0.00 0.01 0.02 0.02 0.02 0.02 0.02 0.02 0.14 0.47
0.01 0.01 0.03 0.77 0.55 0.23 0.11 0.02 0.05 0.19 0.13 0.12 0.12 0.11 0.05 0.03 0.04 0.04 0.08 0.21 0.15 0.15 0.12 0.08 0.05 0.03 0.01 0.01 0.01 0.02 0.01 0.02 0.02 0.01 0.02 0.01 0.02 0.01 0.02 0.07 0.12 0.37
0.00 0.01 0.07 0.01 0.01 0.04 0.01 0.00 0.02 0.10 0.03 0.05 0.05 0.03 0.01 0.01 0.02 0.04 0.03 0.09 0.08 0.03 0.03 0.03 0.05 0.05 0.05 0.04 0.04 0.02 0.02 0.02 0.01 0.01 0.04 0.03 0.05 0.08 0.04 0.12 0.24 0.20
0.00 0.00 0.00 0.01 0.00 0.00 0.00 0.01 0.01 0.03 0.04 0.04 0.03 0.01 0.01 0.00 0.01 0.02 0.04 0.03 0.02 0.02 0.02 0.05 0.06 0.03 0.01 0.01 0.01 0.01 0.02 0.03 0.02 0.03 0.07 0.06 0.08 0.30 0.30 0.25 0.05 0.05
0.00 0.00 0.00 0.00 0.01 0.00 0.00 0.02 0.04 0.05 0.03 0.02 0.01 0.01 0.00 0.00 0.00 0.02 0.03 0.01 0.00 0.06 0.04 0.03 0.05 0.04 0.03 0.02 0.02 0.08 0.07 0.10 0.13 0.10 0.09 0.27 0.16 0.29 0.23 0.07 0.12 0.06
0.00 0.00 0.00 0.00 0.01 0.01 0.02 0.04 0.03 0.01 0.01 0.00 0.01 0.01 0.01 0.01 0.00 0.01 0.02 0.02 0.02 0.04 0.05 0.01 0.03 0.07 0.02 0.01 0.04 0.07 0.09 0.09 0.10 0.09 0.08 0.05 0.05 0.11 0.18 0.16 0.05 0.09

ECMWFNIL_prec_precacc_054.txt.gz
Total_Precipitation_Accumulation
0.00 0.00 0.00 0.00 0.00 0.00 0.00 0.00 0.00 0.00 0.00 0.00 0.00 0.00 0.00 0.00 0.00 0.00 0.00 0.00 0.00 0.00 0.00 0.00 0.00 0.01 0.01 0.02 0.01 0.01 0.01 0.01 0.00 0.01 0.01 0.01 0.02 0.01 0.01 0.00 0.00 0.00
0.00 0.00 0.00 0.00 0.00 0.00 0.00 0.00 0.00 0.00 0.00 0.00 0.00 0.00 0.00 0.00 0.00 0.00 0.00 0.00 0.00 0.00 0.00 0.00 0.00 0.00 0.01 0.01 0.01 0.01 0.02 0.01 0.01 0.00 0.01 0.01 0.01 0.02 0.01 0.00 0.01 0.00
0.00 0.00 0.00 0.00 0.00 0.00 0.00 0.00 0.00 0.00 0.00 0.00 0.00 0.00 0.00 0.00 0.00 0.00 0.00 0.00 0.00 0.00 0.00 0.00 0.00 0.00 0.00 0.00 0.01 0.01 0.01 0.01 0.00 0.01 0.00 0.01 0.01 0.02 0.01 0.01 0.01 0.01
0.00 0.00 0.00 0.00 0.00 0.00 0.00 0.00 0.00 0.00 0.00 0.00 0.00 0.00 0.00 0.00 0.00 0.00 0.00 0.00 0.00 0.00 0.00 0.00 0.00 0.01 0.00 0.00 0.00 0.00 0.00 0.00 0.00 0.00 0.00 0.01 0.01 0.01 0.01 0.01 0.00 0.00
0.00 0.00 0.00 0.00 0.00 0.00 0.00 0.00 0.00 0.00 0.00 0.00 0.00 0.00 0.00 0.00 0.00 0.00 0.00 0.00 0.00 0.00 0.00 0.00 0.00 0.00 0.00 0.01 0.00 0.00 0.00 0.01 0.00 0.00 0.00 0.00 0.00 0.00 0.00 0.00 0.00 0.00
0.00 0.00 0.00 0.00 0.00 0.00 0.00 0.00 0.00 0.00 0.00 0.00 0.00 0.00 0.00 0.00 0.00 0.00 0.00 0.00 0.00 0.00 0.00 0.00 0.00 0.00 0.00 0.00 0.00 0.00 0.00 0.00 0.00 0.00 0.00 0.00 0.00 0.00 0.00 0.00 0.00 0.00
0.00 0.00 0.00 0.00 0.00 0.00 0.00 0.00 0.00 0.00 0.01 0.00 0.01 0.00 0.00 0.00 0.00 0.00 0.00 0.00 0.00 0.00 0.00 0.00 0.00 0.00 0.00 0.00 0.00 0.00 0.00 0.00 0.00 0.00 0.00 0.00 0.00 0.00 0.00 0.00 0.00 0.00
0.00 0.00 0.00 0.00 0.00 0.00 0.01 0.01 0.01 0.00 0.00 0.00 0.00 0.00 0.00 0.00 0.00 0.00 0.00 0.00 0.00 0.00 0.00 0.00 0.00 0.00 0.00 0.00 0.00 0.00 0.00 0.00 0.00 0.00 0.00 0.00 0.00 0.00 0.00 0.00 0.00 0.00
0.00 0.00 0.00 0.00 0.00 0.00 0.01 0.01 0.00 0.01 0.00 0.00 0.00 0.00 0.00 0.00 0.00 0.00 0.00 0.00 0.00 0.00 0.00 0.00 0.01 0.01 0.00 0.00 0.00 0.00 0.00 0.00 0.00 0.00 0.00 0.00 0.00 0.00 0.00 0.00 0.00 0.00
0.00 0.00 0.00 0.00 0.00 0.03 0.03 0.10 0.04 0.01 0.01 0.00 0.00 0.00 0.00 0.00 0.00 0.00 0.00 0.00 0.01 0.02 0.03 0.03 0.02 0.02 0.02 0.00 0.00 0.00 0.00 0.00 0.00 0.00 0.00 0.00 0.00 0.00 0.00 0.00 0.00 0.00
0.07 0.03 0.00 0.01 0.03 0.08 0.05 0.05 0.04 0.05 0.03 0.01 0.00 0.01 0.03 0.06 0.04 0.04 0.08 0.11 0.12 0.09 0.07 0.06 0.04 0.02 0.00 0.00 0.00 0.00 0.00 0.00 0.00 0.00 0.00 0.00 0.00 0.00 0.00 0.00 0.00 0.00
0.03 0.01 0.01 0.02 0.05 0.03 0.06 0.02 0.01 0.00 0.00 0.01 0.02 0.05 0.06 0.07 0.10 0.16 0.19 0.18 0.14 0.11 0.08 0.06 0.02 0.00 0.00 0.00 0.00 0.00 0.00 0.00 0.00 0.00 0.00 0.00 0.00 0.00 0.00 0.00 0.00 0.00
0.04 0.02 0.03 0.05 0.03 0.05 0.16 0.22 0.12 0.01 0.02 0.03 0.04 0.11 0.22 0.20 0.24 0.23 0.20 0.17 0.13 0.10 0.05 0.01 0.00 0.00 0.00 0.00 0.00 0.00 0.00 0.00 0.00 0.00 0.00 0.00 0.00 0.00 0.00 0.00 0.00 0.01
0.00 0.05 0.23 0.15 0.22 0.17 0.21 0.12 0.23 0.14 0.12 0.15 0.29 0.30 0.29 0.31 0.28 0.26 0.22 0.15 0.07 0.02 0.00 0.01 0.00 0.00 0.00 0.00 0.00 0.00 0.00 0.00 0.00 0.00 0.00 0.00 0.01 0.01 0.00 0.00 0.00 0.00
0.00 0.03 0.16 0.38 0.12 0.41 0.32 0.21 0.35 0.29 0.35 0.37 0.26 0.38 0.41 0.33 0.22 0.14 0.07 0.04 0.02 0.01 0.00 0.00 0.00 0.00 0.00 0.00 0.00 0.00 0.00 0.00 0.00 0.00 0.00 0.00 0.01 0.03 0.01 0.01 0.00 0.01
0.00 0.00 0.04 0.16 0.15 1.40 1.81 0.56 0.60 0.69 0.67 0.53 0.36 0.35 0.25 0.16 0.11 0.07 0.05 0.03 0.01 0.01 0.01 0.00 0.00 0.00 0.00 0.00 0.00 0.00 0.00 0.00 0.00 0.00 0.00 0.00 0.00 0.00 0.01 0.00 0.00 0.02
0.00 0.00 0.00 0.00 0.60 0.96 1.15 1.32 0.79 0.37 0.28 0.29 0.25 0.16 0.13 0.13 0.11 0.10 0.07 0.04 0.02 0.01 0.01 0.00 0.00 0.00 0.00 0.00 0.00 0.00 0.00 0.00 0.00 0.00 0.00 0.00 0.01 0.00 0.01 0.00 0.00 0.00
0.00 0.00 0.00 0.06 0.44 1.07 1.09 0.96 0.63 0.19 0.16 0.09 0.08 0.08 0.10 0.10 0.12 0.12 0.09 0.06 0.04 0.02 0.01 0.00 0.00 0.00 0.00 0.00 0.00 0.00 0.00 0.00 0.00 0.00 0.00 0.00 0.00 0.00 0.00 0.01 0.01 0.04
0.00 0.00 0.00 0.19 0.98 1.22 0.79 1.08 0.38 0.43 0.27 0.13 0.10 0.19 0.05 0.09 0.13 0.14 0.12 0.09 0.05 0.03 0.02 0.01 0.01 0.00 0.00 0.00 0.00 0.00 0.00 0.00 0.00 0.00 0.00 0.00 0.00 0.00 0.00 0.01 0.06 0.08
0.00 0.00 0.02 0.97 1.21 1.60 0.99 0.11 0.15 0.07 0.22 0.37 0.26 0.12 0.18 0.13 0.14 0.15 0.13 0.11 0.08 0.06 0.05 0.03 0.02 0.01 0.01 0.00 0.00 0.01 0.01 0.01 0.01 0.01 0.00 0.01 0.01 0.02 0.01 0.00 0.02 0.05
0.00 0.00 0.31 0.77 1.12 0.96 0.38 0.22 0.02 0.14 0.17 0.32 0.17 0.09 0.12 0.06 0.06 0.06 0.06 0.06 0.05 0.05 0.05 0.05 0.04 0.02 0.01 0.01 0.00 0.00 0.00 0.00 0.00 0.01 0.02 0.02 0.02 0.02 0.02 0.02 0.14 0.47
0.01 0.01 0.03 0.77 0.55 0.23 0.11 0.02 0.05 0.19 0.13 0.12 0.12 0.11 0.05 0.03 0.04 0.04 0.08 0.21 0.15 0.15 0.12 0.08 0.05 0.03 0.01 0.01 0.01 0.02 0.01 0.02 0.02 0.01 0.02 0.01 0.02 0.01 0.02 0.07 0.12 0.37
0.00 0.01 0.07 0.01 0.01 0.04 0.01 0.00 0.02 0.10 0.03 0.05 0.05 0.03 0.01 0.01 0.02 0.04 0.03 0.09 0.08 0.03 0.03 0.03 0.05 0.05 0.05 0.04 0.04 0.02 0.02 0.02 0.01 0.01 0.04 0.03 0.05 0.08 0.04 0.12 0.24 0.20
0.00 0.00 0.00 0.01 0.00 0.00 0.00 0.01 0.01 0.03 0.04 0.04 0.03 0.01 0.01 0.00 0.01 0.02 0.04 0.03 0.02 0.02 0.02 0.05 0.06 0.03 0.01 0.01 0.01 0.01 0.02 0.03 0.02 0.03 0.07 0.06 0.08 0.30 0.30 0.25 0.05 0.05
0.00 0.00 0.00 0.00 0.01 0.00 0.00 0.02 0.04 0.05 0.03 0.02 0.01 0.01 0.00 0.00 0.00 0.02 0.03 0.01 0.00 0.06 0.04 0.03 0.05 0.04 0.03 0.02 0.02 0.08 0.07 0.10 0.13 0.10 0.09 0.27 0.16 0.29 0.23 0.07 0.12 0.06
0.00 0.00 0.00 0.00 0.01 0.01 0.02 0.04 0.03 0.01 0.01 0.00 0.01 0.01 0.01 0.01 0.00 0.01 0.02 0.02 0.02 0.04 0.05 0.01 0.03 0.07 0.02 0.01 0.04 0.07 0.09 0.09 0.10 0.09 0.08 0.05 0.05 0.11 0.18 0.16 0.05 0.09

ECMWFNIL_prec_precacc_057.txt.gz
Total_Precipitation_Accumulation
0.00 0.00 0.00 0.00 0.00 0.00 0.00 0.00 0.00 0.00 0.00 0.00 0.00 0.00 0.00 0.00 0.00 0.00 0.00 0.00 0.00 0.00 0.00 0.00 0.00 0.01 0.02 0.02 0.02 0.01 0.01 0.01 0.00 0.01 0.01 0.01 0.02 0.01 0.01 0.00 0.00 0.00
0.00 0.00 0.00 0.00 0.00 0.00 0.00 0.00 0.00 0.00 0.00 0.00 0.00 0.00 0.00 0.00 0.00 0.00 0.00 0.00 0.00 0.00 0.00 0.00 0.01 0.00 0.01 0.01 0.01 0.01 0.02 0.01 0.01 0.00 0.01 0.01 0.01 0.02 0.01 0.00 0.01 0.00
0.00 0.00 0.00 0.00 0.00 0.00 0.00 0.00 0.00 0.00 0.00 0.00 0.00 0.00 0.00 0.00 0.00 0.00 0.00 0.00 0.00 0.01 0.00 0.00 0.00 0.00 0.00 0.00 0.01 0.01 0.01 0.01 0.00 0.01 0.00 0.01 0.01 0.02 0.01 0.01 0.01 0.01
0.00 0.00 0.00 0.00 0.00 0.00 0.00 0.00 0.00 0.00 0.00 0.00 0.00 0.00 0.00 0.00 0.00 0.00 0.00 0.00 0.00 0.00 0.00 0.00 0.00 0.01 0.00 0.00 0.00 0.00 0.00 0.00 0.00 0.00 0.00 0.01 0.01 0.01 0.01 0.01 0.00 0.00
0.00 0.00 0.00 0.00 0.00 0.00 0.00 0.00 0.00 0.00 0.00 0.00 0.00 0.00 0.00 0.00 0.00 0.00 0.00 0.00 0.00 0.00 0.00 0.00 0.00 0.01 0.00 0.01 0.01 0.00 0.00 0.01 0.00 0.00 0.00 0.00 0.00 0.00 0.00 0.00 0.00 0.00
0.00 0.00 0.00 0.00 0.00 0.00 0.00 0.00 0.00 0.00 0.00 0.00 0.00 0.00 0.00 0.00 0.00 0.00 0.00 0.00 0.00 0.00 0.00 0.00 0.00 0.00 0.00 0.00 0.00 0.00 0.00 0.00 0.00 0.00 0.00 0.00 0.00 0.01 0.00 0.00 0.00 0.00
0.00 0.00 0.00 0.00 0.00 0.00 0.00 0.00 0.00 0.00 0.01 0.00 0.01 0.00 0.00 0.00 0.00 0.00 0.00 0.00 0.00 0.00 0.00 0.00 0.00 0.00 0.00 0.00 0.00 0.00 0.00 0.00 0.00 0.00 0.00 0.00 0.00 0.00 0.00 0.00 0.00 0.00
0.00 0.00 0.00 0.00 0.00 0.00 0.01 0.01 0.01 0.00 0.00 0.00 0.00 0.00 0.00 0.00 0.00 0.00 0.00 0.00 0.00 0.00 0.00 0.00 0.00 0.00 0.00 0.00 0.00 0.00 0.00 0.00 0.00 0.00 0.00 0.00 0.00 0.00 0.00 0.00 0.00 0.00
0.00 0.00 0.00 0.00 0.00 0.00 0.01 0.01 0.00 0.01 0.00 0.00 0.00 0.00 0.00 0.00 0.00 0.00 0.00 0.00 0.00 0.00 0.00 0.00 0.01 0.01 0.00 0.00 0.00 0.00 0.00 0.00 0.00 0.00 0.00 0.00 0.00 0.00 0.00 0.00 0.00 0.00
0.00 0.00 0.00 0.00 0.00 0.03 0.03 0.10 0.04 0.01 0.01 0.00 0.00 0.00 0.00 0.00 0.00 0.00 0.00 0.00 0.01 0.02 0.03 0.03 0.02 0.02 0.02 0.00 0.00 0.00 0.00 0.00 0.00 0.00 0.00 0.00 0.00 0.00 0.00 0.00 0.00 0.00
0.07 0.03 0.00 0.01 0.03 0.08 0.05 0.05 0.04 0.05 0.03 0.01 0.00 0.01 0.03 0.06 0.04 0.04 0.08 0.11 0.12 0.09 0.07 0.06 0.04 0.02 0.00 0.00 0.00 0.00 0.00 0.00 0.00 0.00 0.00 0.00 0.00 0.00 0.00 0.00 0.00 0.00
0.03 0.01 0.01 0.02 0.05 0.03 0.06 0.02 0.01 0.00 0.00 0.01 0.02 0.05 0.06 0.07 0.10 0.16 0.19 0.18 0.14 0.11 0.08 0.06 0.02 0.00 0.00 0.00 0.00 0.00 0.00 0.00 0.00 0.00 0.00 0.00 0.00 0.00 0.00 0.00 0.00 0.00
0.04 0.02 0.03 0.05 0.03 0.05 0.16 0.22 0.12 0.01 0.02 0.03 0.04 0.11 0.22 0.20 0.24 0.23 0.20 0.17 0.13 0.10 0.05 0.01 0.00 0.00 0.00 0.00 0.00 0.00 0.00 0.00 0.00 0.00 0.00 0.00 0.00 0.00 0.00 0.00 0.00 0.01
0.00 0.05 0.23 0.15 0.22 0.17 0.21 0.12 0.23 0.14 0.12 0.15 0.29 0.30 0.29 0.31 0.28 0.26 0.22 0.15 0.07 0.02 0.00 0.01 0.00 0.00 0.00 0.00 0.00 0.00 0.00 0.00 0.00 0.00 0.00 0.00 0.01 0.01 0.00 0.00 0.00 0.00
0.00 0.03 0.16 0.38 0.12 0.41 0.32 0.21 0.35 0.29 0.35 0.37 0.26 0.38 0.41 0.33 0.22 0.14 0.07 0.04 0.02 0.01 0.00 0.00 0.00 0.00 0.00 0.00 0.00 0.00 0.00 0.00 0.00 0.00 0.00 0.00 0.01 0.03 0.01 0.01 0.00 0.01
0.00 0.00 0.04 0.16 0.15 1.40 1.81 0.56 0.60 0.69 0.67 0.53 0.36 0.35 0.25 0.16 0.11 0.07 0.05 0.03 0.01 0.01 0.01 0.00 0.00 0.00 0.00 0.00 0.00 0.00 0.00 0.00 0.00 0.00 0.00 0.00 0.00 0.00 0.01 0.00 0.00 0.02
0.00 0.00 0.00 0.00 0.60 0.96 1.15 1.32 0.79 0.37 0.28 0.29 0.25 0.16 0.13 0.13 0.11 0.10 0.07 0.04 0.02 0.01 0.01 0.00 0.00 0.00 0.00 0.00 0.00 0.00 0.00 0.00 0.00 0.00 0.00 0.00 0.01 0.00 0.01 0.00 0.00 0.00
0.00 0.00 0.00 0.06 0.44 1.07 1.09 0.96 0.63 0.19 0.16 0.09 0.08 0.08 0.10 0.10 0.12 0.12 0.09 0.06 0.04 0.02 0.01 0.00 0.00 0.00 0.00 0.00 0.00 0.00 0.00 0.00 0.00 0.00 0.00 0.00 0.00 0.00 0.00 0.01 0.01 0.04
0.00 0.00 0.00 0.19 0.98 1.22 0.79 1.08 0.38 0.43 0.27 0.13 0.10 0.19 0.05 0.09 0.13 0.14 0.12 0.09 0.05 0.03 0.02 0.01 0.01 0.00 0.00 0.00 0.00 0.00 0.00 0.00 0.00 0.00 0.00 0.00 0.00 0.00 0.00 0.01 0.06 0.08
0.00 0.00 0.02 0.97 1.21 1.60 0.99 0.11 0.15 0.07 0.22 0.37 0.26 0.12 0.18 0.13 0.14 0.15 0.13 0.11 0.08 0.06 0.05 0.03 0.02 0.01 0.01 0.00 0.00 0.01 0.01 0.01 0.01 0.01 0.00 0.01 0.01 0.02 0.01 0.00 0.02 0.05
0.00 0.00 0.31 0.77 1.12 0.96 0.38 0.22 0.02 0.14 0.17 0.32 0.17 0.09 0.12 0.06 0.06 0.06 0.06 0.06 0.05 0.05 0.05 0.05 0.04 0.02 0.01 0.01 0.00 0.00 0.00 0.00 0.00 0.01 0.02 0.02 0.02 0.02 0.02 0.02 0.14 0.47
0.01 0.01 0.03 0.77 0.55 0.23 0.11 0.02 0.05 0.19 0.13 0.12 0.12 0.11 0.05 0.03 0.04 0.04 0.08 0.21 0.15 0.15 0.12 0.08 0.05 0.03 0.01 0.01 0.01 0.02 0.01 0.02 0.02 0.01 0.02 0.01 0.02 0.01 0.02 0.07 0.12 0.37
0.00 0.01 0.07 0.01 0.01 0.04 0.01 0.00 0.02 0.10 0.03 0.05 0.05 0.03 0.01 0.01 0.02 0.04 0.03 0.09 0.08 0.03 0.03 0.03 0.05 0.05 0.05 0.04 0.04 0.02 0.02 0.02 0.01 0.01 0.04 0.03 0.05 0.08 0.04 0.12 0.24 0.20
0.00 0.00 0.00 0.01 0.00 0.00 0.00 0.01 0.01 0.03 0.04 0.04 0.03 0.01 0.01 0.00 0.01 0.02 0.04 0.03 0.02 0.02 0.02 0.05 0.06 0.03 0.01 0.01 0.01 0.01 0.02 0.03 0.02 0.03 0.07 0.06 0.08 0.30 0.30 0.25 0.05 0.05
0.00 0.00 0.00 0.00 0.01 0.00 0.00 0.02 0.04 0.05 0.03 0.02 0.01 0.01 0.00 0.00 0.00 0.02 0.03 0.01 0.00 0.06 0.04 0.03 0.05 0.04 0.03 0.02 0.02 0.08 0.07 0.10 0.13 0.10 0.09 0.27 0.16 0.29 0.23 0.07 0.12 0.06
0.00 0.00 0.00 0.00 0.01 0.01 0.02 0.04 0.03 0.01 0.01 0.00 0.01 0.01 0.01 0.01 0.00 0.01 0.02 0.02 0.02 0.04 0.05 0.01 0.03 0.07 0.02 0.01 0.04 0.07 0.09 0.09 0.10 0.09 0.08 0.05 0.05 0.11 0.18 0.16 0.05 0.09

ECMWFNIL_prec_precacc_060.txt.gz
Total_Precipitation_Accumulation
0.00 0.00 0.00 0.00 0.00 0.00 0.00 0.00 0.00 0.00 0.00 0.00 0.00 0.00 0.00 0.00 0.00 0.00 0.00 0.00 0.00 0.00 0.00 0.00 0.00 0.01 0.02 0.02 0.02 0.01 0.01 0.01 0.00 0.01 0.01 0.01 0.02 0.02 0.01 0.00 0.00 0.00
0.00 0.00 0.00 0.00 0.00 0.00 0.00 0.00 0.00 0.00 0.00 0.00 0.00 0.00 0.00 0.00 0.00 0.00 0.00 0.00 0.00 0.00 0.00 0.00 0.01 0.00 0.01 0.01 0.01 0.01 0.02 0.01 0.01 0.00 0.01 0.01 0.01 0.02 0.01 0.00 0.01 0.00
0.00 0.00 0.00 0.00 0.00 0.00 0.00 0.00 0.00 0.00 0.00 0.00 0.00 0.00 0.00 0.00 0.00 0.00 0.00 0.00 0.00 0.01 0.00 0.00 0.00 0.00 0.00 0.00 0.01 0.01 0.01 0.01 0.00 0.01 0.00 0.01 0.01 0.02 0.02 0.01 0.01 0.01
0.00 0.00 0.00 0.00 0.00 0.00 0.00 0.00 0.00 0.00 0.00 0.00 0.00 0.00 0.00 0.00 0.00 0.00 0.00 0.00 0.00 0.00 0.00 0.00 0.00 0.01 0.00 0.00 0.00 0.00 0.00 0.00 0.00 0.00 0.00 0.01 0.01 0.01 0.01 0.01 0.00 0.00
0.00 0.00 0.00 0.00 0.00 0.00 0.00 0.00 0.00 0.00 0.00 0.00 0.00 0.00 0.00 0.00 0.00 0.00 0.00 0.00 0.00 0.00 0.00 0.00 0.00 0.01 0.00 0.01 0.01 0.00 0.00 0.01 0.00 0.00 0.00 0.00 0.00 0.00 0.00 0.00 0.00 0.00
0.00 0.00 0.00 0.00 0.00 0.00 0.00 0.00 0.00 0.00 0.00 0.00 0.00 0.00 0.00 0.00 0.00 0.00 0.00 0.00 0.00 0.00 0.00 0.00 0.00 0.00 0.00 0.00 0.00 0.00 0.00 0.00 0.00 0.00 0.00 0.00 0.00 0.01 0.00 0.00 0.00 0.00
0.00 0.00 0.00 0.00 0.00 0.00 0.00 0.00 0.00 0.00 0.01 0.00 0.01 0.00 0.00 0.00 0.00 0.00 0.00 0.00 0.00 0.00 0.00 0.00 0.00 0.00 0.00 0.00 0.00 0.00 0.00 0.00 0.00 0.00 0.00 0.00 0.00 0.00 0.00 0.00 0.00 0.00
0.00 0.00 0.00 0.00 0.00 0.00 0.01 0.01 0.01 0.00 0.00 0.00 0.00 0.00 0.00 0.00 0.00 0.00 0.00 0.00 0.00 0.00 0.00 0.00 0.00 0.00 0.00 0.00 0.00 0.00 0.00 0.00 0.00 0.00 0.00 0.00 0.00 0.00 0.00 0.00 0.00 0.00
0.00 0.00 0.00 0.00 0.00 0.00 0.01 0.01 0.00 0.01 0.00 0.00 0.00 0.00 0.00 0.00 0.00 0.00 0.00 0.00 0.00 0.00 0.00 0.00 0.01 0.01 0.00 0.00 0.00 0.00 0.00 0.00 0.00 0.00 0.00 0.00 0.00 0.00 0.00 0.00 0.00 0.00
0.00 0.00 0.00 0.00 0.00 0.03 0.03 0.10 0.04 0.01 0.01 0.00 0.00 0.00 0.00 0.00 0.00 0.00 0.00 0.00 0.01 0.02 0.03 0.03 0.02 0.02 0.02 0.00 0.00 0.00 0.00 0.00 0.00 0.00 0.00 0.00 0.00 0.00 0.00 0.00 0.00 0.00
0.07 0.03 0.00 0.01 0.03 0.08 0.05 0.05 0.04 0.05 0.03 0.01 0.00 0.01 0.03 0.06 0.04 0.04 0.08 0.11 0.12 0.09 0.07 0.06 0.04 0.02 0.00 0.00 0.00 0.00 0.00 0.00 0.00 0.00 0.00 0.00 0.00 0.00 0.00 0.00 0.00 0.00
0.03 0.01 0.01 0.02 0.05 0.03 0.06 0.02 0.01 0.00 0.00 0.01 0.02 0.05 0.06 0.07 0.10 0.16 0.19 0.18 0.14 0.11 0.08 0.06 0.02 0.00 0.00 0.00 0.00 0.00 0.00 0.00 0.00 0.00 0.00 0.00 0.00 0.00 0.00 0.00 0.00 0.00
0.04 0.02 0.03 0.05 0.03 0.05 0.16 0.22 0.12 0.01 0.02 0.03 0.04 0.11 0.22 0.20 0.24 0.23 0.20 0.17 0.13 0.10 0.05 0.01 0.00 0.00 0.00 0.00 0.00 0.00 0.00 0.00 0.00 0.00 0.00 0.00 0.00 0.00 0.00 0.00 0.00 0.01
0.00 0.05 0.23 0.15 0.22 0.17 0.21 0.12 0.23 0.14 0.12 0.15 0.29 0.30 0.29 0.31 0.28 0.26 0.22 0.15 0.07 0.02 0.00 0.01 0.00 0.00 0.00 0.00 0.00 0.00 0.00 0.00 0.00 0.00 0.00 0.00 0.01 0.01 0.00 0.00 0.00 0.00
0.00 0.03 0.16 0.38 0.12 0.41 0.32 0.21 0.35 0.29 0.35 0.37 0.26 0.38 0.41 0.33 0.22 0.14 0.07 0.04 0.02 0.01 0.00 0.00 0.00 0.00 0.00 0.00 0.00 0.00 0.00 0.00 0.00 0.00 0.00 0.00 0.01 0.03 0.01 0.01 0.00 0.01
0.00 0.00 0.04 0.16 0.15 1.40 1.81 0.56 0.60 0.69 0.67 0.53 0.36 0.35 0.25 0.16 0.11 0.07 0.05 0.03 0.01 0.01 0.01 0.00 0.00 0.00 0.00 0.00 0.00 0.00 0.00 0.00 0.00 0.00 0.00 0.00 0.00 0.00 0.01 0.00 0.00 0.02
0.00 0.00 0.00 0.00 0.60 0.96 1.15 1.32 0.79 0.37 0.28 0.29 0.25 0.16 0.13 0.13 0.11 0.10 0.07 0.04 0.02 0.01 0.01 0.00 0.00 0.00 0.00 0.00 0.00 0.00 0.00 0.00 0.00 0.00 0.00 0.00 0.01 0.00 0.01 0.00 0.00 0.00
0.00 0.00 0.00 0.06 0.44 1.07 1.09 0.96 0.63 0.19 0.16 0.09 0.08 0.08 0.10 0.10 0.12 0.12 0.09 0.06 0.04 0.02 0.01 0.00 0.00 0.00 0.00 0.00 0.00 0.00 0.00 0.00 0.00 0.00 0.00 0.00 0.00 0.00 0.00 0.01 0.01 0.04
0.00 0.00 0.00 0.19 0.98 1.22 0.79 1.08 0.38 0.43 0.27 0.13 0.10 0.19 0.05 0.09 0.13 0.14 0.12 0.09 0.05 0.03 0.02 0.01 0.01 0.00 0.00 0.00 0.00 0.00 0.00 0.00 0.00 0.00 0.00 0.00 0.00 0.00 0.00 0.01 0.06 0.08
0.00 0.00 0.02 0.97 1.21 1.60 0.99 0.11 0.15 0.07 0.22 0.37 0.26 0.12 0.18 0.13 0.14 0.15 0.13 0.11 0.08 0.06 0.05 0.03 0.02 0.01 0.01 0.00 0.00 0.01 0.01 0.01 0.01 0.01 0.00 0.01 0.01 0.02 0.01 0.00 0.02 0.05
0.00 0.00 0.31 0.77 1.12 0.96 0.38 0.22 0.02 0.14 0.17 0.32 0.17 0.09 0.12 0.06 0.06 0.06 0.06 0.06 0.05 0.05 0.05 0.05 0.04 0.02 0.01 0.01 0.00 0.00 0.00 0.00 0.00 0.01 0.02 0.02 0.02 0.02 0.02 0.02 0.14 0.47
0.01 0.01 0.03 0.77 0.55 0.23 0.11 0.02 0.05 0.19 0.13 0.12 0.12 0.11 0.05 0.03 0.04 0.04 0.08 0.21 0.15 0.15 0.12 0.08 0.05 0.03 0.01 0.01 0.01 0.02 0.01 0.02 0.02 0.01 0.02 0.01 0.02 0.01 0.02 0.07 0.12 0.37
0.00 0.01 0.07 0.01 0.01 0.04 0.01 0.00 0.02 0.10 0.03 0.05 0.05 0.03 0.01 0.01 0.02 0.04 0.03 0.09 0.08 0.03 0.03 0.03 0.05 0.05 0.05 0.04 0.04 0.02 0.02 0.02 0.01 0.01 0.04 0.03 0.05 0.08 0.04 0.12 0.24 0.20
0.00 0.00 0.00 0.01 0.00 0.00 0.00 0.01 0.01 0.03 0.04 0.04 0.03 0.01 0.01 0.00 0.01 0.02 0.04 0.03 0.02 0.02 0.02 0.05 0.06 0.03 0.01 0.01 0.01 0.01 0.02 0.03 0.02 0.03 0.07 0.06 0.08 0.30 0.30 0.25 0.05 0.05
0.00 0.00 0.00 0.00 0.01 0.00 0.00 0.02 0.04 0.05 0.03 0.02 0.01 0.01 0.00 0.00 0.00 0.02 0.03 0.01 0.00 0.06 0.04 0.03 0.05 0.04 0.03 0.02 0.02 0.08 0.07 0.10 0.13 0.10 0.09 0.27 0.16 0.29 0.23 0.07 0.12 0.06
0.00 0.00 0.00 0.00 0.01 0.01 0.02 0.04 0.03 0.01 0.01 0.00 0.01 0.01 0.01 0.01 0.00 0.01 0.02 0.02 0.02 0.04 0.05 0.01 0.03 0.07 0.02 0.01 0.04 0.07 0.09 0.09 0.10 0.09 0.08 0.05 0.05 0.11 0.18 0.16 0.05 0.09

ECMWFNIL_prec_precacc_063.txt.gz
Total_Precipitation_Accumulation
0.00 0.00 0.00 0.00 0.00 0.00 0.00 0.00 0.00 0.00 0.00 0.00 0.00 0.00 0.00 0.00 0.00 0.00 0.00 0.00 0.00 0.00 0.00 0.00 0.00 0.01 0.02 0.02 0.02 0.01 0.01 0.01 0.00 0.01 0.01 0.01 0.02 0.02 0.01 0.00 0.00 0.00
0.00 0.00 0.00 0.00 0.00 0.00 0.00 0.00 0.00 0.00 0.00 0.00 0.00 0.00 0.00 0.00 0.00 0.00 0.00 0.00 0.00 0.00 0.00 0.00 0.01 0.00 0.01 0.01 0.01 0.01 0.02 0.01 0.01 0.00 0.01 0.01 0.01 0.02 0.01 0.00 0.01 0.00
0.00 0.00 0.00 0.00 0.00 0.00 0.00 0.00 0.00 0.00 0.00 0.00 0.00 0.00 0.00 0.00 0.00 0.00 0.00 0.00 0.00 0.01 0.00 0.00 0.00 0.00 0.00 0.00 0.01 0.01 0.01 0.01 0.00 0.00 0.00 0.01 0.01 0.02 0.02 0.01 0.01 0.01
0.00 0.00 0.00 0.00 0.00 0.00 0.00 0.00 0.00 0.00 0.00 0.00 0.00 0.00 0.00 0.00 0.00 0.00 0.00 0.00 0.00 0.00 0.00 0.00 0.00 0.01 0.00 0.00 0.00 0.00 0.00 0.00 0.00 0.00 0.00 0.01 0.01 0.01 0.01 0.01 0.00 0.00
0.00 0.00 0.00 0.00 0.00 0.00 0.00 0.00 0.00 0.00 0.00 0.00 0.00 0.00 0.00 0.00 0.00 0.00 0.00 0.00 0.00 0.00 0.00 0.00 0.00 0.01 0.00 0.01 0.00 0.00 0.00 0.01 0.00 0.00 0.00 0.00 0.00 0.00 0.00 0.00 0.00 0.00
0.00 0.00 0.00 0.00 0.00 0.00 0.00 0.00 0.00 0.00 0.00 0.00 0.00 0.00 0.00 0.00 0.00 0.00 0.00 0.00 0.00 0.00 0.00 0.00 0.00 0.00 0.00 0.00 0.00 0.00 0.00 0.00 0.00 0.00 0.00 0.00 0.00 0.01 0.00 0.00 0.00 0.00
0.00 0.00 0.00 0.00 0.00 0.00 0.00 0.00 0.00 0.00 0.01 0.00 0.01 0.00 0.00 0.00 0.00 0.00 0.00 0.00 0.00 0.00 0.00 0.00 0.00 0.00 0.00 0.00 0.00 0.00 0.00 0.00 0.00 0.00 0.00 0.00 0.00 0.00 0.00 0.00 0.00 0.00
0.00 0.00 0.00 0.00 0.00 0.00 0.01 0.01 0.01 0.00 0.00 0.00 0.00 0.00 0.00 0.00 0.00 0.00 0.00 0.00 0.00 0.00 0.00 0.00 0.00 0.00 0.00 0.00 0.00 0.00 0.00 0.00 0.00 0.00 0.00 0.00 0.00 0.00 0.00 0.00 0.00 0.00
0.00 0.00 0.00 0.00 0.00 0.00 0.01 0.01 0.00 0.01 0.00 0.00 0.00 0.00 0.00 0.00 0.00 0.00 0.00 0.00 0.00 0.00 0.00 0.00 0.01 0.01 0.00 0.00 0.00 0.00 0.00 0.00 0.00 0.00 0.00 0.00 0.00 0.00 0.00 0.00 0.00 0.00
0.00 0.00 0.00 0.00 0.00 0.03 0.03 0.10 0.04 0.01 0.01 0.00 0.00 0.00 0.00 0.00 0.00 0.00 0.00 0.00 0.01 0.02 0.03 0.03 0.02 0.02 0.02 0.00 0.00 0.00 0.00 0.00 0.00 0.00 0.00 0.00 0.00 0.00 0.00 0.00 0.00 0.00
0.07 0.03 0.00 0.01 0.03 0.08 0.05 0.05 0.04 0.05 0.03 0.01 0.00 0.01 0.03 0.06 0.04 0.04 0.08 0.11 0.12 0.09 0.07 0.06 0.04 0.02 0.00 0.00 0.00 0.00 0.00 0.00 0.00 0.00 0.00 0.00 0.00 0.00 0.00 0.00 0.00 0.00
0.03 0.01 0.01 0.02 0.05 0.03 0.06 0.02 0.01 0.00 0.00 0.01 0.02 0.05 0.06 0.07 0.10 0.16 0.19 0.18 0.14 0.11 0.08 0.06 0.02 0.00 0.00 0.00 0.00 0.00 0.00 0.00 0.00 0.00 0.00 0.00 0.00 0.00 0.00 0.00 0.00 0.00
0.04 0.02 0.03 0.05 0.03 0.05 0.16 0.22 0.12 0.01 0.02 0.03 0.04 0.11 0.22 0.20 0.24 0.23 0.20 0.17 0.13 0.10 0.05 0.01 0.00 0.00 0.00 0.00 0.00 0.00 0.00 0.00 0.00 0.00 0.00 0.00 0.00 0.00 0.00 0.00 0.00 0.01
0.00 0.05 0.23 0.15 0.22 0.17 0.21 0.12 0.23 0.14 0.12 0.15 0.29 0.30 0.29 0.31 0.28 0.26 0.22 0.15 0.07 0.02 0.00 0.01 0.00 0.00 0.00 0.00 0.00 0.00 0.00 0.00 0.00 0.00 0.00 0.00 0.01 0.01 0.00 0.00 0.00 0.00
0.00 0.03 0.16 0.38 0.12 0.41 0.32 0.21 0.35 0.29 0.35 0.37 0.26 0.38 0.41 0.33 0.22 0.14 0.07 0.04 0.02 0.01 0.00 0.00 0.00 0.00 0.00 0.00 0.00 0.00 0.00 0.00 0.00 0.00 0.00 0.00 0.02 0.03 0.01 0.01 0.00 0.00
0.00 0.00 0.04 0.16 0.15 1.39 1.81 0.56 0.60 0.70 0.67 0.53 0.36 0.35 0.25 0.16 0.11 0.07 0.05 0.03 0.01 0.01 0.01 0.00 0.00 0.00 0.00 0.00 0.00 0.00 0.00 0.00 0.00 0.00 0.00 0.00 0.00 0.00 0.01 0.00 0.00 0.02
0.00 0.00 0.00 0.00 0.60 0.96 1.15 1.32 0.79 0.37 0.28 0.29 0.25 0.16 0.13 0.13 0.11 0.10 0.07 0.04 0.02 0.01 0.01 0.00 0.00 0.00 0.00 0.00 0.00 0.00 0.00 0.00 0.00 0.00 0.00 0.00 0.01 0.00 0.01 0.00 0.00 0.00
0.00 0.00 0.00 0.06 0.44 1.07 1.09 0.96 0.63 0.19 0.16 0.09 0.08 0.08 0.10 0.10 0.12 0.12 0.09 0.06 0.04 0.02 0.01 0.00 0.00 0.00 0.00 0.00 0.00 0.00 0.00 0.00 0.00 0.00 0.00 0.00 0.00 0.00 0.00 0.01 0.01 0.04
0.00 0.00 0.00 0.19 0.98 1.22 0.79 1.08 0.38 0.43 0.27 0.13 0.10 0.19 0.05 0.09 0.13 0.14 0.12 0.09 0.05 0.03 0.02 0.01 0.01 0.00 0.00 0.00 0.00 0.00 0.00 0.00 0.00 0.00 0.00 0.00 0.00 0.00 0.00 0.01 0.06 0.08
0.00 0.00 0.02 0.97 1.21 1.60 0.99 0.11 0.15 0.07 0.22 0.37 0.26 0.12 0.18 0.13 0.14 0.15 0.13 0.11 0.08 0.06 0.05 0.03 0.02 0.01 0.01 0.00 0.00 0.01 0.01 0.01 0.00 0.01 0.00 0.01 0.01 0.02 0.01 0.00 0.02 0.05
0.00 0.00 0.31 0.77 1.12 0.96 0.38 0.22 0.02 0.14 0.17 0.32 0.17 0.09 0.12 0.06 0.06 0.06 0.06 0.06 0.05 0.05 0.05 0.05 0.04 0.02 0.01 0.01 0.00 0.00 0.00 0.00 0.00 0.01 0.02 0.02 0.02 0.02 0.02 0.02 0.14 0.47
0.01 0.01 0.03 0.77 0.55 0.23 0.11 0.02 0.05 0.19 0.13 0.12 0.12 0.11 0.05 0.03 0.04 0.04 0.08 0.21 0.15 0.15 0.12 0.08 0.05 0.03 0.01 0.01 0.01 0.02 0.01 0.02 0.02 0.01 0.02 0.01 0.02 0.01 0.02 0.07 0.12 0.37
0.00 0.01 0.07 0.01 0.00 0.04 0.01 0.00 0.02 0.10 0.03 0.05 0.05 0.03 0.01 0.01 0.02 0.04 0.03 0.09 0.08 0.03 0.03 0.03 0.05 0.05 0.05 0.04 0.04 0.02 0.02 0.02 0.01 0.01 0.04 0.03 0.05 0.08 0.04 0.12 0.24 0.20
0.00 0.00 0.00 0.01 0.00 0.00 0.00 0.01 0.01 0.03 0.04 0.04 0.03 0.01 0.01 0.00 0.01 0.02 0.04 0.03 0.02 0.02 0.02 0.05 0.06 0.03 0.01 0.01 0.01 0.01 0.02 0.03 0.02 0.03 0.07 0.06 0.08 0.30 0.30 0.25 0.05 0.05
0.00 0.00 0.00 0.00 0.01 0.00 0.00 0.02 0.04 0.05 0.03 0.02 0.01 0.01 0.00 0.00 0.00 0.02 0.03 0.01 0.00 0.06 0.04 0.03 0.05 0.04 0.03 0.02 0.02 0.08 0.07 0.10 0.13 0.10 0.09 0.27 0.16 0.29 0.23 0.07 0.12 0.06
0.00 0.00 0.00 0.00 0.01 0.01 0.02 0.04 0.03 0.01 0.01 0.00 0.01 0.01 0.01 0.01 0.00 0.01 0.02 0.02 0.02 0.04 0.05 0.01 0.03 0.07 0.02 0.01 0.04 0.07 0.09 0.09 0.10 0.08 0.08 0.05 0.05 0.11 0.18 0.16 0.05 0.09

ECMWFNIL_prec_precacc_066.txt.gz
Total_Precipitation_Accumulation
0.00 0.00 0.00 0.00 0.00 0.00 0.00 0.00 0.00 0.00 0.00 0.00 0.00 0.00 0.00 0.00 0.00 0.00 0.00 0.00 0.00 0.00 0.00 0.00 0.00 0.01 0.02 0.02 0.02 0.01 0.01 0.01 0.00 0.01 0.01 0.01 0.02 0.02 0.01 0.00 0.00 0.00
0.00 0.00 0.00 0.00 0.00 0.00 0.00 0.00 0.00 0.00 0.00 0.00 0.00 0.00 0.00 0.00 0.00 0.00 0.00 0.00 0.00 0.00 0.00 0.00 0.01 0.00 0.01 0.01 0.01 0.01 0.02 0.01 0.01 0.00 0.01 0.01 0.01 0.02 0.01 0.00 0.01 0.00
0.00 0.00 0.00 0.00 0.00 0.00 0.00 0.00 0.00 0.00 0.00 0.00 0.00 0.00 0.00 0.00 0.00 0.00 0.00 0.00 0.00 0.01 0.00 0.00 0.00 0.00 0.00 0.00 0.01 0.01 0.01 0.01 0.00 0.00 0.00 0.01 0.01 0.02 0.02 0.01 0.01 0.01
0.00 0.00 0.00 0.00 0.00 0.00 0.00 0.00 0.00 0.00 0.00 0.00 0.00 0.00 0.00 0.00 0.00 0.00 0.00 0.00 0.00 0.00 0.00 0.00 0.00 0.01 0.00 0.00 0.00 0.00 0.00 0.00 0.00 0.00 0.00 0.01 0.01 0.01 0.01 0.01 0.00 0.00
0.00 0.00 0.00 0.00 0.00 0.00 0.00 0.00 0.00 0.00 0.00 0.00 0.00 0.00 0.00 0.00 0.00 0.00 0.00 0.00 0.00 0.00 0.00 0.00 0.00 0.01 0.00 0.01 0.00 0.00 0.00 0.01 0.00 0.00 0.00 0.00 0.00 0.00 0.00 0.00 0.00 0.00
0.00 0.00 0.00 0.00 0.00 0.00 0.00 0.00 0.00 0.00 0.00 0.00 0.00 0.00 0.00 0.00 0.00 0.00 0.00 0.00 0.00 0.00 0.00 0.00 0.00 0.00 0.00 0.00 0.00 0.00 0.00 0.00 0.00 0.00 0.00 0.00 0.00 0.01 0.00 0.00 0.00 0.00
0.00 0.00 0.00 0.00 0.00 0.00 0.00 0.00 0.00 0.00 0.01 0.00 0.01 0.00 0.00 0.00 0.00 0.00 0.00 0.00 0.00 0.00 0.00 0.00 0.00 0.00 0.00 0.00 0.00 0.00 0.00 0.00 0.00 0.00 0.00 0.00 0.00 0.00 0.00 0.00 0.00 0.00
0.00 0.00 0.00 0.00 0.00 0.00 0.01 0.01 0.01 0.00 0.00 0.00 0.00 0.00 0.00 0.00 0.00 0.00 0.00 0.00 0.00 0.00 0.00 0.00 0.00 0.00 0.00 0.00 0.00 0.00 0.00 0.00 0.00 0.00 0.00 0.00 0.00 0.00 0.00 0.00 0.00 0.00
0.00 0.00 0.00 0.00 0.00 0.00 0.01 0.01 0.00 0.01 0.00 0.00 0.00 0.00 0.00 0.00 0.00 0.00 0.00 0.00 0.00 0.00 0.00 0.00 0.01 0.01 0.00 0.00 0.00 0.00 0.00 0.00 0.00 0.00 0.00 0.00 0.00 0.00 0.00 0.00 0.00 0.00
0.00 0.00 0.00 0.00 0.00 0.03 0.03 0.10 0.04 0.01 0.01 0.00 0.00 0.00 0.00 0.00 0.00 0.00 0.00 0.00 0.01 0.02 0.03 0.03 0.02 0.02 0.02 0.00 0.00 0.00 0.00 0.00 0.00 0.00 0.00 0.00 0.00 0.00 0.00 0.00 0.00 0.00
0.07 0.03 0.00 0.01 0.03 0.08 0.05 0.05 0.04 0.05 0.03 0.01 0.00 0.01 0.03 0.06 0.04 0.04 0.08 0.11 0.12 0.09 0.07 0.06 0.04 0.02 0.00 0.00 0.00 0.00 0.00 0.00 0.00 0.00 0.00 0.00 0.00 0.00 0.00 0.00 0.00 0.00
0.03 0.01 0.01 0.02 0.05 0.03 0.06 0.02 0.01 0.00 0.00 0.01 0.02 0.05 0.06 0.07 0.10 0.16 0.19 0.18 0.14 0.11 0.08 0.06 0.02 0.00 0.00 0.00 0.00 0.00 0.00 0.00 0.00 0.00 0.00 0.00 0.00 0.00 0.00 0.00 0.00 0.00
0.04 0.02 0.03 0.05 0.03 0.05 0.16 0.22 0.12 0.01 0.02 0.03 0.04 0.11 0.22 0.20 0.24 0.23 0.20 0.17 0.13 0.10 0.05 0.01 0.00 0.00 0.00 0.00 0.00 0.00 0.00 0.00 0.00 0.00 0.00 0.00 0.00 0.00 0.00 0.00 0.00 0.01
0.00 0.05 0.23 0.15 0.22 0.17 0.21 0.12 0.23 0.14 0.12 0.15 0.29 0.30 0.29 0.31 0.28 0.26 0.22 0.15 0.07 0.02 0.00 0.01 0.00 0.00 0.00 0.00 0.00 0.00 0.00 0.00 0.00 0.00 0.00 0.00 0.01 0.01 0.00 0.00 0.00 0.00
0.00 0.03 0.16 0.38 0.12 0.41 0.32 0.21 0.35 0.29 0.35 0.37 0.26 0.38 0.41 0.33 0.22 0.14 0.07 0.04 0.02 0.01 0.00 0.00 0.00 0.00 0.00 0.00 0.00 0.00 0.00 0.00 0.00 0.00 0.00 0.00 0.02 0.03 0.01 0.01 0.00 0.00
0.00 0.00 0.04 0.16 0.15 1.39 1.81 0.56 0.60 0.70 0.67 0.53 0.36 0.35 0.25 0.16 0.11 0.07 0.05 0.03 0.01 0.01 0.01 0.00 0.00 0.00 0.00 0.00 0.00 0.00 0.00 0.00 0.00 0.00 0.00 0.00 0.00 0.00 0.01 0.00 0.00 0.02
0.13 0.00 0.00 0.00 0.60 0.96 1.15 1.32 0.79 0.37 0.28 0.29 0.25 0.16 0.13 0.13 0.11 0.10 0.07 0.04 0.02 0.01 0.01 0.00 0.00 0.00 0.00 0.00 0.00 0.00 0.00 0.00 0.00 0.00 0.00 0.00 0.01 0.00 0.01 0.00 0.00 0.00
0.23 0.11 0.01 0.06 0.44 1.07 1.09 0.96 0.63 0.19 0.16 0.09 0.08 0.08 0.10 0.10 0.12 0.12 0.09 0.06 0.04 0.02 0.01 0.00 0.00 0.00 0.00 0.00 0.00 0.00 0.00 0.00 0.00 0.00 0.00 0.00 0.00 0.00 0.00 0.01 0.01 0.04
0.24 0.03 0.00 0.19 0.98 1.22 0.79 1.08 0.38 0.43 0.27 0.13 0.10 0.19 0.05 0.09 0.13 0.14 0.12 0.09 0.05 0.03 0.02 0.01 0.01 0.00 0.00 0.00 0.00 0.00 0.00 0.00 0.00 0.00 0.00 0.00 0.00 0.00 0.00 0.01 0.06 0.08
0.06 0.01 0.03 0.97 1.21 1.60 0.99 0.11 0.15 0.07 0.22 0.37 0.26 0.12 0.18 0.13 0.14 0.15 0.13 0.11 0.08 0.06 0.05 0.03 0.02 0.01 0.01 0.00 0.00 0.01 0.01 0.01 0.00 0.01 0.00 0.01 0.01 0.02 0.01 0.00 0.02 0.05
0.01 0.00 0.31 0.77 1.12 0.96 0.38 0.22 0.02 0.14 0.17 0.32 0.17 0.09 0.12 0.06 0.06 0.06 0.06 0.06 0.05 0.05 0.05 0.05 0.04 0.02 0.01 0.01 0.00 0.00 0.00 0.00 0.00 0.01 0.02 0.02 0.02 0.02 0.02 0.02 0.14 0.47
0.01 0.01 0.03 0.77 0.55 0.23 0.11 0.02 0.05 0.19 0.13 0.12 0.12 0.11 0.05 0.03 0.04 0.04 0.08 0.21 0.15 0.15 0.12 0.08 0.05 0.03 0.01 0.01 0.01 0.02 0.01 0.02 0.02 0.01 0.02 0.01 0.02 0.01 0.02 0.07 0.12 0.37
0.01 0.01 0.07 0.01 0.00 0.04 0.01 0.00 0.02 0.10 0.03 0.05 0.05 0.03 0.01 0.01 0.02 0.04 0.03 0.09 0.08 0.03 0.03 0.03 0.05 0.05 0.05 0.04 0.04 0.02 0.02 0.02 0.01 0.01 0.04 0.03 0.05 0.08 0.04 0.12 0.24 0.20
0.00 0.00 0.00 0.01 0.00 0.00 0.00 0.01 0.01 0.03 0.04 0.04 0.03 0.01 0.01 0.00 0.01 0.02 0.04 0.03 0.02 0.02 0.02 0.05 0.06 0.03 0.01 0.01 0.01 0.01 0.02 0.03 0.02 0.03 0.07 0.06 0.08 0.30 0.30 0.25 0.05 0.05
0.00 0.00 0.00 0.00 0.01 0.00 0.00 0.02 0.04 0.05 0.03 0.02 0.01 0.01 0.00 0.00 0.00 0.02 0.03 0.01 0.00 0.06 0.04 0.03 0.05 0.04 0.03 0.02 0.02 0.08 0.07 0.10 0.13 0.10 0.09 0.27 0.16 0.29 0.23 0.07 0.12 0.06
0.00 0.00 0.00 0.00 0.01 0.01 0.02 0.04 0.03 0.01 0.01 0.00 0.01 0.01 0.01 0.01 0.00 0.01 0.02 0.02 0.02 0.04 0.05 0.01 0.03 0.07 0.02 0.01 0.04 0.07 0.09 0.09 0.10 0.08 0.08 0.05 0.05 0.11 0.18 0.16 0.05 0.09

ECMWFNIL_prec_precacc_069.txt.gz
Total_Precipitation_Accumulation
0.00 0.00 0.00 0.00 0.00 0.00 0.00 0.00 0.00 0.00 0.00 0.00 0.00 0.00 0.00 0.00 0.00 0.00 0.00 0.00 0.00 0.00 0.00 0.00 0.00 0.01 0.02 0.02 0.02 0.01 0.01 0.01 0.00 0.01 0.01 0.01 0.02 0.02 0.01 0.00 0.00 0.00
0.00 0.00 0.00 0.00 0.00 0.00 0.00 0.00 0.00 0.00 0.00 0.00 0.00 0.00 0.00 0.00 0.00 0.00 0.00 0.00 0.00 0.00 0.00 0.00 0.01 0.00 0.01 0.01 0.01 0.01 0.02 0.01 0.01 0.00 0.01 0.01 0.01 0.02 0.01 0.00 0.01 0.00
0.00 0.00 0.00 0.00 0.00 0.00 0.00 0.00 0.00 0.00 0.00 0.00 0.00 0.00 0.00 0.00 0.00 0.00 0.00 0.00 0.00 0.01 0.00 0.00 0.00 0.00 0.00 0.00 0.01 0.01 0.01 0.01 0.00 0.00 0.00 0.01 0.01 0.02 0.02 0.01 0.01 0.01
0.00 0.00 0.00 0.00 0.00 0.00 0.00 0.00 0.00 0.00 0.00 0.00 0.00 0.00 0.00 0.00 0.00 0.00 0.00 0.00 0.00 0.00 0.00 0.00 0.00 0.01 0.00 0.00 0.00 0.00 0.00 0.00 0.00 0.00 0.00 0.01 0.01 0.01 0.01 0.01 0.00 0.00
0.00 0.00 0.00 0.00 0.00 0.00 0.00 0.00 0.00 0.00 0.00 0.00 0.00 0.00 0.00 0.00 0.00 0.00 0.00 0.00 0.00 0.00 0.00 0.00 0.00 0.01 0.00 0.01 0.00 0.00 0.00 0.01 0.00 0.00 0.00 0.00 0.00 0.00 0.00 0.00 0.00 0.00
0.00 0.00 0.00 0.00 0.00 0.00 0.00 0.00 0.00 0.00 0.00 0.00 0.00 0.00 0.00 0.00 0.00 0.00 0.00 0.00 0.00 0.00 0.00 0.00 0.00 0.00 0.00 0.00 0.00 0.00 0.00 0.00 0.00 0.00 0.00 0.00 0.00 0.01 0.00 0.00 0.00 0.00
0.00 0.00 0.00 0.00 0.00 0.00 0.00 0.00 0.00 0.00 0.01 0.00 0.01 0.00 0.00 0.00 0.00 0.00 0.00 0.00 0.00 0.00 0.00 0.00 0.00 0.00 0.00 0.00 0.00 0.00 0.00 0.00 0.00 0.00 0.00 0.00 0.00 0.00 0.00 0.00 0.00 0.00
0.00 0.00 0.00 0.00 0.00 0.00 0.01 0.01 0.01 0.00 0.00 0.00 0.00 0.00 0.00 0.00 0.00 0.00 0.00 0.00 0.00 0.00 0.00 0.00 0.00 0.00 0.00 0.00 0.00 0.00 0.00 0.00 0.00 0.00 0.00 0.00 0.00 0.00 0.00 0.00 0.00 0.00
0.00 0.00 0.00 0.00 0.00 0.00 0.01 0.01 0.00 0.01 0.00 0.00 0.00 0.00 0.00 0.00 0.00 0.00 0.00 0.00 0.00 0.00 0.00 0.00 0.01 0.01 0.00 0.00 0.00 0.00 0.00 0.00 0.00 0.00 0.00 0.00 0.00 0.00 0.00 0.00 0.00 0.00
0.00 0.00 0.00 0.00 0.00 0.03 0.03 0.10 0.04 0.01 0.01 0.00 0.00 0.00 0.00 0.00 0.00 0.00 0.00 0.00 0.01 0.02 0.03 0.03 0.02 0.02 0.02 0.00 0.00 0.00 0.00 0.00 0.00 0.00 0.00 0.00 0.00 0.00 0.00 0.00 0.00 0.00
0.07 0.03 0.00 0.01 0.03 0.08 0.05 0.05 0.04 0.05 0.03 0.01 0.00 0.01 0.03 0.06 0.04 0.04 0.08 0.11 0.12 0.09 0.07 0.06 0.04 0.02 0.00 0.00 0.00 0.00 0.00 0.00 0.00 0.00 0.00 0.00 0.00 0.00 0.00 0.00 0.00 0.00
0.03 0.01 0.01 0.02 0.05 0.03 0.06 0.02 0.01 0.00 0.00 0.01 0.02 0.05 0.06 0.07 0.10 0.16 0.19 0.18 0.14 0.11 0.08 0.06 0.02 0.00 0.00 0.00 0.00 0.00 0.00 0.00 0.00 0.00 0.00 0.00 0.00 0.00 0.00 0.00 0.00 0.00
0.04 0.02 0.03 0.05 0.03 0.05 0.16 0.22 0.12 0.01 0.02 0.03 0.04 0.11 0.22 0.20 0.24 0.23 0.20 0.17 0.13 0.10 0.05 0.01 0.00 0.00 0.00 0.00 0.00 0.00 0.00 0.00 0.00 0.00 0.00 0.00 0.00 0.00 0.00 0.00 0.00 0.01
0.00 0.05 0.23 0.15 0.22 0.17 0.21 0.12 0.23 0.14 0.12 0.15 0.29 0.30 0.29 0.31 0.28 0.26 0.22 0.15 0.07 0.02 0.00 0.01 0.00 0.00 0.00 0.00 0.00 0.00 0.00 0.00 0.00 0.00 0.00 0.00 0.01 0.01 0.00 0.00 0.00 0.00
0.00 0.03 0.16 0.38 0.12 0.41 0.32 0.21 0.35 0.29 0.35 0.37 0.26 0.38 0.41 0.33 0.22 0.14 0.07 0.04 0.02 0.01 0.00 0.00 0.00 0.00 0.00 0.00 0.00 0.00 0.00 0.00 0.00 0.00 0.00 0.00 0.02 0.03 0.01 0.01 0.00 0.00
0.00 0.00 0.04 0.16 0.15 1.39 1.81 0.56 0.60 0.70 0.67 0.53 0.36 0.35 0.25 0.16 0.11 0.07 0.05 0.03 0.01 0.01 0.01 0.00 0.00 0.00 0.00 0.00 0.00 0.00 0.00 0.00 0.00 0.00 0.00 0.00 0.00 0.00 0.01 0.00 0.00 0.02
0.13 0.00 0.00 0.00 0.60 0.96 1.15 1.32 0.79 0.37 0.28 0.29 0.25 0.16 0.13 0.13 0.11 0.10 0.07 0.04 0.02 0.01 0.01 0.00 0.00 0.00 0.00 0.00 0.00 0.00 0.00 0.00 0.00 0.00 0.00 0.00 0.01 0.00 0.01 0.00 0.00 0.00
0.23 0.11 0.01 0.06 0.44 1.07 1.09 0.96 0.63 0.19 0.16 0.09 0.08 0.08 0.10 0.10 0.12 0.12 0.09 0.06 0.04 0.02 0.01 0.00 0.00 0.00 0.00 0.00 0.00 0.00 0.00 0.00 0.00 0.00 0.00 0.00 0.00 0.00 0.00 0.01 0.01 0.04
0.25 0.03 0.02 0.19 0.98 1.22 0.79 1.08 0.38 0.43 0.27 0.13 0.10 0.19 0.05 0.09 0.13 0.14 0.12 0.09 0.05 0.03 0.02 0.01 0.01 0.00 0.00 0.00 0.00 0.00 0.00 0.00 0.00 0.00 0.00 0.00 0.00 0.00 0.00 0.01 0.06 0.08
0.14 0.03 0.08 0.98 1.21 1.60 0.99 0.11 0.15 0.07 0.22 0.37 0.26 0.12 0.18 0.13 0.14 0.15 0.13 0.11 0.08 0.06 0.05 0.03 0.02 0.01 0.01 0.00 0.00 0.01 0.01 0.01 0.00 0.01 0.00 0.01 0.01 0.02 0.01 0.00 0.02 0.05
0.01 0.00 0.31 0.77 1.12 0.96 0.38 0.22 0.02 0.14 0.17 0.32 0.17 0.09 0.12 0.06 0.06 0.06 0.06 0.06 0.05 0.05 0.05 0.05 0.04 0.02 0.01 0.01 0.00 0.00 0.00 0.00 0.00 0.01 0.02 0.02 0.02 0.02 0.02 0.02 0.14 0.47
0.01 0.01 0.04 0.77 0.55 0.23 0.11 0.02 0.05 0.19 0.13 0.12 0.12 0.11 0.05 0.03 0.04 0.04 0.08 0.21 0.15 0.15 0.12 0.08 0.05 0.03 0.01 0.01 0.01 0.02 0.01 0.02 0.02 0.01 0.02 0.01 0.02 0.01 0.02 0.07 0.12 0.37
0.01 0.01 0.08 0.01 0.01 0.04 0.01 0.00 0.02 0.10 0.03 0.05 0.05 0.03 0.01 0.01 0.02 0.04 0.03 0.09 0.08 0.03 0.03 0.03 0.05 0.05 0.05 0.04 0.04 0.02 0.02 0.02 0.01 0.01 0.04 0.03 0.05 0.08 0.04 0.12 0.24 0.20
0.00 0.00 0.01 0.01 0.00 0.01 0.00 0.01 0.01 0.03 0.04 0.04 0.03 0.01 0.01 0.00 0.01 0.02 0.04 0.03 0.02 0.02 0.02 0.05 0.06 0.03 0.01 0.01 0.01 0.01 0.02 0.03 0.02 0.03 0.07 0.06 0.08 0.30 0.30 0.25 0.05 0.05
0.00 0.00 0.00 0.00 0.01 0.00 0.00 0.02 0.04 0.05 0.03 0.02 0.01 0.01 0.00 0.00 0.00 0.02 0.03 0.01 0.00 0.06 0.04 0.03 0.05 0.04 0.03 0.02 0.02 0.08 0.07 0.10 0.13 0.10 0.09 0.27 0.16 0.29 0.23 0.07 0.12 0.06
0.00 0.00 0.00 0.00 0.01 0.01 0.02 0.04 0.03 0.01 0.01 0.00 0.01 0.01 0.01 0.01 0.00 0.01 0.02 0.02 0.02 0.04 0.05 0.01 0.03 0.07 0.02 0.01 0.04 0.07 0.09 0.09 0.10 0.08 0.08 0.05 0.05 0.11 0.18 0.16 0.05 0.09

ECMWFNIL_prec_precacc_072.txt.gz
Total_Precipitation_Accumulation
0.00 0.00 0.00 0.00 0.00 0.00 0.00 0.00 0.00 0.00 0.00 0.00 0.00 0.00 0.00 0.00 0.00 0.00 0.00 0.00 0.00 0.00 0.00 0.00 0.00 0.01 0.02 0.02 0.02 0.01 0.01 0.01 0.00 0.01 0.01 0.01 0.02 0.02 0.01 0.00 0.00 0.00
0.00 0.00 0.00 0.00 0.00 0.00 0.00 0.00 0.00 0.00 0.00 0.00 0.00 0.00 0.00 0.00 0.00 0.00 0.00 0.00 0.00 0.00 0.00 0.00 0.01 0.00 0.01 0.01 0.01 0.01 0.02 0.01 0.01 0.00 0.01 0.01 0.01 0.02 0.01 0.00 0.01 0.00
0.00 0.00 0.00 0.00 0.00 0.00 0.00 0.00 0.00 0.00 0.00 0.00 0.00 0.00 0.00 0.00 0.00 0.00 0.00 0.00 0.00 0.01 0.00 0.00 0.00 0.00 0.00 0.00 0.01 0.01 0.01 0.01 0.00 0.00 0.00 0.01 0.01 0.02 0.02 0.01 0.01 0.01
0.00 0.00 0.00 0.00 0.00 0.00 0.00 0.00 0.00 0.00 0.00 0.00 0.00 0.00 0.00 0.00 0.00 0.00 0.00 0.00 0.00 0.00 0.00 0.00 0.00 0.01 0.00 0.00 0.00 0.00 0.00 0.00 0.00 0.00 0.00 0.01 0.01 0.01 0.01 0.01 0.00 0.00
0.00 0.00 0.00 0.00 0.00 0.00 0.00 0.00 0.00 0.00 0.00 0.00 0.00 0.00 0.00 0.00 0.00 0.00 0.00 0.00 0.00 0.00 0.00 0.00 0.00 0.01 0.00 0.01 0.00 0.00 0.00 0.01 0.00 0.00 0.00 0.00 0.00 0.00 0.00 0.00 0.00 0.00
0.00 0.00 0.00 0.00 0.00 0.00 0.00 0.00 0.00 0.00 0.00 0.00 0.00 0.00 0.00 0.00 0.00 0.00 0.00 0.00 0.00 0.00 0.00 0.00 0.00 0.00 0.00 0.00 0.00 0.00 0.00 0.00 0.00 0.00 0.00 0.00 0.00 0.01 0.00 0.00 0.00 0.00
0.00 0.00 0.00 0.00 0.00 0.00 0.00 0.00 0.00 0.00 0.01 0.00 0.01 0.00 0.00 0.00 0.00 0.00 0.00 0.00 0.00 0.00 0.00 0.00 0.00 0.00 0.00 0.00 0.00 0.00 0.00 0.00 0.00 0.00 0.00 0.00 0.00 0.00 0.00 0.00 0.00 0.00
0.00 0.00 0.00 0.00 0.00 0.00 0.01 0.01 0.01 0.00 0.00 0.00 0.00 0.00 0.00 0.00 0.00 0.00 0.00 0.00 0.00 0.00 0.00 0.00 0.00 0.00 0.00 0.00 0.00 0.00 0.00 0.00 0.00 0.00 0.00 0.00 0.00 0.00 0.00 0.00 0.00 0.00
0.00 0.00 0.00 0.00 0.00 0.00 0.01 0.01 0.00 0.01 0.00 0.00 0.00 0.00 0.00 0.00 0.00 0.00 0.00 0.00 0.00 0.00 0.00 0.00 0.01 0.01 0.00 0.00 0.00 0.00 0.00 0.00 0.00 0.00 0.00 0.00 0.00 0.00 0.00 0.00 0.00 0.00
0.00 0.00 0.00 0.00 0.00 0.03 0.03 0.10 0.04 0.01 0.01 0.00 0.00 0.00 0.00 0.00 0.00 0.00 0.00 0.00 0.01 0.02 0.03 0.03 0.02 0.02 0.02 0.00 0.00 0.00 0.00 0.00 0.00 0.00 0.00 0.00 0.00 0.00 0.00 0.00 0.00 0.00
0.07 0.03 0.00 0.01 0.03 0.08 0.05 0.05 0.04 0.05 0.03 0.01 0.00 0.01 0.03 0.06 0.04 0.04 0.08 0.11 0.12 0.09 0.07 0.06 0.04 0.02 0.00 0.00 0.00 0.00 0.00 0.00 0.00 0.00 0.00 0.00 0.00 0.00 0.00 0.00 0.00 0.00
0.03 0.01 0.01 0.02 0.05 0.03 0.06 0.02 0.01 0.00 0.00 0.01 0.02 0.05 0.06 0.07 0.10 0.16 0.19 0.18 0.14 0.11 0.08 0.06 0.02 0.00 0.00 0.00 0.00 0.00 0.00 0.00 0.00 0.00 0.00 0.00 0.00 0.00 0.00 0.00 0.00 0.00
0.04 0.02 0.03 0.05 0.03 0.05 0.16 0.22 0.12 0.01 0.02 0.03 0.04 0.11 0.22 0.20 0.24 0.23 0.20 0.17 0.13 0.10 0.05 0.01 0.00 0.00 0.00 0.00 0.00 0.00 0.00 0.00 0.00 0.00 0.00 0.00 0.00 0.00 0.00 0.00 0.00 0.01
0.00 0.05 0.23 0.15 0.22 0.17 0.21 0.12 0.23 0.14 0.12 0.15 0.29 0.30 0.29 0.31 0.28 0.26 0.22 0.15 0.07 0.02 0.00 0.01 0.00 0.00 0.00 0.00 0.00 0.00 0.00 0.00 0.00 0.00 0.00 0.00 0.01 0.01 0.00 0.00 0.00 0.00
0.00 0.03 0.16 0.38 0.12 0.41 0.32 0.21 0.35 0.29 0.35 0.37 0.26 0.38 0.41 0.33 0.22 0.14 0.07 0.04 0.02 0.01 0.00 0.00 0.00 0.00 0.00 0.00 0.00 0.00 0.00 0.00 0.00 0.00 0.00 0.00 0.02 0.03 0.01 0.01 0.00 0.00
0.00 0.00 0.04 0.16 0.15 1.39 1.81 0.56 0.60 0.70 0.67 0.53 0.36 0.35 0.25 0.16 0.11 0.07 0.05 0.03 0.01 0.01 0.01 0.00 0.00 0.00 0.00 0.00 0.00 0.00 0.00 0.00 0.00 0.00 0.00 0.00 0.00 0.00 0.01 0.00 0.00 0.02
0.13 0.00 0.00 0.00 0.60 0.96 1.15 1.32 0.79 0.37 0.28 0.29 0.25 0.16 0.13 0.13 0.11 0.10 0.07 0.04 0.02 0.01 0.01 0.00 0.00 0.00 0.00 0.00 0.00 0.00 0.00 0.00 0.00 0.00 0.00 0.00 0.01 0.00 0.01 0.00 0.00 0.00
0.26 0.11 0.01 0.06 0.44 1.07 1.09 0.96 0.63 0.19 0.16 0.09 0.08 0.08 0.10 0.10 0.12 0.12 0.09 0.06 0.04 0.02 0.01 0.00 0.00 0.00 0.00 0.00 0.00 0.00 0.00 0.00 0.00 0.00 0.00 0.00 0.00 0.00 0.00 0.01 0.01 0.04
0.27 0.03 0.05 0.19 0.98 1.22 0.79 1.08 0.38 0.43 0.27 0.13 0.10 0.19 0.05 0.09 0.13 0.14 0.12 0.09 0.05 0.03 0.02 0.01 0.01 0.00 0.00 0.00 0.00 0.00 0.00 0.00 0.00 0.00 0.00 0.00 0.00 0.00 0.00 0.01 0.06 0.08
0.14 0.03 0.09 0.98 1.21 1.60 0.99 0.11 0.15 0.07 0.22 0.37 0.26 0.12 0.18 0.13 0.14 0.15 0.13 0.11 0.08 0.06 0.05 0.03 0.02 0.01 0.01 0.00 0.00 0.01 0.01 0.01 0.00 0.01 0.00 0.01 0.01 0.02 0.01 0.00 0.02 0.05
0.01 0.00 0.31 0.77 1.12 0.96 0.38 0.22 0.02 0.14 0.17 0.32 0.17 0.09 0.12 0.06 0.06 0.06 0.06 0.06 0.05 0.05 0.05 0.05 0.04 0.02 0.01 0.01 0.00 0.00 0.00 0.00 0.00 0.01 0.02 0.02 0.02 0.02 0.02 0.02 0.14 0.47
0.02 0.02 0.04 0.77 0.55 0.23 0.11 0.02 0.05 0.19 0.13 0.12 0.12 0.11 0.05 0.03 0.04 0.04 0.08 0.21 0.15 0.15 0.12 0.08 0.05 0.03 0.01 0.01 0.01 0.02 0.01 0.02 0.02 0.01 0.02 0.01 0.02 0.01 0.02 0.07 0.12 0.37
0.02 0.02 0.08 0.01 0.01 0.04 0.01 0.00 0.02 0.10 0.03 0.05 0.05 0.03 0.01 0.01 0.02 0.04 0.03 0.09 0.08 0.03 0.03 0.03 0.05 0.05 0.05 0.04 0.04 0.02 0.02 0.02 0.01 0.01 0.04 0.03 0.05 0.08 0.04 0.12 0.24 0.20
0.02 0.01 0.01 0.01 0.00 0.01 0.00 0.01 0.01 0.03 0.04 0.04 0.03 0.01 0.01 0.00 0.01 0.02 0.04 0.03 0.02 0.02 0.02 0.05 0.06 0.03 0.01 0.01 0.01 0.01 0.02 0.03 0.02 0.03 0.07 0.06 0.08 0.30 0.30 0.25 0.05 0.05
0.02 0.01 0.01 0.01 0.01 0.00 0.01 0.02 0.04 0.05 0.03 0.02 0.01 0.01 0.00 0.00 0.00 0.02 0.03 0.01 0.00 0.06 0.04 0.03 0.05 0.04 0.03 0.02 0.02 0.08 0.07 0.10 0.13 0.10 0.09 0.27 0.16 0.29 0.23 0.07 0.12 0.06
0.01 0.01 0.01 0.00 0.01 0.01 0.02 0.04 0.03 0.01 0.01 0.00 0.01 0.01 0.01 0.01 0.00 0.01 0.02 0.02 0.02 0.04 0.05 0.01 0.03 0.07 0.02 0.01 0.04 0.07 0.09 0.09 0.10 0.08 0.08 0.05 0.05 0.11 0.18 0.16 0.05 0.09

ECMWFNIL_prec_precacc_075.txt.gz
Total_Precipitation_Accumulation
0.00 0.00 0.00 0.00 0.00 0.00 0.00 0.00 0.00 0.00 0.00 0.00 0.00 0.00 0.00 0.00 0.00 0.00 0.00 0.00 0.00 0.00 0.00 0.00 0.00 0.01 0.02 0.02 0.02 0.01 0.01 0.01 0.00 0.01 0.01 0.02 0.02 0.02 0.02 0.01 0.00 0.00
0.00 0.00 0.00 0.00 0.00 0.00 0.00 0.00 0.00 0.00 0.00 0.00 0.00 0.00 0.00 0.00 0.00 0.00 0.00 0.00 0.00 0.00 0.00 0.00 0.01 0.00 0.01 0.01 0.01 0.02 0.02 0.01 0.01 0.00 0.01 0.01 0.01 0.02 0.01 0.01 0.01 0.00
0.00 0.00 0.00 0.00 0.00 0.00 0.00 0.00 0.00 0.00 0.00 0.00 0.00 0.00 0.00 0.00 0.00 0.00 0.00 0.00 0.00 0.01 0.00 0.00 0.00 0.00 0.00 0.00 0.01 0.01 0.01 0.01 0.01 0.01 0.00 0.01 0.01 0.02 0.02 0.01 0.02 0.01
0.00 0.00 0.00 0.00 0.00 0.00 0.00 0.00 0.00 0.00 0.00 0.00 0.00 0.00 0.00 0.00 0.00 0.00 0.00 0.00 0.00 0.00 0.00 0.00 0.00 0.01 0.00 0.00 0.00 0.01 0.01 0.01 0.00 0.00 0.00 0.01 0.01 0.01 0.02 0.02 0.01 0.01
0.00 0.00 0.00 0.00 0.00 0.00 0.00 0.00 0.00 0.00 0.00 0.00 0.00 0.00 0.00 0.00 0.00 0.00 0.00 0.00 0.00 0.00 0.00 0.00 0.00 0.01 0.00 0.01 0.01 0.00 0.00 0.01 0.00 0.00 0.00 0.00 0.00 0.00 0.00 0.01 0.01 0.01
0.00 0.00 0.00 0.00 0.00 0.00 0.00 0.00 0.00 0.00 0.00 0.00 0.00 0.00 0.00 0.00 0.00 0.00 0.00 0.00 0.00 0.00 0.00 0.00 0.00 0.00 0.00 0.00 0.00 0.00 0.00 0.00 0.00 0.00 0.00 0.00 0.00 0.01 0.00 0.00 0.00 0.00
0.00 0.00 0.00 0.00 0.00 0.00 0.00 0.00 0.00 0.00 0.01 0.00 0.01 0.00 0.00 0.00 0.00 0.00 0.00 0.00 0.00 0.00 0.00 0.00 0.00 0.00 0.00 0.00 0.00 0.00 0.00 0.00 0.00 0.00 0.00 0.00 0.00 0.00 0.00 0.00 0.00 0.00
0.00 0.00 0.00 0.00 0.00 0.00 0.01 0.01 0.01 0.00 0.00 0.00 0.00 0.00 0.00 0.00 0.00 0.00 0.00 0.00 0.00 0.00 0.00 0.00 0.00 0.00 0.00 0.00 0.00 0.00 0.00 0.00 0.00 0.00 0.00 0.00 0.00 0.00 0.00 0.00 0.00 0.00
0.00 0.00 0.00 0.00 0.00 0.00 0.01 0.01 0.00 0.01 0.00 0.00 0.00 0.00 0.00 0.00 0.00 0.00 0.00 0.00 0.00 0.00 0.00 0.00 0.01 0.01 0.00 0.00 0.00 0.00 0.00 0.00 0.00 0.00 0.00 0.00 0.00 0.00 0.00 0.00 0.00 0.00
0.00 0.00 0.00 0.00 0.00 0.03 0.03 0.10 0.04 0.01 0.01 0.00 0.00 0.00 0.00 0.00 0.00 0.00 0.00 0.00 0.01 0.02 0.03 0.03 0.02 0.02 0.02 0.00 0.00 0.00 0.00 0.00 0.00 0.00 0.00 0.00 0.00 0.00 0.00 0.00 0.00 0.00
0.07 0.03 0.00 0.01 0.03 0.08 0.05 0.05 0.04 0.05 0.03 0.01 0.00 0.01 0.03 0.06 0.04 0.04 0.08 0.11 0.12 0.09 0.07 0.06 0.04 0.02 0.00 0.00 0.00 0.00 0.00 0.00 0.00 0.00 0.00 0.00 0.00 0.00 0.00 0.00 0.00 0.00
0.03 0.01 0.01 0.02 0.05 0.03 0.06 0.02 0.01 0.00 0.00 0.01 0.02 0.05 0.06 0.07 0.10 0.16 0.19 0.18 0.14 0.11 0.08 0.06 0.02 0.00 0.00 0.00 0.00 0.00 0.00 0.00 0.00 0.00 0.00 0.00 0.00 0.00 0.00 0.00 0.00 0.00
0.04 0.02 0.03 0.05 0.03 0.05 0.16 0.22 0.12 0.01 0.02 0.03 0.04 0.11 0.22 0.20 0.24 0.23 0.20 0.17 0.13 0.10 0.05 0.01 0.00 0.00 0.00 0.00 0.00 0.00 0.00 0.00 0.00 0.00 0.00 0.00 0.00 0.00 0.00 0.00 0.00 0.01
0.00 0.05 0.23 0.15 0.22 0.17 0.21 0.12 0.23 0.14 0.12 0.15 0.29 0.30 0.29 0.31 0.28 0.26 0.22 0.15 0.07 0.02 0.00 0.01 0.00 0.00 0.00 0.00 0.00 0.00 0.00 0.00 0.00 0.00 0.00 0.00 0.01 0.01 0.00 0.00 0.00 0.00
0.00 0.03 0.16 0.38 0.12 0.41 0.32 0.21 0.35 0.29 0.35 0.37 0.26 0.38 0.41 0.33 0.22 0.14 0.07 0.04 0.02 0.01 0.00 0.00 0.00 0.00 0.00 0.00 0.00 0.00 0.00 0.00 0.00 0.00 0.00 0.00 0.02 0.03 0.01 0.01 0.00 0.00
0.00 0.00 0.04 0.16 0.15 1.39 1.81 0.56 0.60 0.70 0.67 0.53 0.36 0.35 0.25 0.16 0.11 0.07 0.05 0.03 0.01 0.01 0.01 0.00 0.00 0.00 0.00 0.00 0.00 0.00 0.00 0.00 0.00 0.00 0.00 0.00 0.00 0.00 0.01 0.00 0.00 0.02
0.13 0.00 0.00 0.00 0.60 0.96 1.15 1.32 0.79 0.37 0.28 0.29 0.25 0.16 0.13 0.13 0.11 0.10 0.07 0.04 0.02 0.01 0.01 0.00 0.00 0.00 0.00 0.00 0.00 0.00 0.00 0.00 0.00 0.00 0.00 0.00 0.01 0.00 0.01 0.00 0.00 0.00
0.26 0.11 0.01 0.06 0.44 1.07 1.09 0.96 0.63 0.19 0.16 0.09 0.08 0.08 0.10 0.10 0.12 0.12 0.09 0.06 0.04 0.02 0.01 0.00 0.00 0.00 0.00 0.00 0.00 0.00 0.00 0.00 0.00 0.00 0.00 0.00 0.00 0.00 0.00 0.01 0.01 0.04
0.27 0.03 0.05 0.19 0.98 1.22 0.79 1.08 0.38 0.43 0.27 0.13 0.10 0.19 0.05 0.09 0.13 0.14 0.12 0.09 0.05 0.03 0.02 0.01 0.01 0.00 0.00 0.00 0.00 0.00 0.00 0.00 0.00 0.00 0.00 0.00 0.00 0.00 0.00 0.01 0.06 0.08
0.15 0.03 0.09 0.98 1.21 1.60 0.99 0.11 0.15 0.07 0.22 0.37 0.26 0.12 0.18 0.13 0.14 0.15 0.13 0.11 0.08 0.06 0.05 0.03 0.02 0.01 0.01 0.00 0.00 0.01 0.01 0.01 0.00 0.01 0.00 0.01 0.01 0.02 0.01 0.00 0.02 0.05
0.01 0.00 0.31 0.77 1.12 0.96 0.38 0.22 0.02 0.14 0.17 0.32 0.17 0.09 0.12 0.06 0.06 0.06 0.06 0.06 0.05 0.05 0.05 0.05 0.04 0.02 0.01 0.01 0.00 0.00 0.00 0.00 0.00 0.01 0.02 0.02 0.02 0.02 0.02 0.02 0.14 0.47
0.02 0.02 0.04 0.77 0.55 0.23 0.11 0.02 0.05 0.19 0.13 0.12 0.12 0.11 0.05 0.03 0.04 0.04 0.08 0.21 0.15 0.15 0.12 0.08 0.05 0.03 0.01 0.01 0.01 0.02 0.01 0.02 0.02 0.01 0.02 0.01 0.02 0.01 0.02 0.07 0.12 0.37
0.03 0.02 0.08 0.02 0.01 0.04 0.01 0.00 0.02 0.10 0.03 0.05 0.05 0.03 0.01 0.01 0.02 0.04 0.03 0.09 0.08 0.03 0.03 0.03 0.05 0.05 0.05 0.04 0.04 0.02 0.02 0.02 0.01 0.01 0.04 0.03 0.05 0.08 0.04 0.12 0.24 0.20
0.03 0.02 0.02 0.02 0.01 0.01 0.01 0.01 0.01 0.03 0.04 0.04 0.03 0.01 0.01 0.00 0.01 0.02 0.04 0.03 0.02 0.02 0.02 0.05 0.06 0.03 0.01 0.01 0.01 0.01 0.02 0.03 0.02 0.03 0.07 0.06 0.08 0.30 0.30 0.25 0.05 0.05
0.06 0.03 0.02 0.01 0.01 0.01 0.03 0.04 0.05 0.06 0.04 0.02 0.01 0.01 0.00 0.00 0.00 0.02 0.03 0.01 0.00 0.06 0.04 0.03 0.05 0.04 0.03 0.02 0.02 0.08 0.07 0.10 0.13 0.10 0.09 0.27 0.16 0.29 0.23 0.07 0.12 0.06
0.22 0.13 0.03 0.01 0.02 0.01 0.03 0.07 0.07 0.08 0.05 0.01 0.01 0.01 0.01 0.01 0.00 0.01 0.02 0.02 0.02 0.04 0.05 0.01 0.03 0.07 0.02 0.01 0.04 0.07 0.09 0.09 0.10 0.08 0.08 0.05 0.05 0.11 0.18 0.16 0.05 0.09

ECMWFNIL_prec_precacc_078.txt.gz
Total_Precipitation_Accumulation
0.00 0.00 0.00 0.00 0.00 0.00 0.00 0.00 0.00 0.00 0.00 0.00 0.00 0.00 0.00 0.00 0.00 0.00 0.00 0.00 0.00 0.00 0.00 0.01 0.01 0.01 0.02 0.02 0.02 0.01 0.01 0.01 0.01 0.02 0.02 0.02 0.02 0.02 0.02 0.01 0.00 0.00
0.00 0.00 0.00 0.00 0.00 0.00 0.00 0.00 0.00 0.00 0.00 0.00 0.00 0.00 0.00 0.00 0.00 0.00 0.00 0.00 0.00 0.00 0.00 0.01 0.01 0.01 0.01 0.02 0.02 0.02 0.02 0.01 0.01 0.01 0.01 0.02 0.02 0.02 0.02 0.01 0.01 0.00
0.00 0.00 0.00 0.00 0.00 0.00 0.00 0.00 0.00 0.00 0.00 0.00 0.00 0.00 0.00 0.00 0.00 0.00 0.00 0.00 0.00 0.01 0.00 0.00 0.00 0.01 0.01 0.01 0.01 0.01 0.02 0.01 0.01 0.01 0.01 0.01 0.02 0.02 0.02 0.01 0.02 0.01
0.00 0.00 0.00 0.00 0.00 0.00 0.00 0.00 0.00 0.00 0.00 0.00 0.00 0.00 0.00 0.00 0.00 0.00 0.00 0.00 0.00 0.00 0.00 0.00 0.00 0.01 0.01 0.00 0.01 0.01 0.01 0.01 0.01 0.01 0.01 0.01 0.01 0.01 0.02 0.02 0.01 0.01
0.00 0.00 0.00 0.00 0.00 0.00 0.00 0.00 0.00 0.00 0.00 0.00 0.00 0.00 0.00 0.00 0.00 0.00 0.00 0.00 0.00 0.00 0.00 0.00 0.00 0.01 0.00 0.01 0.01 0.01 0.00 0.01 0.00 0.00 0.00 0.01 0.01 0.01 0.01 0.01 0.01 0.01
0.00 0.00 0.00 0.00 0.00 0.00 0.00 0.00 0.00 0.00 0.00 0.00 0.00 0.00 0.00 0.00 0.00 0.00 0.00 0.00 0.00 0.00 0.00 0.00 0.00 0.00 0.00 0.00 0.01 0.00 0.00 0.00 0.00 0.01 0.01 0.00 0.01 0.01 0.00 0.00 0.01 0.00
0.00 0.00 0.00 0.00 0.00 0.00 0.00 0.00 0.00 0.00 0.01 0.00 0.01 0.00 0.00 0.00 0.00 0.00 0.00 0.00 0.00 0.00 0.00 0.00 0.00 0.00 0.00 0.00 0.00 0.00 0.00 0.00 0.00 0.01 0.00 0.00 0.00 0.00 0.00 0.00 0.00 0.00
0.00 0.00 0.00 0.00 0.00 0.00 0.01 0.01 0.01 0.00 0.00 0.00 0.00 0.00 0.00 0.00 0.00 0.00 0.00 0.00 0.00 0.00 0.00 0.00 0.00 0.00 0.00 0.00 0.00 0.00 0.00 0.00 0.00 0.00 0.00 0.00 0.00 0.00 0.00 0.00 0.00 0.00
0.00 0.00 0.00 0.00 0.00 0.00 0.01 0.01 0.00 0.01 0.00 0.00 0.00 0.00 0.00 0.00 0.00 0.00 0.00 0.00 0.00 0.00 0.00 0.00 0.01 0.01 0.00 0.00 0.00 0.00 0.00 0.00 0.00 0.00 0.00 0.00 0.00 0.00 0.00 0.00 0.00 0.00
0.00 0.00 0.00 0.00 0.00 0.03 0.03 0.10 0.04 0.01 0.01 0.00 0.00 0.00 0.00 0.00 0.00 0.00 0.00 0.00 0.01 0.02 0.03 0.03 0.02 0.02 0.02 0.00 0.00 0.00 0.00 0.00 0.00 0.00 0.00 0.00 0.00 0.00 0.00 0.00 0.00 0.00
0.07 0.03 0.00 0.01 0.03 0.08 0.05 0.05 0.04 0.05 0.03 0.01 0.00 0.01 0.03 0.06 0.04 0.04 0.08 0.11 0.12 0.09 0.07 0.06 0.04 0.02 0.00 0.00 0.00 0.00 0.00 0.00 0.00 0.00 0.00 0.00 0.00 0.00 0.00 0.00 0.00 0.00
0.03 0.01 0.01 0.02 0.05 0.03 0.06 0.02 0.01 0.00 0.00 0.01 0.02 0.05 0.06 0.07 0.10 0.16 0.19 0.18 0.14 0.11 0.08 0.06 0.02 0.00 0.00 0.00 0.00 0.00 0.00 0.00 0.00 0.00 0.00 0.00 0.00 0.00 0.00 0.00 0.00 0.00
0.04 0.02 0.03 0.05 0.03 0.05 0.16 0.22 0.12 0.01 0.02 0.03 0.04 0.11 0.22 0.20 0.24 0.23 0.20 0.17 0.13 0.10 0.05 0.01 0.00 0.00 0.00 0.00 0.00 0.00 0.00 0.00 0.00 0.00 0.00 0.00 0.00 0.00 0.00 0.00 0.00 0.01
0.00 0.05 0.23 0.15 0.22 0.17 0.21 0.12 0.23 0.14 0.12 0.15 0.29 0.30 0.29 0.31 0.28 0.26 0.22 0.15 0.07 0.02 0.00 0.01 0.00 0.00 0.00 0.00 0.00 0.00 0.00 0.00 0.00 0.00 0.00 0.00 0.01 0.01 0.00 0.00 0.00 0.00
0.00 0.03 0.16 0.38 0.12 0.41 0.32 0.21 0.35 0.29 0.35 0.37 0.26 0.38 0.41 0.33 0.22 0.14 0.07 0.04 0.02 0.01 0.00 0.00 0.00 0.00 0.00 0.00 0.00 0.00 0.00 0.00 0.00 0.00 0.00 0.00 0.02 0.03 0.01 0.01 0.00 0.00
0.00 0.00 0.04 0.16 0.15 1.39 1.81 0.56 0.60 0.70 0.67 0.53 0.36 0.35 0.25 0.16 0.11 0.07 0.05 0.03 0.01 0.01 0.01 0.00 0.00 0.00 0.00 0.00 0.00 0.00 0.00 0.00 0.00 0.00 0.00 0.00 0.00 0.00 0.01 0.00 0.00 0.02
0.13 0.00 0.00 0.00 0.60 0.96 1.15 1.32 0.79 0.37 0.28 0.29 0.25 0.16 0.13 0.13 0.11 0.10 0.07 0.04 0.02 0.01 0.01 0.00 0.00 0.00 0.00 0.00 0.00 0.00 0.00 0.00 0.00 0.00 0.00 0.00 0.01 0.00 0.01 0.00 0.00 0.00
0.26 0.11 0.01 0.06 0.44 1.07 1.09 0.96 0.63 0.19 0.16 0.09 0.08 0.08 0.10 0.10 0.12 0.12 0.09 0.06 0.04 0.02 0.01 0.00 0.00 0.00 0.00 0.00 0.00 0.00 0.00 0.00 0.00 0.00 0.00 0.00 0.00 0.00 0.00 0.01 0.01 0.04
0.28 0.03 0.05 0.19 0.98 1.22 0.79 1.08 0.38 0.43 0.27 0.13 0.10 0.19 0.05 0.09 0.13 0.14 0.12 0.09 0.05 0.03 0.02 0.01 0.01 0.00 0.00 0.00 0.00 0.00 0.00 0.00 0.00 0.00 0.00 0.00 0.00 0.00 0.00 0.01 0.06 0.08
0.19 0.04 0.09 0.98 1.21 1.60 0.99 0.11 0.15 0.07 0.22 0.37 0.26 0.12 0.18 0.13 0.14 0.15 0.13 0.11 0.08 0.06 0.05 0.03 0.02 0.01 0.01 0.00 0.00 0.01 0.01 0.01 0.00 0.01 0.00 0.01 0.01 0.02 0.01 0.00 0.02 0.05
0.03 0.05 0.34 0.78 1.12 0.96 0.38 0.22 0.02 0.14 0.17 0.32 0.17 0.09 0.12 0.06 0.06 0.06 0.06 0.06 0.05 0.05 0.05 0.05 0.04 0.02 0.01 0.01 0.00 0.00 0.00 0.00 0.00 0.01 0.02 0.02 0.02 0.02 0.02 0.02 0.14 0.47
0.03 0.03 0.06 0.79 0.56 0.23 0.11 0.02 0.05 0.19 0.13 0.12 0.12 0.11 0.05 0.03 0.04 0.04 0.08 0.21 0.15 0.15 0.12 0.08 0.05 0.03 0.01 0.01 0.01 0.02 0.01 0.02 0.02 0.01 0.02 0.01 0.02 0.01 0.02 0.07 0.12 0.37
0.07 0.10 0.11 0.04 0.04 0.05 0.01 0.01 0.03 0.12 0.04 0.06 0.05 0.05 0.01 0.01 0.02 0.04 0.03 0.09 0.08 0.03 0.03 0.03 0.05 0.05 0.05 0.04 0.04 0.02 0.02 0.02 0.01 0.01 0.04 0.03 0.05 0.08 0.04 0.12 0.24 0.20
0.06 0.04 0.02 0.02 0.02 0.08 0.11 0.05 0.18 0.36 0.19 0.06 0.05 0.03 0.02 0.00 0.01 0.02 0.04 0.03 0.02 0.02 0.02 0.05 0.06 0.03 0.01 0.01 0.01 0.01 0.02 0.03 0.02 0.03 0.07 0.06 0.08 0.30 0.30 0.25 0.05 0.05
0.08 0.04 0.03 0.03 0.02 0.02 0.10 0.11 0.17 0.32 0.32 0.39 0.10 0.06 0.03 0.04 0.03 0.04 0.04 0.01 0.00 0.06 0.04 0.03 0.05 0.04 0.03 0.02 0.02 0.08 0.07 0.10 0.13 0.10 0.09 0.27 0.16 0.29 0.23 0.07 0.12 0.06
0.23 0.16 0.04 0.03 0.04 0.02 0.07 0.25 0.53 0.51 0.21 0.12 0.07 0.12 0.03 0.04 0.01 0.05 0.04 0.04 0.04 0.04 0.05 0.01 0.03 0.07 0.02 0.01 0.04 0.07 0.09 0.09 0.10 0.08 0.08 0.05 0.05 0.11 0.18 0.16 0.05 0.09

ECMWFNIL_prec_precacc_081.txt.gz
Total_Precipitation_Accumulation
0.00 0.00 0.00 0.00 0.00 0.00 0.00 0.00 0.00 0.00 0.00 0.02 0.01 0.01 0.00 0.00 0.00 0.00 0.00 0.00 0.00 0.00 0.00 0.01 0.01 0.02 0.03 0.02 0.02 0.02 0.02 0.02 0.01 0.03 0.02 0.02 0.02 0.02 0.02 0.01 0.01 0.01
0.00 0.00 0.00 0.00 0.00 0.00 0.00 0.00 0.00 0.00 0.00 0.00 0.00 0.00 0.00 0.00 0.00 0.00 0.00 0.00 0.00 0.00 0.00 0.01 0.01 0.01 0.01 0.02 0.02 0.02 0.03 0.02 0.03 0.01 0.01 0.02 0.02 0.02 0.02 0.01 0.01 0.00
0.00 0.00 0.00 0.00 0.00 0.00 0.00 0.00 0.00 0.00 0.00 0.00 0.00 0.00 0.00 0.00 0.00 0.00 0.00 0.00 0.00 0.01 0.00 0.00 0.02 0.01 0.01 0.01 0.02 0.02 0.03 0.02 0.01 0.01 0.01 0.01 0.02 0.02 0.02 0.01 0.02 0.01
0.00 0.00 0.00 0.00 0.00 0.00 0.00 0.00 0.00 0.00 0.00 0.00 0.00 0.00 0.00 0.00 0.00 0.00 0.00 0.00 0.00 0.00 0.00 0.00 0.00 0.01 0.01 0.01 0.01 0.01 0.02 0.01 0.01 0.01 0.01 0.02 0.01 0.01 0.02 0.02 0.01 0.01
0.00 0.00 0.00 0.00 0.00 0.00 0.00 0.00 0.00 0.00 0.00 0.00 0.00 0.00 0.00 0.00 0.00 0.00 0.00 0.00 0.00 0.00 0.00 0.00 0.00 0.01 0.00 0.01 0.01 0.02 0.01 0.02 0.01 0.01 0.01 0.01 0.01 0.01 0.01 0.01 0.01 0.01
0.00 0.00 0.00 0.00 0.00 0.00 0.00 0.00 0.00 0.00 0.00 0.00 0.00 0.00 0.00 0.00 0.00 0.00 0.00 0.00 0.00 0.00 0.00 0.00 0.00 0.00 0.00 0.00 0.01 0.00 0.00 0.01 0.01 0.01 0.01 0.01 0.01 0.02 0.00 0.00 0.01 0.01
0.00 0.00 0.00 0.00 0.00 0.00 0.00 0.00 0.00 0.00 0.01 0.00 0.01 0.00 0.00 0.00 0.00 0.00 0.00 0.00 0.00 0.00 0.00 0.00 0.00 0.00 0.00 0.00 0.00 0.00 0.00 0.00 0.00 0.01 0.00 0.00 0.00 0.00 0.00 0.00 0.00 0.00
0.00 0.00 0.00 0.00 0.00 0.00 0.01 0.01 0.01 0.00 0.00 0.00 0.00 0.00 0.00 0.00 0.00 0.00 0.00 0.00 0.00 0.00 0.00 0.00 0.00 0.00 0.00 0.00 0.00 0.00 0.00 0.00 0.00 0.00 0.01 0.00 0.00 0.00 0.00 0.00 0.00 0.00
0.00 0.00 0.00 0.00 0.00 0.00 0.01 0.01 0.00 0.01 0.00 0.00 0.00 0.00 0.00 0.00 0.00 0.00 0.00 0.00 0.00 0.00 0.00 0.00 0.01 0.01 0.00 0.00 0.00 0.00 0.00 0.00 0.00 0.00 0.00 0.00 0.00 0.00 0.00 0.00 0.00 0.00
0.00 0.00 0.00 0.00 0.00 0.03 0.03 0.10 0.04 0.01 0.01 0.00 0.00 0.00 0.00 0.00 0.00 0.00 0.00 0.00 0.01 0.02 0.03 0.03 0.02 0.02 0.02 0.00 0.00 0.00 0.00 0.00 0.00 0.00 0.00 0.00 0.00 0.00 0.00 0.00 0.00 0.00
0.07 0.03 0.00 0.01 0.03 0.08 0.05 0.05 0.04 0.05 0.03 0.01 0.00 0.01 0.03 0.06 0.04 0.04 0.08 0.11 0.12 0.09 0.07 0.06 0.04 0.02 0.00 0.00 0.00 0.00 0.00 0.00 0.00 0.00 0.00 0.00 0.00 0.00 0.00 0.00 0.00 0.00
0.03 0.01 0.01 0.02 0.05 0.03 0.06 0.02 0.01 0.00 0.00 0.01 0.02 0.05 0.06 0.07 0.10 0.16 0.19 0.18 0.14 0.11 0.08 0.06 0.02 0.00 0.00 0.00 0.00 0.00 0.00 0.00 0.00 0.00 0.00 0.00 0.00 0.00 0.00 0.00 0.00 0.00
0.04 0.02 0.03 0.05 0.03 0.05 0.16 0.22 0.12 0.01 0.02 0.03 0.04 0.11 0.22 0.20 0.24 0.23 0.20 0.17 0.13 0.10 0.05 0.01 0.00 0.00 0.00 0.00 0.00 0.00 0.00 0.00 0.00 0.00 0.00 0.00 0.00 0.00 0.00 0.00 0.00 0.01
0.00 0.05 0.23 0.15 0.22 0.17 0.21 0.12 0.23 0.14 0.12 0.15 0.29 0.30 0.29 0.31 0.28 0.26 0.22 0.15 0.07 0.02 0.00 0.01 0.00 0.00 0.00 0.00 0.00 0.00 0.00 0.00 0.00 0.00 0.00 0.00 0.01 0.01 0.00 0.00 0.00 0.00
0.00 0.03 0.16 0.38 0.12 0.41 0.32 0.21 0.35 0.29 0.35 0.37 0.26 0.38 0.41 0.33 0.22 0.14 0.07 0.04 0.02 0.01 0.00 0.00 0.00 0.00 0.00 0.00 0.00 0.00 0.00 0.00 0.00 0.00 0.00 0.00 0.02 0.03 0.01 0.01 0.00 0.00
0.00 0.01 0.04 0.16 0.15 1.39 1.81 0.56 0.60 0.70 0.67 0.53 0.36 0.35 0.25 0.16 0.11 0.07 0.05 0.03 0.01 0.01 0.01 0.00 0.00 0.00 0.00 0.00 0.00 0.00 0.00 0.00 0.00 0.00 0.00 0.00 0.00 0.00 0.01 0.00 0.00 0.02
0.32 0.07 0.00 0.00 0.60 0.96 1.15 1.32 0.79 0.37 0.28 0.29 0.25 0.16 0.13 0.13 0.11 0.10 0.07 0.04 0.02 0.01 0.01 0.00 0.00 0.00 0.00 0.00 0.00 0.00 0.00 0.00 0.00 0.00 0.00 0.00 0.01 0.00 0.01 0.00 0.00 0.00
0.76 0.79 0.59 0.25 0.51 1.12 1.09 0.96 0.63 0.19 0.16 0.09 0.08 0.08 0.10 0.10 0.12 0.12 0.09 0.06 0.04 0.02 0.01 0.00 0.00 0.00 0.00 0.00 0.00 0.00 0.00 0.00 0.00 0.00 0.00 0.00 0.00 0.00 0.00 0.01 0.01 0.04
0.67 0.17 0.23 0.38 1.05 1.22 0.80 1.11 0.38 0.43 0.28 0.15 0.10 0.19 0.05 0.09 0.13 0.14 0.12 0.09 0.05 0.03 0.02 0.01 0.01 0.00 0.00 0.00 0.00 0.00 0.00 0.00 0.00 0.00 0.00 0.00 0.00 0.00 0.00 0.01 0.06 0.08
0.22 0.09 0.13 1.07 1.29 1.67 1.02 0.13 0.20 0.07 0.26 0.39 0.28 0.13 0.18 0.13 0.14 0.15 0.13 0.11 0.08 0.06 0.05 0.03 0.02 0.01 0.01 0.00 0.00 0.01 0.01 0.01 0.00 0.01 0.00 0.01 0.01 0.02 0.01 0.00 0.02 0.05
0.05 0.06 0.38 0.83 1.23 1.14 0.68 0.50 0.22 0.24 0.23 0.44 0.43 0.39 0.13 0.06 0.06 0.06 0.06 0.06 0.05 0.05 0.05 0.05 0.04 0.02 0.01 0.01 0.00 0.00 0.00 0.00 0.00 0.01 0.02 0.02 0.02 0.02 0.02 0.02 0.14 0.47
0.08 0.08 0.12 0.96 0.71 0.66 0.37 0.16 0.25 0.41 0.56 0.98 1.00 0.42 0.23 0.14 0.08 0.04 0.08 0.21 0.15 0.15 0.12 0.08 0.05 0.03 0.01 0.01 0.01 0.02 0.01 0.02 0.02 0.01 0.02 0.01 0.02 0.01 0.02 0.07 0.12 0.37
0.11 0.20 0.25 0.16 0.47 0.64 0.49 0.37 0.53 0.77 0.75 1.28 0.80 0.12 0.15 0.04 0.04 0.06 0.05 0.09 0.08 0.03 0.03 0.03 0.05 0.05 0.05 0.04 0.04 0.02 0.02 0.02 0.01 0.01 0.04 0.03 0.05 0.08 0.04 0.12 0.24 0.20
0.08 0.07 0.05 0.04 0.06 0.51 0.68 0.76 0.49 0.51 0.48 0.55 0.22 0.20 0.03 0.05 0.04 0.05 0.06 0.05 0.02 0.02 0.02 0.05 0.06 0.03 0.01 0.01 0.01 0.01 0.02 0.03 0.02 0.03 0.07 0.06 0.08 0.30 0.30 0.25 0.05 0.05
0.08 0.04 0.05 0.06 0.07 0.20 0.56 1.18 0.77 0.45 0.34 0.45 0.11 0.07 0.04 0.05 0.03 0.05 0.05 0.02 0.01 0.06 0.04 0.03 0.05 0.04 0.03 0.02 0.02 0.08 0.07 0.10 0.13 0.10 0.09 0.27 0.16 0.29 0.23 0.07 0.12 0.06
0.23 0.16 0.04 0.03 0.05 0.07 0.45 1.00 1.32 0.76 0.27 0.16 0.09 0.16 0.07 0.06 0.02 0.08 0.04 0.05 0.04 0.04 0.05 0.01 0.03 0.07 0.02 0.01 0.04 0.07 0.09 0.09 0.10 0.08 0.08 0.05 0.05 0.11 0.18 0.16 0.05 0.09

ECMWFNIL_prec_precacc_084.txt.gz
Total_Precipitation_Accumulation
0.00 0.00 0.00 0.00 0.00 0.00 0.00 0.00 0.00 0.00 0.00 0.04 0.01 0.01 0.00 0.00 0.01 0.00 0.00 0.00 0.00 0.00 0.00 0.02 0.01 0.02 0.03 0.03 0.03 0.02 0.02 0.02 0.02 0.03 0.02 0.02 0.02 0.02 0.02 0.01 0.01 0.01
0.00 0.00 0.00 0.00 0.00 0.00 0.00 0.00 0.00 0.00 0.00 0.01 0.02 0.01 0.00 0.00 0.00 0.00 0.01 0.01 0.00 0.00 0.01 0.01 0.01 0.01 0.02 0.03 0.03 0.02 0.05 0.02 0.08 0.02 0.01 0.02 0.02 0.02 0.02 0.01 0.01 0.00
0.00 0.00 0.00 0.00 0.00 0.00 0.00 0.00 0.00 0.00 0.00 0.00 0.01 0.00 0.00 0.00 0.00 0.00 0.00 0.01 0.00 0.01 0.00 0.00 0.02 0.01 0.01 0.03 0.03 0.02 0.06 0.04 0.08 0.02 0.01 0.01 0.02 0.02 0.02 0.01 0.02 0.01
0.00 0.00 0.00 0.00 0.00 0.00 0.00 0.00 0.00 0.00 0.00 0.00 0.00 0.01 0.00 0.00 0.00 0.00 0.00 0.00 0.00 0.00 0.00 0.00 0.00 0.01 0.02 0.01 0.03 0.02 0.04 0.04 0.01 0.02 0.02 0.02 0.01 0.02 0.02 0.02 0.01 0.01
0.00 0.00 0.00 0.00 0.00 0.00 0.00 0.00 0.00 0.00 0.00 0.00 0.00 0.00 0.00 0.00 0.00 0.00 0.00 0.00 0.00 0.00 0.00 0.00 0.00 0.01 0.00 0.01 0.02 0.04 0.01 0.05 0.02 0.01 0.02 0.03 0.01 0.01 0.04 0.02 0.01 0.01
0.00 0.00 0.00 0.00 0.00 0.00 0.00 0.00 0.00 0.00 0.00 0.00 0.00 0.00 0.00 0.00 0.00 0.00 0.00 0.00 0.00 0.00 0.00 0.00 0.00 0.00 0.01 0.01 0.01 0.01 0.01 0.01 0.01 0.01 0.01 0.01 0.01 0.02 0.00 0.01 0.01 0.01
0.00 0.00 0.00 0.00 0.00 0.00 0.00 0.00 0.00 0.00 0.01 0.00 0.01 0.00 0.00 0.00 0.00 0.00 0.00 0.00 0.00 0.00 0.00 0.00 0.00 0.00 0.00 0.00 0.00 0.00 0.00 0.00 0.01 0.02 0.00 0.00 0.00 0.00 0.00 0.00 0.00 0.00
0.00 0.00 0.00 0.00 0.00 0.00 0.01 0.01 0.01 0.00 0.00 0.00 0.00 0.00 0.00 0.00 0.00 0.00 0.00 0.00 0.00 0.00 0.00 0.00 0.00 0.00 0.00 0.00 0.00 0.00 0.00 0.00 0.01 0.00 0.01 0.00 0.00 0.00 0.00 0.00 0.00 0.00
0.00 0.00 0.00 0.00 0.00 0.00 0.01 0.01 0.00 0.01 0.00 0.00 0.00 0.00 0.00 0.00 0.00 0.00 0.00 0.00 0.00 0.00 0.00 0.00 0.01 0.01 0.00 0.00 0.00 0.00 0.00 0.00 0.00 0.00 0.00 0.00 0.00 0.00 0.00 0.00 0.00 0.00
0.03 0.00 0.00 0.00 0.00 0.03 0.03 0.10 0.04 0.01 0.01 0.00 0.00 0.00 0.00 0.00 0.00 0.00 0.00 0.00 0.01 0.02 0.03 0.03 0.02 0.02 0.02 0.00 0.00 0.00 0.00 0.00 0.00 0.00 0.00 0.00 0.00 0.00 0.00 0.00 0.00 0.00
0.08 0.03 0.00 0.01 0.03 0.08 0.05 0.05 0.04 0.05 0.03 0.01 0.00 0.01 0.03 0.06 0.04 0.04 0.08 0.11 0.12 0.09 0.07 0.06 0.04 0.02 0.00 0.00 0.00 0.00 0.00 0.00 0.00 0.00 0.00 0.00 0.00 0.00 0.00 0.00 0.00 0.00
0.08 0.05 0.03 0.03 0.05 0.03 0.06 0.02 0.01 0.00 0.00 0.01 0.02 0.05 0.06 0.07 0.10 0.16 0.19 0.18 0.14 0.11 0.08 0.06 0.02 0.00 0.00 0.00 0.00 0.00 0.00 0.00 0.00 0.00 0.00 0.00 0.00 0.00 0.00 0.00 0.00 0.00
0.35 0.36 0.17 0.05 0.03 0.05 0.16 0.22 0.12 0.01 0.02 0.03 0.04 0.11 0.22 0.20 0.24 0.23 0.20 0.17 0.13 0.10 0.05 0.01 0.00 0.00 0.00 0.00 0.00 0.00 0.00 0.00 0.00 0.00 0.00 0.00 0.00 0.00 0.00 0.00 0.00 0.01
0.20 0.67 0.74 0.29 0.25 0.17 0.21 0.13 0.23 0.14 0.12 0.15 0.29 0.30 0.29 0.31 0.28 0.26 0.22 0.15 0.07 0.02 0.00 0.01 0.00 0.00 0.00 0.00 0.00 0.00 0.00 0.00 0.00 0.00 0.00 0.00 0.01 0.01 0.00 0.00 0.00 0.00
0.30 0.54 0.91 0.53 0.18 0.42 0.34 0.21 0.35 0.30 0.35 0.37 0.26 0.38 0.41 0.33 0.22 0.14 0.07 0.04 0.02 0.01 0.00 0.00 0.00 0.00 0.00 0.00 0.00 0.00 0.00 0.00 0.00 0.00 0.00 0.00 0.02 0.03 0.01 0.01 0.00 0.00
0.15 0.38 0.55 0.80 0.51 1.44 1.84 0.57 0.60 0.70 0.67 0.53 0.36 0.35 0.25 0.16 0.11 0.07 0.05 0.03 0.01 0.01 0.01 0.00 0.00 0.00 0.00 0.00 0.00 0.00 0.00 0.00 0.00 0.00 0.00 0.00 0.00 0.00 0.01 0.00 0.00 0.02
0.38 0.22 0.30 0.35 1.15 1.23 1.25 1.37 0.80 0.38 0.28 0.30 0.25 0.16 0.13 0.13 0.11 0.10 0.07 0.04 0.02 0.01 0.01 0.00 0.00 0.00 0.00 0.00 0.00 0.00 0.00 0.00 0.00 0.00 0.00 0.00 0.01 0.00 0.01 0.00 0.00 0.00
0.79 0.82 0.68 0.30 0.54 1.25 1.28 1.07 0.78 0.47 0.26 0.12 0.09 0.09 0.11 0.10 0.12 0.12 0.09 0.06 0.04 0.02 0.01 0.00 0.00 0.00 0.00 0.00 0.00 0.00 0.00 0.00 0.00 0.00 0.00 0.00 0.00 0.00 0.00 0.01 0.01 0.04
0.68 0.18 0.24 0.39 1.05 1.23 0.84 1.15 0.55 0.54 0.60 0.49 0.17 0.22 0.11 0.10 0.13 0.14 0.12 0.09 0.05 0.03 0.02 0.01 0.01 0.00 0.00 0.00 0.00 0.00 0.00 0.00 0.00 0.00 0.00 0.00 0.00 0.00 0.00 0.01 0.06 0.08
0.26 0.25 0.32 1.11 1.31 1.72 1.06 0.30 0.42 0.19 0.41 0.65 0.43 0.21 0.30 0.20 0.16 0.15 0.13 0.11 0.08 0.06 0.05 0.03 0.02 0.01 0.01 0.00 0.00 0.01 0.01 0.01 0.00 0.01 0.00 0.01 0.01 0.02 0.01 0.00 0.02 0.05
0.07 0.17 0.49 1.00 1.25 1.19 0.70 0.60 0.27 0.33 0.28 0.45 0.47 0.67 0.69 0.50 0.23 0.19 0.07 0.06 0.05 0.05 0.05 0.05 0.04 0.02 0.01 0.01 0.00 0.00 0.00 0.00 0.00 0.01 0.02 0.02 0.02 0.02 0.02 0.02 0.14 0.47
0.20 0.12 0.17 1.04 0.77 0.70 0.39 0.17 0.26 0.42 0.56 0.99 1.02 0.47 0.29 0.23 0.09 0.05 0.10 0.22 0.16 0.15 0.12 0.08 0.05 0.03 0.01 0.01 0.01 0.02 0.01 0.02 0.02 0.01 0.02 0.01 0.02 0.01 0.02 0.07 0.12 0.37
0.11 0.21 0.26 0.24 0.60 0.72 0.53 0.39 0.56 0.79 0.79 1.29 0.82 0.13 0.17 0.05 0.04 0.06 0.05 0.11 0.09 0.04 0.03 0.03 0.05 0.05 0.05 0.04 0.04 0.02 0.02 0.02 0.01 0.01 0.04 0.03 0.05 0.08 0.04 0.12 0.24 0.20
0.08 0.07 0.05 0.05 0.07 0.55 0.77 0.84 0.64 0.75 0.96 0.74 0.23 0.21 0.04 0.05 0.05 0.05 0.06 0.06 0.03 0.04 0.04 0.06 0.06 0.03 0.01 0.01 0.01 0.01 0.02 0.03 0.02 0.03 0.07 0.06 0.08 0.30 0.30 0.25 0.05 0.05
0.08 0.05 0.06 0.06 0.08 0.21 0.63 1.25 0.84 0.50 0.36 0.48 0.14 0.10 0.06 0.06 0.04 0.06 0.08 0.04 0.02 0.07 0.04 0.05 0.06 0.05 0.03 0.02 0.02 0.08 0.07 0.10 0.13 0.10 0.09 0.27 0.16 0.29 0.23 0.07 0.12 0.06
0.23 0.16 0.04 0.05 0.07 0.08 0.55 1.15 1.55 0.86 0.30 0.20 0.16 0.34 0.11 0.09 0.05 0.11 0.08 0.09 0.07 0.11 0.07 0.02 0.04 0.08 0.06 0.11 0.19 0.12 0.09 0.09 0.10 0.08 0.08 0.05 0.05 0.11 0.18 0.16 0.05 0.09

ECMWFNIL_prec_precacc_087.txt.gz
Total_Precipitation_Accumulation
0.00 0.00 0.00 0.00 0.00 0.00 0.00 0.00 0.00 0.00 0.00 0.04 0.01 0.01 0.00 0.00 0.01 0.00 0.00 0.00 0.00 0.00 0.00 0.02 0.01 0.02 0.03 0.03 0.03 0.02 0.02 0.02 0.02 0.03 0.02 0.02 0.02 0.02 0.02 0.01 0.01 0.01
0.00 0.00 0.00 0.00 0.00 0.00 0.00 0.00 0.00 0.00 0.00 0.01 0.02 0.01 0.00 0.00 0.00 0.00 0.01 0.01 0.00 0.00 0.01 0.01 0.01 0.01 0.02 0.03 0.03 0.02 0.05 0.02 0.08 0.02 0.01 0.02 0.02 0.02 0.02 0.01 0.01 0.00
0.00 0.00 0.00 0.00 0.00 0.00 0.00 0.00 0.00 0.00 0.00 0.00 0.01 0.00 0.00 0.00 0.00 0.00 0.00 0.01 0.00 0.01 0.00 0.00 0.02 0.01 0.01 0.03 0.03 0.02 0.06 0.04 0.08 0.02 0.01 0.01 0.02 0.02 0.02 0.01 0.02 0.01
0.00 0.00 0.00 0.00 0.00 0.00 0.00 0.00 0.00 0.00 0.00 0.00 0.00 0.01 0.00 0.00 0.00 0.00 0.00 0.00 0.00 0.00 0.00 0.00 0.00 0.01 0.02 0.01 0.03 0.02 0.04 0.04 0.01 0.02 0.02 0.02 0.01 0.02 0.02 0.02 0.01 0.01
0.00 0.00 0.00 0.00 0.00 0.00 0.00 0.00 0.00 0.00 0.00 0.00 0.00 0.00 0.00 0.00 0.00 0.00 0.00 0.00 0.00 0.00 0.00 0.00 0.00 0.01 0.00 0.01 0.02 0.04 0.01 0.05 0.02 0.01 0.02 0.03 0.01 0.01 0.04 0.02 0.01 0.01
0.00 0.00 0.00 0.00 0.00 0.00 0.00 0.00 0.00 0.00 0.00 0.00 0.00 0.00 0.00 0.00 0.00 0.00 0.00 0.00 0.00 0.00 0.00 0.00 0.00 0.00 0.01 0.01 0.01 0.01 0.01 0.01 0.01 0.01 0.01 0.01 0.01 0.02 0.00 0.01 0.01 0.01
0.00 0.00 0.00 0.00 0.00 0.00 0.00 0.00 0.00 0.00 0.01 0.00 0.01 0.00 0.00 0.00 0.00 0.00 0.00 0.00 0.00 0.00 0.00 0.00 0.00 0.00 0.00 0.00 0.00 0.00 0.00 0.00 0.01 0.02 0.00 0.00 0.00 0.00 0.00 0.00 0.00 0.00
0.00 0.00 0.00 0.00 0.00 0.00 0.01 0.01 0.01 0.00 0.00 0.00 0.00 0.00 0.00 0.00 0.00 0.00 0.00 0.00 0.00 0.00 0.00 0.00 0.00 0.00 0.00 0.00 0.00 0.00 0.00 0.00 0.01 0.00 0.01 0.00 0.00 0.00 0.00 0.00 0.00 0.00
0.00 0.00 0.00 0.00 0.00 0.00 0.01 0.01 0.00 0.01 0.00 0.00 0.00 0.00 0.00 0.00 0.00 0.00 0.00 0.00 0.00 0.00 0.00 0.00 0.01 0.01 0.00 0.00 0.00 0.00 0.00 0.00 0.00 0.00 0.00 0.00 0.00 0.00 0.00 0.00 0.00 0.00
0.05 0.03 0.00 0.00 0.00 0.03 0.03 0.10 0.04 0.01 0.01 0.00 0.00 0.00 0.00 0.00 0.00 0.00 0.00 0.00 0.01 0.02 0.03 0.03 0.02 0.02 0.02 0.00 0.00 0.00 0.00 0.00 0.00 0.00 0.00 0.00 0.00 0.00 0.00 0.00 0.00 0.00
0.08 0.06 0.02 0.01 0.03 0.08 0.05 0.05 0.04 0.05 0.03 0.01 0.00 0.01 0.03 0.06 0.04 0.04 0.08 0.11 0.12 0.09 0.07 0.06 0.04 0.02 0.00 0.00 0.00 0.00 0.00 0.00 0.00 0.00 0.00 0.00 0.00 0.00 0.00 0.00 0.00 0.00
0.08 0.07 0.07 0.13 0.08 0.03 0.06 0.02 0.01 0.00 0.00 0.01 0.02 0.05 0.06 0.07 0.10 0.16 0.19 0.18 0.14 0.11 0.08 0.06 0.02 0.00 0.00 0.00 0.00 0.00 0.00 0.00 0.00 0.00 0.00 0.00 0.00 0.00 0.00 0.00 0.00 0.00
0.36 0.37 0.27 0.23 0.07 0.07 0.16 0.22 0.12 0.01 0.02 0.03 0.04 0.11 0.22 0.20 0.24 0.23 0.20 0.17 0.13 0.10 0.05 0.01 0.00 0.00 0.00 0.00 0.00 0.00 0.00 0.00 0.00 0.00 0.00 0.00 0.00 0.00 0.00 0.00 0.00 0.01
0.23 0.70 0.74 0.30 0.25 0.19 0.21 0.13 0.23 0.14 0.12 0.15 0.29 0.30 0.29 0.31 0.28 0.26 0.22 0.15 0.07 0.02 0.00 0.01 0.00 0.00 0.00 0.00 0.00 0.00 0.00 0.00 0.00 0.00 0.00 0.00 0.01 0.01 0.00 0.00 0.00 0.00
0.32 0.55 0.91 0.54 0.19 0.42 0.34 0.21 0.36 0.30 0.35 0.37 0.26 0.38 0.41 0.33 0.22 0.14 0.07 0.04 0.02 0.01 0.00 0.00 0.00 0.00 0.00 0.00 0.00 0.00 0.00 0.00 0.00 0.00 0.00 0.00 0.02 0.03 0.01 0.01 0.00 0.00
0.17 0.40 0.56 0.81 0.53 1.45 1.84 0.57 0.60 0.70 0.68 0.54 0.37 0.35 0.25 0.16 0.11 0.07 0.05 0.03 0.01 0.01 0.01 0.00 0.00 0.00 0.00 0.00 0.00 0.00 0.00 0.00 0.00 0.00 0.00 0.00 0.00 0.00 0.01 0.00 0.00 0.02
0.54 0.26 0.30 0.36 1.16 1.25 1.26 1.39 0.80 0.38 0.28 0.30 0.26 0.17 0.13 0.13 0.11 0.10 0.07 0.04 0.02 0.01 0.01 0.00 0.00 0.00 0.00 0.00 0.00 0.00 0.00 0.00 0.00 0.00 0.00 0.00 0.01 0.00 0.01 0.00 0.00 0.00
0.88 1.09 0.70 0.31 0.56 1.27 1.30 1.08 0.78 0.47 0.26 0.12 0.09 0.09 0.11 0.10 0.12 0.12 0.09 0.06 0.04 0.02 0.01 0.00 0.00 0.00 0.00 0.00 0.00 0.00 0.00 0.00 0.00 0.00 0.00 0.00 0.00 0.00 0.00 0.01 0.01 0.04
0.74 0.23 0.40 0.60 1.17 1.48 0.87 1.15 0.56 0.54 0.60 0.49 0.17 0.22 0.11 0.10 0.13 0.14 0.12 0.09 0.05 0.03 0.02 0.01 0.01 0.00 0.00 0.00 0.00 0.00 0.00 0.00 0.00 0.00 0.00 0.00 0.00 0.00 0.00 0.01 0.06 0.08
0.42 0.46 0.62 1.40 1.57 1.82 1.08 0.30 0.42 0.19 0.41 0.65 0.43 0.21 0.30 0.20 0.16 0.15 0.13 0.11 0.08 0.06 0.05 0.03 0.02 0.01 0.01 0.00 0.00 0.01 0.01 0.01 0.00 0.01 0.00 0.01 0.01 0.02 0.01 0.00 0.02 0.05
0.32 0.22 0.53 1.14 1.41 1.27 0.79 0.60 0.27 0.33 0.28 0.45 0.47 0.67 0.69 0.50 0.23 0.19 0.07 0.06 0.05 0.05 0.05 0.05 0.04 0.02 0.01 0.01 0.00 0.00 0.00 0.00 0.00 0.01 0.02 0.02 0.02 0.02 0.02 0.02 0.14 0.47
0.32 0.18 0.23 1.18 0.85 0.77 0.44 0.21 0.27 0.43 0.56 0.99 1.02 0.47 0.29 0.23 0.09 0.05 0.10 0.22 0.16 0.15 0.12 0.08 0.05 0.03 0.01 0.01 0.01 0.02 0.01 0.02 0.02 0.01 0.02 0.01 0.02 0.01 0.02 0.07 0.12 0.37
0.18 0.38 0.28 0.31 0.65 0.78 0.57 0.43 0.59 0.80 0.80 1.29 0.82 0.13 0.17 0.05 0.04 0.06 0.05 0.11 0.09 0.04 0.03 0.03 0.05 0.05 0.06 0.04 0.04 0.02 0.02 0.02 0.01 0.01 0.04 0.03 0.05 0.08 0.04 0.12 0.24 0.20
0.08 0.07 0.06 0.05 0.08 0.59 0.82 0.86 0.67 0.77 0.97 0.74 0.23 0.21 0.04 0.05 0.05 0.05 0.06 0.06 0.03 0.04 0.04 0.06 0.06 0.03 0.19 0.29 0.34 0.02 0.02 0.03 0.03 0.03 0.08 0.06 0.08 0.30 0.30 0.25 0.05 0.05
0.08 0.05 0.06 0.06 0.08 0.21 0.65 1.32 0.87 0.50 0.37 0.48 0.15 0.10 0.06 0.06 0.04 0.06 0.08 0.04 0.02 0.07 0.04 0.05 0.06 0.17 0.30 0.38 0.71 0.83 0.98 0.86 0.21 0.11 0.09 0.27 0.16 0.29 0.23 0.07 0.12 0.06
0.23 0.16 0.04 0.05 0.07 0.08 0.55 1.15 1.55 0.86 0.30 0.21 0.16 0.35 0.11 0.09 0.05 0.11 0.08 0.10 0.07 0.13 0.07 0.02 0.06 0.22 0.60 0.26 0.62 1.01 0.47 0.57 0.59 0.19 0.09 0.05 0.05 0.11 0.18 0.16 0.05 0.09

ECMWFNIL_prec_precacc_090.txt.gz
Total_Precipitation_Accumulation
0.00 0.00 0.00 0.00 0.00 0.00 0.00 0.00 0.00 0.00 0.00 0.04 0.01 0.01 0.00 0.00 0.01 0.00 0.00 0.00 0.00 0.00 0.00 0.02 0.01 0.02 0.03 0.03 0.03 0.02 0.02 0.02 0.02 0.03 0.02 0.02 0.02 0.02 0.02 0.01 0.01 0.01
0.00 0.00 0.00 0.00 0.00 0.00 0.00 0.00 0.00 0.00 0.00 0.01 0.02 0.01 0.00 0.00 0.00 0.00 0.01 0.01 0.00 0.00 0.01 0.01 0.01 0.01 0.02 0.03 0.03 0.02 0.05 0.02 0.08 0.02 0.01 0.02 0.02 0.02 0.02 0.01 0.01 0.00
0.00 0.00 0.00 0.00 0.00 0.00 0.00 0.00 0.00 0.00 0.00 0.00 0.01 0.00 0.00 0.00 0.00 0.00 0.00 0.01 0.00 0.01 0.00 0.00 0.02 0.01 0.01 0.03 0.03 0.02 0.06 0.04 0.08 0.02 0.01 0.01 0.02 0.02 0.02 0.01 0.02 0.01
0.00 0.00 0.00 0.00 0.00 0.00 0.00 0.00 0.00 0.00 0.00 0.00 0.00 0.01 0.00 0.00 0.00 0.00 0.00 0.00 0.00 0.00 0.00 0.00 0.00 0.01 0.02 0.01 0.03 0.02 0.04 0.04 0.01 0.02 0.02 0.02 0.01 0.02 0.02 0.02 0.01 0.01
0.00 0.00 0.00 0.00 0.00 0.00 0.00 0.00 0.00 0.00 0.00 0.00 0.00 0.00 0.00 0.00 0.00 0.00 0.00 0.00 0.00 0.00 0.00 0.00 0.00 0.01 0.00 0.01 0.02 0.04 0.01 0.05 0.02 0.01 0.02 0.03 0.01 0.01 0.04 0.02 0.01 0.01
0.00 0.00 0.00 0.00 0.00 0.00 0.00 0.00 0.00 0.00 0.00 0.00 0.00 0.00 0.00 0.00 0.00 0.00 0.00 0.00 0.00 0.00 0.00 0.00 0.00 0.00 0.01 0.01 0.01 0.01 0.01 0.01 0.01 0.01 0.01 0.01 0.01 0.02 0.00 0.01 0.01 0.01
0.00 0.00 0.00 0.00 0.00 0.00 0.00 0.00 0.00 0.00 0.01 0.00 0.01 0.00 0.00 0.00 0.00 0.00 0.00 0.00 0.00 0.00 0.00 0.00 0.00 0.00 0.00 0.00 0.00 0.00 0.00 0.00 0.01 0.02 0.00 0.00 0.00 0.00 0.00 0.00 0.00 0.00
0.00 0.00 0.00 0.00 0.00 0.00 0.01 0.01 0.01 0.00 0.00 0.00 0.00 0.00 0.00 0.00 0.00 0.00 0.00 0.00 0.00 0.00 0.00 0.00 0.00 0.00 0.00 0.00 0.00 0.00 0.00 0.00 0.01 0.00 0.01 0.00 0.00 0.00 0.00 0.00 0.00 0.00
0.00 0.00 0.00 0.00 0.00 0.00 0.01 0.01 0.00 0.01 0.00 0.00 0.00 0.00 0.00 0.00 0.00 0.00 0.00 0.00 0.00 0.00 0.00 0.00 0.01 0.01 0.00 0.00 0.00 0.00 0.00 0.00 0.00 0.00 0.00 0.00 0.00 0.00 0.00 0.00 0.00 0.00
0.05 0.03 0.00 0.00 0.00 0.03 0.03 0.10 0.04 0.01 0.01 0.00 0.00 0.00 0.00 0.00 0.00 0.00 0.00 0.00 0.01 0.02 0.03 0.03 0.02 0.02 0.02 0.00 0.00 0.00 0.00 0.00 0.00 0.00 0.00 0.00 0.00 0.00 0.00 0.00 0.00 0.00
0.08 0.07 0.02 0.01 0.03 0.08 0.05 0.05 0.04 0.05 0.03 0.01 0.00 0.01 0.03 0.06 0.04 0.04 0.08 0.11 0.12 0.09 0.07 0.06 0.04 0.02 0.00 0.00 0.00 0.00 0.00 0.00 0.00 0.00 0.00 0.00 0.00 0.00 0.00 0.00 0.00 0.00
0.20 0.14 0.07 0.14 0.08 0.03 0.06 0.02 0.01 0.00 0.00 0.01 0.02 0.05 0.06 0.07 0.10 0.16 0.19 0.18 0.14 0.11 0.08 0.06 0.02 0.00 0.00 0.00 0.00 0.00 0.00 0.00 0.00 0.00 0.00 0.00 0.00 0.00 0.00 0.00 0.00 0.00
0.55 0.57 0.40 0.25 0.07 0.07 0.16 0.22 0.12 0.01 0.02 0.03 0.04 0.11 0.22 0.20 0.24 0.23 0.20 0.17 0.13 0.10 0.05 0.01 0.00 0.00 0.00 0.00 0.00 0.00 0.00 0.00 0.00 0.00 0.00 0.00 0.00 0.00 0.00 0.00 0.00 0.01
0.37 0.72 0.75 0.37 0.34 0.20 0.21 0.13 0.23 0.14 0.12 0.15 0.29 0.30 0.29 0.31 0.28 0.26 0.22 0.15 0.07 0.02 0.00 0.01 0.00 0.00 0.00 0.00 0.00 0.00 0.00 0.00 0.00 0.00 0.00 0.00 0.01 0.01 0.00 0.00 0.00 0.00
0.33 0.56 0.96 0.60 0.29 0.53 0.36 0.21 0.36 0.30 0.35 0.37 0.26 0.38 0.41 0.33 0.22 0.14 0.07 0.04 0.02 0.01 0.00 0.00 0.00 0.00 0.00 0.00 0.00 0.00 0.00 0.00 0.00 0.00 0.00 0.00 0.02 0.03 0.01 0.01 0.00 0.00
0.18 0.42 0.66 0.83 0.54 1.48 1.90 0.59 0.60 0.70 0.68 0.54 0.37 0.35 0.25 0.16 0.11 0.07 0.05 0.03 0.01 0.01 0.01 0.00 0.00 0.00 0.00 0.00 0.00 0.00 0.00 0.00 0.00 0.00 0.00 0.00 0.00 0.00 0.01 0.00 0.00 0.02
0.55 0.26 0.30 0.36 1.16 1.25 1.29 1.43 0.83 0.38 0.28 0.30 0.26 0.17 0.13 0.13 0.11 0.10 0.07 0.04 0.02 0.01 0.01 0.00 0.00 0.00 0.00 0.00 0.00 0.00 0.00 0.00 0.00 0.00 0.00 0.00 0.01 0.00 0.01 0.00 0.00 0.00
0.89 1.09 0.70 0.31 0.56 1.28 1.30 1.08 0.79 0.47 0.26 0.12 0.09 0.09 0.11 0.10 0.12 0.12 0.09 0.06 0.04 0.02 0.01 0.00 0.00 0.00 0.00 0.00 0.00 0.00 0.00 0.00 0.00 0.00 0.00 0.00 0.00 0.00 0.00 0.01 0.01 0.04
0.75 0.23 0.41 0.60 1.17 1.48 0.87 1.15 0.56 0.54 0.60 0.49 0.17 0.22 0.11 0.10 0.13 0.14 0.12 0.09 0.05 0.03 0.02 0.01 0.01 0.00 0.00 0.00 0.00 0.00 0.00 0.00 0.00 0.00 0.00 0.00 0.00 0.00 0.00 0.01 0.06 0.08
0.47 0.49 0.64 1.40 1.58 1.82 1.08 0.30 0.42 0.19 0.41 0.65 0.43 0.21 0.30 0.20 0.16 0.15 0.13 0.11 0.08 0.06 0.05 0.03 0.02 0.01 0.01 0.00 0.00 0.01 0.01 0.01 0.00 0.01 0.00 0.01 0.01 0.02 0.01 0.00 0.02 0.05
0.42 0.28 0.57 1.16 1.42 1.28 0.80 0.60 0.27 0.33 0.28 0.45 0.47 0.67 0.69 0.50 0.23 0.19 0.07 0.06 0.05 0.05 0.05 0.05 0.04 0.02 0.01 0.01 0.00 0.00 0.00 0.00 0.00 0.01 0.02 0.02 0.02 0.02 0.02 0.02 0.14 0.47
0.39 0.26 0.31 1.24 0.89 0.80 0.46 0.22 0.28 0.43 0.56 0.99 1.02 0.47 0.29 0.23 0.09 0.05 0.10 0.22 0.16 0.15 0.12 0.08 0.05 0.03 0.01 0.01 0.01 0.02 0.01 0.02 0.02 0.01 0.02 0.01 0.02 0.01 0.02 0.07 0.12 0.37
0.19 0.40 0.33 0.37 0.70 0.82 0.61 0.47 0.62 0.82 0.81 1.29 0.82 0.13 0.17 0.05 0.04 0.06 0.05 0.11 0.09 0.04 0.03 0.03 0.05 0.05 0.06 0.04 0.04 0.02 0.02 0.02 0.01 0.01 0.04 0.03 0.05 0.08 0.04 0.12 0.24 0.20
0.08 0.10 0.07 0.08 0.12 0.64 0.87 0.91 0.72 0.81 0.99 0.75 0.23 0.21 0.04 0.05 0.05 0.05 0.06 0.14 0.17 0.07 0.04 0.06 0.06 0.03 0.19 0.29 0.34 0.02 0.02 0.03 0.03 0.03 0.08 0.06 0.08 0.30 0.30 0.25 0.05 0.05
0.08 0.05 0.06 0.06 0.08 0.22 0.66 1.37 0.98 0.56 0.41 0.51 0.16 0.11 0.07 0.08 0.09 0.47 1.07 0.62 0.36 0.32 0.07 0.06 0.06 0.17 0.30 0.38 0.71 0.83 0.98 0.86 0.21 0.11 0.09 0.27 0.16 0.29 0.23 0.07 0.12 0.06
0.23 0.16 0.04 0.05 0.07 0.08 0.55 1.15 1.58 0.92 0.32 0.24 0.19 0.40 0.18 0.34 0.51 0.20 0.12 0.21 0.10 0.13 0.07 0.03 0.06 0.22 0.61 0.26 0.62 1.01 0.47 0.57 0.59 0.19 0.09 0.05 0.05 0.12 0.18 0.16 0.05 0.09

ECMWFNIL_prec_precacc_093.txt.gz
Total_Precipitation_Accumulation
0.00 0.00 0.00 0.00 0.00 0.00 0.00 0.00 0.00 0.00 0.00 0.04 0.01 0.01 0.00 0.00 0.01 0.00 0.00 0.00 0.00 0.00 0.00 0.02 0.01 0.02 0.03 0.03 0.03 0.02 0.02 0.02 0.02 0.03 0.02 0.02 0.02 0.02 0.02 0.01 0.01 0.01
0.00 0.00 0.00 0.00 0.00 0.00 0.00 0.00 0.00 0.00 0.00 0.01 0.02 0.01 0.00 0.00 0.00 0.00 0.01 0.01 0.00 0.00 0.01 0.01 0.01 0.01 0.02 0.03 0.03 0.02 0.05 0.02 0.08 0.02 0.01 0.02 0.02 0.02 0.02 0.01 0.01 0.00
0.00 0.00 0.00 0.00 0.00 0.00 0.00 0.00 0.00 0.00 0.00 0.00 0.01 0.00 0.00 0.00 0.00 0.00 0.00 0.01 0.00 0.01 0.00 0.00 0.02 0.01 0.01 0.03 0.03 0.02 0.06 0.04 0.08 0.02 0.01 0.01 0.02 0.02 0.02 0.01 0.02 0.01
0.00 0.00 0.00 0.00 0.00 0.00 0.00 0.00 0.00 0.00 0.00 0.00 0.00 0.01 0.00 0.00 0.00 0.00 0.00 0.00 0.00 0.00 0.00 0.00 0.00 0.01 0.02 0.01 0.03 0.02 0.04 0.04 0.01 0.02 0.02 0.02 0.01 0.02 0.02 0.02 0.01 0.01
0.00 0.00 0.00 0.00 0.00 0.00 0.00 0.00 0.00 0.00 0.00 0.00 0.00 0.00 0.00 0.00 0.00 0.00 0.00 0.00 0.00 0.00 0.00 0.00 0.00 0.01 0.00 0.01 0.02 0.04 0.01 0.05 0.02 0.01 0.02 0.03 0.01 0.01 0.04 0.02 0.01 0.01
0.00 0.00 0.00 0.00 0.00 0.00 0.00 0.00 0.00 0.00 0.00 0.00 0.00 0.00 0.00 0.00 0.00 0.00 0.00 0.00 0.00 0.00 0.00 0.00 0.00 0.00 0.01 0.01 0.01 0.01 0.01 0.01 0.01 0.01 0.01 0.01 0.01 0.02 0.00 0.01 0.01 0.01
0.00 0.00 0.00 0.00 0.00 0.00 0.00 0.00 0.00 0.00 0.01 0.00 0.01 0.00 0.00 0.00 0.00 0.00 0.00 0.00 0.00 0.00 0.00 0.00 0.00 0.00 0.00 0.00 0.00 0.00 0.00 0.00 0.01 0.02 0.00 0.00 0.00 0.00 0.00 0.00 0.00 0.00
0.00 0.00 0.00 0.00 0.00 0.00 0.01 0.01 0.01 0.00 0.00 0.00 0.00 0.00 0.00 0.00 0.00 0.00 0.00 0.00 0.00 0.00 0.00 0.00 0.00 0.00 0.00 0.00 0.00 0.00 0.00 0.00 0.01 0.00 0.01 0.00 0.00 0.00 0.00 0.00 0.00 0.00
0.00 0.00 0.00 0.00 0.00 0.00 0.01 0.01 0.00 0.01 0.00 0.00 0.00 0.00 0.00 0.00 0.00 0.00 0.00 0.00 0.00 0.00 0.00 0.00 0.01 0.01 0.00 0.00 0.00 0.00 0.00 0.00 0.00 0.00 0.00 0.00 0.00 0.00 0.00 0.00 0.00 0.00
0.05 0.03 0.00 0.00 0.00 0.03 0.03 0.10 0.04 0.01 0.01 0.00 0.00 0.00 0.00 0.00 0.00 0.00 0.00 0.00 0.01 0.02 0.03 0.03 0.02 0.02 0.02 0.00 0.00 0.00 0.00 0.00 0.00 0.00 0.00 0.00 0.00 0.00 0.00 0.00 0.00 0.00
0.08 0.07 0.02 0.01 0.03 0.08 0.05 0.05 0.04 0.05 0.03 0.01 0.00 0.01 0.03 0.06 0.04 0.04 0.08 0.11 0.12 0.09 0.07 0.06 0.04 0.02 0.00 0.00 0.00 0.00 0.00 0.00 0.00 0.00 0.00 0.00 0.00 0.00 0.00 0.00 0.00 0.00
0.20 0.14 0.07 0.14 0.08 0.03 0.06 0.02 0.01 0.00 0.00 0.01 0.02 0.05 0.06 0.07 0.10 0.16 0.19 0.18 0.14 0.11 0.08 0.06 0.02 0.00 0.00 0.00 0.00 0.00 0.00 0.00 0.00 0.00 0.00 0.00 0.00 0.00 0.00 0.00 0.00 0.00
0.55 0.57 0.40 0.25 0.07 0.07 0.16 0.22 0.12 0.01 0.02 0.03 0.04 0.11 0.22 0.20 0.24 0.23 0.20 0.17 0.13 0.10 0.05 0.01 0.00 0.00 0.00 0.00 0.00 0.00 0.00 0.00 0.00 0.00 0.00 0.00 0.00 0.00 0.00 0.00 0.00 0.01
0.37 0.72 0.75 0.37 0.34 0.20 0.21 0.13 0.23 0.14 0.12 0.15 0.29 0.30 0.29 0.31 0.28 0.26 0.22 0.15 0.07 0.02 0.00 0.01 0.00 0.00 0.00 0.00 0.00 0.00 0.00 0.00 0.00 0.00 0.00 0.00 0.01 0.01 0.00 0.00 0.00 0.00
0.33 0.57 0.96 0.60 0.29 0.53 0.36 0.21 0.36 0.30 0.35 0.37 0.26 0.38 0.41 0.33 0.22 0.14 0.07 0.04 0.02 0.01 0.00 0.00 0.00 0.00 0.00 0.00 0.00 0.00 0.00 0.00 0.00 0.00 0.00 0.00 0.02 0.03 0.01 0.01 0.00 0.00
0.19 0.42 0.66 0.83 0.54 1.48 1.90 0.59 0.60 0.70 0.68 0.54 0.37 0.35 0.25 0.16 0.11 0.07 0.05 0.03 0.01 0.01 0.01 0.00 0.00 0.00 0.00 0.00 0.00 0.00 0.00 0.00 0.00 0.00 0.00 0.00 0.00 0.00 0.01 0.00 0.00 0.02
0.56 0.26 0.30 0.36 1.16 1.25 1.29 1.43 0.83 0.38 0.28 0.30 0.26 0.17 0.13 0.13 0.11 0.10 0.07 0.04 0.02 0.01 0.01 0.00 0.00 0.00 0.00 0.00 0.00 0.00 0.00 0.00 0.00 0.00 0.00 0.00 0.01 0.00 0.01 0.00 0.00 0.00
0.96 1.10 0.70 0.31 0.56 1.28 1.30 1.08 0.79 0.47 0.26 0.12 0.09 0.09 0.11 0.10 0.12 0.12 0.09 0.06 0.04 0.02 0.01 0.00 0.00 0.00 0.00 0.00 0.00 0.00 0.00 0.00 0.00 0.00 0.00 0.00 0.00 0.00 0.00 0.01 0.01 0.04
0.98 0.41 0.48 0.60 1.17 1.48 0.87 1.15 0.56 0.54 0.60 0.49 0.17 0.22 0.11 0.10 0.13 0.14 0.12 0.09 0.05 0.03 0.02 0.01 0.01 0.00 0.00 0.00 0.00 0.00 0.00 0.00 0.00 0.00 0.00 0.00 0.00 0.00 0.00 0.01 0.06 0.08
0.76 0.64 0.68 1.48 1.59 1.82 1.08 0.30 0.42 0.19 0.41 0.65 0.43 0.21 0.30 0.20 0.16 0.15 0.13 0.11 0.08 0.06 0.05 0.03 0.02 0.01 0.01 0.00 0.00 0.01 0.01 0.01 0.00 0.01 0.00 0.01 0.01 0.02 0.01 0.00 0.02 0.05
0.94 0.68 0.94 1.35 1.55 1.36 0.85 0.72 0.31 0.34 0.28 0.45 0.47 0.67 0.69 0.50 0.23 0.19 0.07 0.06 0.05 0.05 0.05 0.05 0.04 0.02 0.01 0.01 0.00 0.00 0.00 0.00 0.00 0.01 0.02 0.02 0.02 0.02 0.02 0.02 0.14 0.47
0.64 0.56 0.65 1.68 1.38 1.11 0.56 0.30 0.39 0.52 0.62 1.01 1.02 0.49 0.32 0.24 0.09 0.05 0.10 0.22 0.16 0.15 0.12 0.08 0.05 0.03 0.01 0.01 0.01 0.02 0.01 0.02 0.02 0.01 0.02 0.01 0.02 0.01 0.02 0.07 0.12 0.37
0.40 0.67 0.58 0.62 0.96 1.06 0.85 0.68 0.77 0.91 0.83 1.31 0.84 0.20 0.18 0.07 0.09 0.07 0.05 0.37 0.15 0.04 0.04 0.03 0.05 0.05 0.06 0.04 0.04 0.02 0.02 0.02 0.01 0.01 0.04 0.03 0.05 0.08 0.04 0.12 0.24 0.20
0.39 0.23 0.37 0.38 0.30 0.73 0.93 0.96 0.82 0.88 1.24 1.16 0.68 0.63 0.26 0.26 0.21 0.10 0.10 0.58 0.48 0.19 0.05 0.06 0.06 0.03 0.19 0.29 0.34 0.02 0.02 0.03 0.03 0.03 0.08 0.06 0.08 0.30 0.30 0.25 0.05 0.05
0.08 0.05 0.08 0.36 0.27 0.37 0.80 1.43 1.02 0.62 0.61 0.73 0.37 0.37 0.32 0.14 0.31 0.71 1.35 0.85 0.39 0.33 0.07 0.07 0.06 0.17 0.30 0.38 0.71 0.83 0.98 0.86 0.21 0.11 0.09 0.27 0.16 0.29 0.23 0.07 0.12 0.06
0.23 0.16 0.06 0.05 0.07 0.09 0.55 1.15 1.59 1.05 0.47 0.32 0.38 0.59 0.46 0.63 0.70 0.27 0.16 0.22 0.15 0.18 0.08 0.03 0.15 0.29 0.62 0.27 0.62 1.01 0.47 0.57 0.59 0.19 0.09 0.05 0.05 0.12 0.18 0.16 0.05 0.09

ECMWFNIL_prec_precacc_096.txt.gz
Total_Precipitation_Accumulation
0.00 0.00 0.00 0.00 0.00 0.00 0.00 0.00 0.00 0.00 0.00 0.04 0.01 0.01 0.00 0.00 0.01 0.00 0.00 0.00 0.00 0.00 0.00 0.02 0.01 0.02 0.03 0.03 0.03 0.02 0.02 0.02 0.02 0.03 0.02 0.02 0.02 0.02 0.02 0.01 0.01 0.01
0.00 0.00 0.00 0.00 0.00 0.00 0.00 0.00 0.00 0.00 0.00 0.01 0.02 0.01 0.00 0.00 0.00 0.00 0.01 0.01 0.00 0.00 0.01 0.01 0.01 0.01 0.02 0.03 0.03 0.02 0.05 0.02 0.08 0.02 0.01 0.02 0.02 0.02 0.02 0.01 0.01 0.00
0.00 0.00 0.00 0.00 0.00 0.00 0.00 0.00 0.00 0.00 0.00 0.00 0.01 0.00 0.00 0.00 0.00 0.00 0.00 0.01 0.00 0.01 0.00 0.00 0.02 0.01 0.01 0.03 0.03 0.02 0.06 0.04 0.08 0.02 0.01 0.01 0.02 0.02 0.02 0.01 0.02 0.01
0.00 0.00 0.00 0.00 0.00 0.00 0.00 0.00 0.00 0.00 0.00 0.00 0.00 0.01 0.00 0.00 0.00 0.00 0.00 0.00 0.00 0.00 0.00 0.00 0.00 0.01 0.02 0.01 0.03 0.02 0.04 0.04 0.01 0.02 0.02 0.02 0.01 0.02 0.02 0.02 0.01 0.01
0.00 0.00 0.00 0.00 0.00 0.00 0.00 0.00 0.00 0.00 0.00 0.00 0.00 0.00 0.00 0.00 0.00 0.00 0.00 0.00 0.00 0.00 0.00 0.00 0.00 0.01 0.00 0.01 0.02 0.04 0.01 0.05 0.02 0.01 0.02 0.03 0.01 0.01 0.04 0.02 0.01 0.01
0.00 0.00 0.00 0.00 0.00 0.00 0.00 0.00 0.00 0.00 0.00 0.00 0.00 0.00 0.00 0.00 0.00 0.00 0.00 0.00 0.00 0.00 0.00 0.00 0.00 0.00 0.01 0.01 0.01 0.01 0.01 0.01 0.01 0.01 0.01 0.01 0.01 0.02 0.00 0.01 0.01 0.01
0.00 0.00 0.00 0.00 0.00 0.00 0.00 0.00 0.00 0.00 0.01 0.00 0.01 0.00 0.00 0.00 0.00 0.00 0.00 0.00 0.00 0.00 0.00 0.00 0.00 0.00 0.00 0.00 0.00 0.00 0.00 0.00 0.01 0.02 0.00 0.00 0.00 0.00 0.00 0.00 0.00 0.00
0.00 0.00 0.00 0.00 0.00 0.00 0.01 0.01 0.01 0.00 0.00 0.00 0.00 0.00 0.00 0.00 0.00 0.00 0.00 0.00 0.00 0.00 0.00 0.00 0.00 0.00 0.00 0.00 0.00 0.00 0.00 0.00 0.01 0.00 0.01 0.00 0.00 0.00 0.00 0.00 0.00 0.00
0.00 0.00 0.00 0.00 0.00 0.00 0.01 0.01 0.00 0.01 0.00 0.00 0.00 0.00 0.00 0.00 0.00 0.00 0.00 0.00 0.00 0.00 0.00 0.00 0.01 0.01 0.00 0.00 0.00 0.00 0.00 0.00 0.00 0.00 0.00 0.00 0.00 0.00 0.00 0.00 0.00 0.00
0.05 0.03 0.00 0.00 0.00 0.03 0.03 0.10 0.04 0.01 0.01 0.00 0.00 0.00 0.00 0.00 0.00 0.00 0.00 0.00 0.01 0.02 0.03 0.03 0.02 0.02 0.02 0.00 0.00 0.00 0.00 0.00 0.00 0.00 0.00 0.00 0.00 0.00 0.00 0.00 0.00 0.00
0.08 0.07 0.02 0.01 0.03 0.08 0.05 0.05 0.04 0.05 0.03 0.01 0.00 0.01 0.03 0.06 0.04 0.04 0.08 0.11 0.12 0.09 0.07 0.06 0.04 0.02 0.00 0.00 0.00 0.00 0.00 0.00 0.00 0.00 0.00 0.00 0.00 0.00 0.00 0.00 0.00 0.00
0.20 0.14 0.07 0.14 0.08 0.03 0.06 0.02 0.01 0.00 0.00 0.01 0.02 0.05 0.06 0.07 0.10 0.16 0.19 0.18 0.14 0.11 0.08 0.06 0.02 0.00 0.00 0.00 0.00 0.00 0.00 0.00 0.00 0.00 0.00 0.00 0.00 0.00 0.00 0.00 0.00 0.00
0.55 0.57 0.40 0.25 0.07 0.07 0.16 0.22 0.12 0.01 0.02 0.03 0.04 0.11 0.22 0.20 0.24 0.23 0.20 0.17 0.13 0.10 0.05 0.01 0.00 0.00 0.00 0.00 0.00 0.00 0.00 0.00 0.00 0.00 0.00 0.00 0.00 0.00 0.00 0.00 0.00 0.01
0.37 0.72 0.75 0.37 0.34 0.20 0.21 0.13 0.23 0.14 0.12 0.15 0.29 0.30 0.29 0.31 0.28 0.26 0.22 0.15 0.07 0.02 0.00 0.01 0.00 0.00 0.00 0.00 0.00 0.00 0.00 0.00 0.00 0.00 0.00 0.00 0.01 0.01 0.00 0.00 0.00 0.00
0.34 0.58 0.99 0.62 0.30 0.53 0.36 0.21 0.36 0.30 0.35 0.37 0.26 0.38 0.41 0.33 0.22 0.14 0.07 0.04 0.02 0.01 0.00 0.00 0.00 0.00 0.00 0.00 0.00 0.00 0.00 0.00 0.00 0.00 0.00 0.00 0.02 0.03 0.01 0.01 0.00 0.00
0.58 0.84 0.90 0.86 0.56 1.51 1.92 0.61 0.60 0.70 0.68 0.54 0.37 0.35 0.25 0.16 0.11 0.07 0.05 0.03 0.01 0.01 0.01 0.00 0.00 0.00 0.00 0.00 0.00 0.00 0.00 0.00 0.00 0.00 0.00 0.00 0.00 0.00 0.01 0.00 0.00 0.02
1.10 0.57 0.59 0.59 1.30 1.29 1.31 1.47 0.85 0.38 0.28 0.30 0.26 0.17 0.13 0.13 0.11 0.10 0.07 0.04 0.02 0.01 0.01 0.00 0.00 0.00 0.00 0.00 0.00 0.00 0.00 0.00 0.00 0.00 0.00 0.00 0.01 0.00 0.01 0.00 0.00 0.00
1.22 1.29 0.94 0.54 0.80 1.51 1.44 1.10 0.80 0.49 0.26 0.14 0.09 0.09 0.11 0.10 0.12 0.12 0.09 0.06 0.04 0.02 0.01 0.00 0.00 0.00 0.00 0.00 0.00 0.00 0.00 0.00 0.00 0.00 0.00 0.00 0.00 0.00 0.00 0.01 0.01 0.04
1.20 0.62 0.66 0.75 1.30 1.61 0.99 1.21 0.57 0.56 0.64 0.52 0.19 0.24 0.14 0.10 0.13 0.14 0.12 0.09 0.05 0.03 0.02 0.01 0.01 0.00 0.00 0.00 0.00 0.00 0.00 0.00 0.00 0.00 0.00 0.00 0.00 0.00 0.00 0.01 0.06 0.08
1.00 0.92 0.90 1.65 1.73 1.95 1.18 0.45 0.55 0.44 0.76 0.99 0.59 0.36 0.33 0.21 0.16 0.15 0.13 0.11 0.08 0.06 0.05 0.03 0.02 0.01 0.01 0.00 0.00 0.01 0.01 0.01 0.00 0.01 0.00 0.01 0.01 0.02 0.01 0.00 0.02 0.05
1.13 0.92 1.26 1.70 1.84 1.59 0.97 1.05 0.92 0.89 0.69 0.90 0.71 0.95 0.74 0.53 0.24 0.19 0.07 0.06 0.05 0.05 0.05 0.05 0.04 0.02 0.01 0.01 0.00 0.00 0.00 0.00 0.00 0.01 0.02 0.02 0.02 0.02 0.02 0.02 0.14 0.47
0.88 0.81 0.96 1.97 1.61 1.22 0.73 0.48 0.62 0.72 1.07 1.39 1.36 1.07 0.62 0.31 0.09 0.06 0.10 0.22 0.16 0.15 0.12 0.08 0.05 0.03 0.01 0.01 0.01 0.02 0.01 0.02 0.02 0.01 0.02 0.01 0.02 0.01 0.02 0.07 0.12 0.37
0.65 0.88 0.72 0.74 1.13 1.22 1.09 0.86 1.00 1.21 1.09 1.63 1.14 0.37 0.20 0.08 0.09 0.07 0.05 0.38 0.20 0.08 0.04 0.03 0.05 0.05 0.06 0.04 0.04 0.02 0.02 0.02 0.01 0.01 0.04 0.03 0.05 0.08 0.04 0.12 0.24 0.20
0.57 0.60 0.98 0.79 0.54 0.84 1.06 1.09 0.96 1.07 1.49 1.40 0.74 0.67 0.30 0.29 0.23 0.11 0.10 0.61 0.58 0.28 0.06 0.06 0.06 0.03 0.19 0.29 0.34 0.02 0.02 0.03 0.03 0.03 0.08 0.06 0.08 0.30 0.30 0.25 0.05 0.05
0.15 0.33 0.41 0.54 0.74 0.62 0.97 1.58 1.16 0.88 0.93 0.79 0.45 0.41 0.41 0.24 0.43 0.89 1.55 1.01 0.47 0.34 0.08 0.07 0.06 0.18 0.30 0.38 0.71 0.84 0.98 0.86 0.21 0.11 0.09 0.27 0.16 0.29 0.23 0.07 0.12 0.06
0.23 0.22 0.20 0.27 0.11 0.19 0.75 1.40 2.14 1.67 0.86 0.59 0.58 0.84 0.69 0.83 0.95 0.61 0.42 0.35 0.31 0.24 0.08 0.03 0.15 0.31 0.62 0.27 0.63 1.01 0.47 0.57 0.59 0.19 0.09 0.05 0.05 0.12 0.18 0.16 0.05 0.09

ECMWFNIL_prec_precacc_099.txt.gz
Total_Precipitation_Accumulation
0.00 0.00 0.00 0.00 0.00 0.00 0.00 0.00 0.00 0.00 0.00 0.04 0.01 0.01 0.00 0.00 0.01 0.00 0.00 0.00 0.00 0.00 0.01 0.02 0.01 0.03 0.03 0.03 0.03 0.02 0.02 0.02 0.02 0.03 0.03 0.02 0.02 0.02 0.02 0.01 0.01 0.01
0.00 0.00 0.00 0.00 0.00 0.00 0.00 0.00 0.00 0.00 0.00 0.01 0.02 0.01 0.00 0.00 0.00 0.00 0.01 0.01 0.00 0.00 0.01 0.01 0.02 0.01 0.02 0.03 0.04 0.03 0.05 0.02 0.08 0.02 0.02 0.02 0.02 0.02 0.02 0.01 0.01 0.00
0.00 0.00 0.00 0.00 0.00 0.00 0.00 0.00 0.00 0.00 0.00 0.00 0.01 0.00 0.00 0.00 0.00 0.00 0.00 0.01 0.00 0.01 0.01 0.01 0.03 0.01 0.01 0.03 0.03 0.03 0.06 0.04 0.08 0.02 0.01 0.02 0.02 0.02 0.02 0.01 0.02 0.01
0.00 0.00 0.00 0.00 0.00 0.00 0.00 0.00 0.00 0.00 0.00 0.00 0.00 0.01 0.00 0.00 0.00 0.00 0.00 0.00 0.00 0.00 0.00 0.01 0.01 0.02 0.02 0.01 0.03 0.02 0.04 0.04 0.01 0.02 0.02 0.02 0.01 0.02 0.02 0.02 0.01 0.01
0.00 0.00 0.00 0.00 0.00 0.00 0.00 0.00 0.00 0.00 0.00 0.00 0.00 0.00 0.00 0.00 0.00 0.00 0.00 0.00 0.00 0.00 0.00 0.00 0.01 0.01 0.01 0.02 0.02 0.05 0.02 0.05 0.02 0.01 0.02 0.03 0.01 0.01 0.04 0.02 0.01 0.01
0.00 0.00 0.00 0.00 0.00 0.00 0.00 0.00 0.00 0.00 0.00 0.00 0.00 0.00 0.00 0.00 0.00 0.00 0.00 0.00 0.00 0.00 0.00 0.00 0.00 0.00 0.01 0.01 0.01 0.01 0.02 0.02 0.01 0.01 0.01 0.01 0.01 0.02 0.01 0.01 0.01 0.01
0.00 0.00 0.00 0.00 0.00 0.00 0.00 0.00 0.00 0.00 0.01 0.00 0.01 0.00 0.00 0.00 0.00 0.00 0.00 0.00 0.00 0.00 0.00 0.00 0.00 0.00 0.00 0.01 0.01 0.01 0.01 0.01 0.02 0.02 0.01 0.01 0.00 0.00 0.00 0.00 0.01 0.00
0.00 0.00 0.00 0.00 0.00 0.00 0.01 0.01 0.01 0.00 0.00 0.00 0.00 0.00 0.00 0.00 0.00 0.00 0.00 0.00 0.00 0.00 0.00 0.00 0.00 0.00 0.00 0.00 0.00 0.00 0.01 0.00 0.01 0.00 0.01 0.00 0.00 0.00 0.00 0.00 0.00 0.01
0.00 0.00 0.00 0.00 0.00 0.00 0.01 0.01 0.00 0.01 0.00 0.00 0.00 0.00 0.00 0.00 0.00 0.00 0.00 0.00 0.00 0.00 0.00 0.00 0.01 0.01 0.01 0.00 0.00 0.00 0.00 0.00 0.00 0.00 0.00 0.00 0.00 0.00 0.00 0.00 0.00 0.00
0.05 0.03 0.00 0.00 0.00 0.03 0.03 0.10 0.04 0.01 0.01 0.00 0.00 0.00 0.00 0.00 0.00 0.00 0.00 0.00 0.01 0.02 0.03 0.03 0.02 0.02 0.02 0.00 0.00 0.00 0.00 0.00 0.00 0.00 0.00 0.00 0.00 0.00 0.00 0.00 0.00 0.00
0.08 0.07 0.02 0.01 0.03 0.08 0.05 0.05 0.04 0.05 0.03 0.01 0.00 0.01 0.03 0.06 0.04 0.04 0.08 0.11 0.12 0.09 0.07 0.06 0.04 0.02 0.00 0.00 0.00 0.00 0.00 0.00 0.00 0.00 0.00 0.00 0.00 0.00 0.00 0.00 0.00 0.00
0.20 0.14 0.07 0.14 0.08 0.03 0.06 0.02 0.01 0.00 0.00 0.01 0.02 0.05 0.06 0.07 0.10 0.16 0.19 0.18 0.14 0.11 0.08 0.06 0.02 0.00 0.00 0.00 0.00 0.00 0.00 0.00 0.00 0.00 0.00 0.00 0.00 0.00 0.00 0.00 0.00 0.00
0.55 0.57 0.40 0.25 0.07 0.07 0.16 0.22 0.12 0.01 0.02 0.03 0.04 0.11 0.22 0.20 0.24 0.23 0.20 0.17 0.13 0.10 0.05 0.01 0.00 0.00 0.00 0.00 0.00 0.00 0.00 0.00 0.00 0.00 0.00 0.00 0.00 0.00 0.00 0.00 0.00 0.01
0.37 0.72 0.75 0.37 0.34 0.20 0.21 0.13 0.23 0.14 0.12 0.15 0.29 0.30 0.29 0.31 0.28 0.26 0.22 0.15 0.07 0.02 0.00 0.01 0.00 0.00 0.00 0.00 0.00 0.00 0.00 0.00 0.00 0.00 0.00 0.00 0.01 0.01 0.00 0.00 0.00 0.00
0.34 0.58 0.99 0.62 0.30 0.53 0.36 0.21 0.36 0.30 0.35 0.37 0.26 0.38 0.41 0.33 0.22 0.14 0.07 0.04 0.02 0.01 0.00 0.00 0.00 0.00 0.00 0.00 0.00 0.00 0.00 0.00 0.00 0.00 0.00 0.00 0.02 0.03 0.01 0.01 0.00 0.00
0.59 0.84 0.90 0.86 0.56 1.51 1.92 0.61 0.60 0.70 0.68 0.54 0.37 0.35 0.25 0.16 0.11 0.07 0.05 0.03 0.01 0.01 0.01 0.00 0.00 0.00 0.00 0.00 0.00 0.00 0.00 0.00 0.00 0.00 0.00 0.00 0.00 0.00 0.01 0.00 0.00 0.02
1.33 0.78 0.65 0.60 1.31 1.29 1.31 1.47 0.85 0.39 0.29 0.30 0.26 0.17 0.13 0.13 0.11 0.10 0.07 0.04 0.02 0.01 0.01 0.00 0.00 0.00 0.00 0.00 0.00 0.00 0.00 0.00 0.00 0.00 0.00 0.00 0.01 0.00 0.01 0.00 0.00 0.00
1.36 1.53 1.17 0.73 0.93 1.59 1.45 1.10 0.80 0.49 0.26 0.14 0.10 0.10 0.11 0.10 0.12 0.12 0.09 0.06 0.04 0.02 0.01 0.00 0.00 0.00 0.00 0.00 0.00 0.00 0.00 0.00 0.00 0.00 0.00 0.00 0.00 0.00 0.00 0.01 0.01 0.04
1.46 0.96 0.85 0.95 1.48 1.75 1.12 1.25 0.57 0.56 0.64 0.53 0.20 0.24 0.14 0.10 0.13 0.14 0.12 0.09 0.05 0.03 0.02 0.01 0.01 0.00 0.00 0.00 0.00 0.00 0.00 0.00 0.00 0.00 0.00 0.00 0.00 0.00 0.00 0.01 0.06 0.08
1.13 1.21 1.15 1.84 1.93 2.15 1.29 0.52 0.61 0.46 0.76 0.99 0.59 0.36 0.33 0.21 0.16 0.15 0.13 0.11 0.08 0.06 0.05 0.03 0.02 0.02 0.01 0.00 0.00 0.01 0.01 0.01 0.00 0.01 0.00 0.01 0.01 0.02 0.01 0.00 0.02 0.05
1.25 1.09 1.53 1.87 2.06 1.83 1.18 1.20 0.99 0.93 0.71 0.90 0.71 0.95 0.74 0.53 0.24 0.19 0.07 0.06 0.05 0.05 0.05 0.05 0.04 0.02 0.01 0.01 0.00 0.00 0.00 0.00 0.00 0.01 0.02 0.02 0.02 0.02 0.02 0.02 0.14 0.47
1.07 1.05 1.25 2.23 1.84 1.41 0.94 0.69 0.78 0.81 1.11 1.41 1.38 1.07 0.62 0.31 0.10 0.06 0.10 0.24 0.17 0.17 0.12 0.08 0.05 0.03 0.01 0.01 0.01 0.02 0.01 0.02 0.02 0.01 0.02 0.01 0.02 0.01 0.02 0.07 0.12 0.37
1.17 1.59 1.05 1.01 1.43 1.49 1.30 1.06 1.26 1.48 1.20 1.71 1.22 0.43 0.24 0.11 0.11 0.08 0.05 0.43 0.30 0.09 0.09 0.04 0.05 0.05 0.06 0.04 0.04 0.02 0.02 0.02 0.01 0.01 0.04 0.03 0.05 0.08 0.04 0.12 0.24 0.20
1.47 1.11 1.42 1.29 1.01 1.22 1.37 1.45 1.29 1.35 1.72 1.59 0.88 0.79 0.42 0.40 0.31 0.16 0.21 0.90 1.00 0.36 0.12 0.14 0.07 0.04 0.19 0.29 0.34 0.02 0.02 0.03 0.03 0.03 0.08 0.06 0.08 0.30 0.30 0.25 0.05 0.05
0.62 0.60 0.52 1.16 1.19 1.05 1.41 1.91 1.61 1.36 1.16 0.97 0.65 0.59 0.56 0.37 0.54 0.96 1.71 1.25 0.74 0.52 0.29 0.17 0.21 0.37 0.36 0.38 0.71 0.84 0.98 0.86 0.21 0.11 0.09 0.27 0.16 0.29 0.23 0.07 0.12 0.06
0.24 0.28 0.26 0.92 0.19 0.42 1.51 1.80 2.59 2.01 1.05 0.83 0.80 1.06 0.91 1.03 1.22 0.96 0.79 0.73 0.50 0.37 0.23 0.18 0.22 0.40 0.74 0.27 0.63 1.01 0.47 0.58 0.60 0.20 0.10 0.06 0.05 0.12 0.18 0.16 0.05 0.09

ECMWFNIL_prec_precacc_102.txt.gz
Total_Precipitation_Accumulation
0.00 0.00 0.00 0.00 0.00 0.00 0.01 0.01 0.00 0.00 0.01 0.04 0.01 0.01 0.00 0.00 0.01 0.00 0.00 0.01 0.01 0.01 0.01 0.03 0.02 0.03 0.04 0.03 0.04 0.03 0.03 0.02 0.02 0.03 0.03 0.02 0.02 0.02 0.02 0.01 0.01 0.01
0.00 0.00 0.00 0.00 0.00 0.00 0.01 0.01 0.01 0.00 0.01 0.02 0.02 0.01 0.01 0.00 0.00 0.00 0.01 0.01 0.01 0.00 0.01 0.02 0.02 0.02 0.03 0.04 0.04 0.03 0.05 0.02 0.08 0.02 0.02 0.02 0.02 0.02 0.02 0.01 0.01 0.00
0.00 0.00 0.00 0.00 0.00 0.00 0.00 0.00 0.00 0.01 0.00 0.00 0.02 0.01 0.00 0.00 0.00 0.00 0.00 0.01 0.00 0.01 0.01 0.01 0.04 0.02 0.02 0.04 0.04 0.03 0.07 0.05 0.09 0.02 0.01 0.02 0.02 0.02 0.02 0.01 0.02 0.01
0.00 0.00 0.00 0.00 0.00 0.00 0.00 0.00 0.00 0.00 0.00 0.01 0.00 0.01 0.00 0.00 0.00 0.00 0.00 0.00 0.00 0.01 0.01 0.01 0.01 0.02 0.02 0.02 0.04 0.03 0.04 0.04 0.01 0.02 0.02 0.02 0.02 0.02 0.02 0.02 0.01 0.01
0.00 0.00 0.00 0.00 0.00 0.00 0.00 0.00 0.00 0.00 0.00 0.00 0.00 0.00 0.00 0.01 0.00 0.00 0.00 0.00 0.00 0.00 0.01 0.01 0.01 0.02 0.01 0.02 0.03 0.05 0.02 0.05 0.02 0.01 0.02 0.03 0.02 0.01 0.04 0.02 0.01 0.01
0.00 0.00 0.00 0.00 0.00 0.00 0.00 0.00 0.00 0.00 0.00 0.00 0.00 0.00 0.00 0.00 0.00 0.00 0.00 0.00 0.00 0.00 0.00 0.00 0.00 0.00 0.01 0.01 0.01 0.02 0.02 0.02 0.01 0.01 0.01 0.01 0.01 0.02 0.01 0.01 0.01 0.01
0.00 0.00 0.00 0.00 0.00 0.00 0.00 0.00 0.00 0.00 0.01 0.00 0.01 0.00 0.00 0.00 0.00 0.00 0.00 0.00 0.00 0.00 0.00 0.00 0.00 0.00 0.00 0.01 0.01 0.01 0.01 0.01 0.02 0.03 0.01 0.01 0.01 0.01 0.00 0.01 0.01 0.01
0.00 0.00 0.00 0.00 0.00 0.00 0.01 0.01 0.01 0.00 0.00 0.00 0.00 0.00 0.00 0.00 0.00 0.00 0.00 0.00 0.00 0.00 0.00 0.00 0.00 0.00 0.00 0.00 0.00 0.00 0.01 0.01 0.01 0.01 0.01 0.01 0.01 0.01 0.01 0.00 0.01 0.01
0.00 0.00 0.00 0.00 0.00 0.00 0.01 0.01 0.00 0.01 0.00 0.00 0.00 0.00 0.00 0.00 0.00 0.00 0.00 0.00 0.00 0.00 0.01 0.01 0.01 0.01 0.01 0.01 0.00 0.00 0.00 0.00 0.00 0.00 0.00 0.00 0.00 0.00 0.00 0.00 0.01 0.00
0.05 0.03 0.00 0.00 0.00 0.03 0.03 0.10 0.04 0.01 0.01 0.00 0.00 0.00 0.00 0.00 0.00 0.00 0.00 0.01 0.01 0.03 0.04 0.03 0.03 0.03 0.02 0.00 0.00 0.00 0.00 0.00 0.00 0.00 0.00 0.00 0.00 0.00 0.01 0.00 0.01 0.01
0.08 0.07 0.02 0.01 0.03 0.08 0.05 0.05 0.04 0.05 0.03 0.01 0.00 0.01 0.03 0.06 0.04 0.04 0.08 0.12 0.12 0.10 0.08 0.06 0.04 0.02 0.01 0.00 0.00 0.00 0.00 0.00 0.00 0.00 0.00 0.00 0.00 0.00 0.00 0.00 0.00 0.00
0.20 0.14 0.07 0.14 0.08 0.03 0.06 0.02 0.01 0.00 0.00 0.01 0.02 0.05 0.06 0.07 0.10 0.16 0.19 0.18 0.15 0.11 0.08 0.06 0.02 0.00 0.00 0.00 0.00 0.00 0.00 0.00 0.00 0.00 0.00 0.00 0.00 0.00 0.00 0.00 0.00 0.00
0.55 0.57 0.40 0.25 0.07 0.07 0.16 0.22 0.12 0.01 0.02 0.03 0.04 0.11 0.22 0.20 0.24 0.23 0.20 0.17 0.13 0.10 0.05 0.01 0.00 0.00 0.00 0.00 0.00 0.00 0.00 0.00 0.00 0.00 0.00 0.00 0.00 0.00 0.00 0.00 0.00 0.01
0.37 0.72 0.75 0.37 0.34 0.20 0.21 0.13 0.23 0.14 0.12 0.15 0.29 0.30 0.29 0.31 0.28 0.26 0.22 0.15 0.07 0.02 0.00 0.01 0.00 0.00 0.00 0.00 0.00 0.00 0.00 0.00 0.00 0.00 0.00 0.00 0.01 0.01 0.00 0.00 0.00 0.00
0.36 0.59 0.99 0.62 0.30 0.53 0.36 0.21 0.36 0.30 0.35 0.37 0.26 0.38 0.41 0.33 0.22 0.14 0.07 0.04 0.02 0.01 0.00 0.00 0.00 0.00 0.00 0.00 0.00 0.00 0.00 0.00 0.00 0.00 0.00 0.00 0.02 0.03 0.01 0.01 0.00 0.00
0.59 0.85 0.91 0.87 0.56 1.51 1.93 0.61 0.60 0.70 0.68 0.54 0.37 0.35 0.25 0.16 0.11 0.07 0.05 0.03 0.01 0.01 0.01 0.00 0.00 0.00 0.00 0.00 0.00 0.00 0.00 0.00 0.00 0.00 0.00 0.00 0.00 0.00 0.01 0.00 0.00 0.02
1.40 0.82 0.67 0.66 1.33 1.30 1.32 1.47 0.86 0.39 0.29 0.30 0.26 0.17 0.13 0.13 0.11 0.10 0.07 0.04 0.02 0.01 0.01 0.00 0.00 0.00 0.00 0.00 0.00 0.00 0.00 0.00 0.00 0.00 0.00 0.00 0.01 0.00 0.01 0.00 0.00 0.00
1.43 1.60 1.25 0.78 0.94 1.61 1.47 1.10 0.80 0.50 0.26 0.14 0.10 0.10 0.11 0.10 0.12 0.12 0.09 0.06 0.04 0.02 0.01 0.00 0.00 0.00 0.00 0.00 0.00 0.00 0.00 0.00 0.00 0.00 0.00 0.00 0.00 0.00 0.00 0.01 0.01 0.04
1.52 1.04 0.95 1.06 1.59 1.84 1.17 1.31 0.58 0.57 0.65 0.53 0.20 0.24 0.14 0.10 0.13 0.14 0.12 0.09 0.05 0.03 0.02 0.01 0.02 0.00 0.00 0.00 0.00 0.00 0.00 0.00 0.00 0.00 0.00 0.00 0.00 0.00 0.00 0.01 0.06 0.08
1.24 1.30 1.24 1.94 2.06 2.29 1.40 0.60 0.66 0.48 0.76 0.99 0.60 0.37 0.34 0.21 0.16 0.16 0.13 0.11 0.08 0.06 0.05 0.03 0.03 0.02 0.01 0.00 0.00 0.01 0.01 0.01 0.00 0.01 0.00 0.01 0.01 0.02 0.01 0.00 0.02 0.05
1.41 1.23 1.62 1.97 2.17 1.97 1.35 1.31 1.06 0.98 0.75 0.92 0.71 0.95 0.75 0.53 0.24 0.22 0.07 0.06 0.07 0.05 0.05 0.05 0.04 0.02 0.01 0.01 0.00 0.00 0.00 0.00 0.00 0.01 0.02 0.02 0.02 0.02 0.02 0.02 0.14 0.47
1.37 1.23 1.37 2.36 1.95 1.54 1.11 1.23 1.02 0.97 1.19 1.45 1.40 1.08 0.63 0.31 0.10 0.06 0.10 0.24 0.17 0.17 0.13 0.08 0.05 0.03 0.01 0.01 0.01 0.02 0.01 0.02 0.02 0.01 0.02 0.01 0.02 0.01 0.03 0.07 0.12 0.37
1.49 1.88 1.50 1.24 1.62 1.66 1.50 1.40 1.76 1.93 1.55 1.91 1.34 0.47 0.24 0.11 0.12 0.09 0.06 0.43 0.30 0.09 0.09 0.04 0.05 0.05 0.06 0.04 0.04 0.02 0.02 0.02 0.01 0.01 0.04 0.03 0.05 0.08 0.04 0.12 0.24 0.20
1.63 1.27 1.64 1.50 1.24 1.42 1.55 1.74 1.72 1.90 2.06 1.88 1.14 0.96 0.54 0.54 0.37 0.24 0.24 0.93 1.06 0.39 0.19 0.14 0.07 0.04 0.19 0.29 0.34 0.02 0.02 0.03 0.04 0.03 0.08 0.06 0.08 0.30 0.30 0.25 0.05 0.05
0.69 0.70 0.80 1.72 1.40 1.34 1.72 2.20 2.01 1.77 1.61 1.35 0.98 0.91 0.85 0.62 0.65 1.04 1.99 1.68 1.50 1.22 0.30 0.17 0.21 0.37 0.36 0.38 0.71 0.84 0.98 0.86 0.22 0.12 0.09 0.27 0.16 0.29 0.23 0.07 0.15 0.06
0.37 0.30 0.28 0.94 0.24 0.53 2.39 2.33 2.97 2.41 1.36 1.16 1.19 1.50 1.35 1.42 1.50 1.24 0.99 1.24 0.80 0.39 0.25 0.19 0.22 0.40 0.74 0.27 0.63 1.01 0.47 0.58 0.61 0.21 0.11 0.07 0.06 0.13 0.19 0.17 0.08 0.13

ECMWFNIL_prec_precacc_105.txt.gz
Total_Precipitation_Accumulation
0.01 0.00 0.00 0.00 0.00 0.00 0.01 0.02 0.04 0.01 0.01 0.04 0.01 0.01 0.00 0.00 0.01 0.00 0.00 0.01 0.01 0.01 0.01 0.03 0.02 0.03 0.04 0.03 0.04 0.03 0.03 0.02 0.02 0.03 0.03 0.02 0.02 0.02 0.02 0.01 0.01 0.01
0.00 0.00 0.00 0.00 0.00 0.01 0.01 0.01 0.01 0.01 0.02 0.02 0.02 0.03 0.01 0.00 0.00 0.00 0.01 0.01 0.01 0.00 0.02 0.02 0.02 0.02 0.03 0.04 0.04 0.03 0.05 0.02 0.08 0.02 0.02 0.02 0.02 0.02 0.02 0.01 0.01 0.00
0.00 0.00 0.00 0.00 0.00 0.04 0.00 0.00 0.00 0.01 0.04 0.01 0.02 0.03 0.05 0.00 0.00 0.00 0.00 0.01 0.00 0.01 0.01 0.01 0.04 0.02 0.02 0.04 0.05 0.03 0.07 0.05 0.09 0.02 0.01 0.02 0.02 0.02 0.02 0.01 0.02 0.01
0.00 0.00 0.00 0.00 0.01 0.03 0.01 0.00 0.00 0.00 0.00 0.01 0.00 0.01 0.00 0.00 0.00 0.00 0.00 0.00 0.00 0.01 0.01 0.01 0.02 0.02 0.03 0.02 0.04 0.03 0.05 0.04 0.01 0.02 0.02 0.02 0.02 0.03 0.02 0.02 0.01 0.01
0.00 0.00 0.00 0.00 0.00 0.00 0.01 0.00 0.04 0.01 0.00 0.01 0.00 0.00 0.00 0.01 0.00 0.00 0.00 0.00 0.00 0.00 0.01 0.01 0.01 0.02 0.01 0.02 0.03 0.06 0.02 0.05 0.02 0.01 0.03 0.03 0.02 0.01 0.04 0.02 0.01 0.01
0.00 0.00 0.00 0.00 0.00 0.00 0.00 0.00 0.00 0.01 0.00 0.00 0.00 0.00 0.00 0.00 0.00 0.01 0.00 0.00 0.00 0.00 0.00 0.00 0.01 0.00 0.01 0.01 0.01 0.03 0.05 0.03 0.04 0.03 0.02 0.02 0.02 0.02 0.01 0.01 0.01 0.01
0.00 0.00 0.00 0.00 0.00 0.00 0.00 0.00 0.00 0.00 0.01 0.00 0.05 0.00 0.00 0.00 0.00 0.00 0.00 0.00 0.00 0.00 0.00 0.01 0.01 0.01 0.02 0.01 0.01 0.01 0.01 0.02 0.06 0.08 0.03 0.02 0.01 0.01 0.01 0.01 0.01 0.01
0.00 0.00 0.00 0.00 0.00 0.00 0.01 0.01 0.01 0.00 0.00 0.00 0.01 0.00 0.00 0.00 0.00 0.00 0.00 0.00 0.00 0.00 0.00 0.00 0.00 0.00 0.01 0.01 0.01 0.00 0.01 0.01 0.03 0.02 0.03 0.01 0.01 0.01 0.01 0.00 0.01 0.01
0.00 0.00 0.00 0.00 0.00 0.00 0.01 0.01 0.00 0.01 0.00 0.00 0.00 0.00 0.00 0.00 0.00 0.00 0.00 0.01 0.00 0.00 0.01 0.01 0.01 0.01 0.01 0.01 0.01 0.00 0.00 0.00 0.00 0.01 0.01 0.00 0.01 0.00 0.00 0.01 0.01 0.00
0.05 0.03 0.00 0.00 0.00 0.03 0.03 0.10 0.04 0.01 0.01 0.00 0.00 0.00 0.00 0.00 0.00 0.00 0.00 0.01 0.01 0.03 0.04 0.03 0.03 0.03 0.02 0.00 0.00 0.00 0.00 0.00 0.00 0.00 0.00 0.00 0.00 0.00 0.01 0.00 0.01 0.01
0.08 0.07 0.02 0.01 0.03 0.08 0.05 0.05 0.04 0.05 0.03 0.01 0.00 0.01 0.03 0.06 0.04 0.04 0.08 0.12 0.12 0.10 0.08 0.06 0.04 0.02 0.01 0.00 0.00 0.00 0.02 0.00 0.00 0.00 0.05 0.00 0.00 0.00 0.00 0.00 0.00 0.01
0.20 0.14 0.07 0.14 0.08 0.03 0.06 0.02 0.01 0.00 0.00 0.01 0.02 0.05 0.06 0.07 0.10 0.16 0.19 0.18 0.15 0.11 0.08 0.06 0.02 0.00 0.00 0.00 0.00 0.00 0.00 0.00 0.00 0.00 0.01 0.00 0.00 0.00 0.00 0.00 0.00 0.00
0.55 0.57 0.40 0.25 0.07 0.07 0.16 0.22 0.12 0.01 0.02 0.03 0.04 0.11 0.22 0.20 0.24 0.23 0.20 0.17 0.13 0.10 0.05 0.01 0.00 0.00 0.00 0.00 0.00 0.00 0.00 0.00 0.00 0.00 0.00 0.00 0.00 0.00 0.00 0.00 0.00 0.01
0.37 0.72 0.75 0.37 0.34 0.20 0.21 0.13 0.23 0.14 0.12 0.15 0.29 0.30 0.29 0.31 0.28 0.26 0.22 0.15 0.07 0.02 0.00 0.01 0.01 0.01 0.01 0.00 0.03 0.00 0.00 0.00 0.00 0.00 0.00 0.00 0.01 0.01 0.00 0.00 0.00 0.00
0.36 0.59 0.99 0.62 0.30 0.53 0.36 0.21 0.36 0.30 0.35 0.37 0.26 0.38 0.41 0.33 0.22 0.14 0.07 0.04 0.02 0.01 0.00 0.00 0.00 0.02 0.03 0.01 0.00 0.00 0.00 0.00 0.00 0.00 0.00 0.00 0.02 0.03 0.01 0.01 0.00 0.00
0.59 0.86 0.92 0.87 0.57 1.51 1.93 0.61 0.60 0.70 0.68 0.54 0.37 0.35 0.25 0.16 0.11 0.07 0.05 0.03 0.01 0.01 0.01 0.01 0.00 0.01 0.01 0.02 0.00 0.02 0.02 0.01 0.00 0.00 0.00 0.00 0.00 0.00 0.01 0.00 0.00 0.02
1.42 0.84 0.69 0.69 1.36 1.31 1.32 1.47 0.86 0.39 0.29 0.30 0.26 0.17 0.14 0.13 0.11 0.10 0.07 0.04 0.02 0.02 0.01 0.00 0.00 0.00 0.00 0.00 0.00 0.00 0.00 0.00 0.00 0.00 0.00 0.00 0.01 0.00 0.01 0.00 0.00 0.00
1.69 1.87 1.30 0.80 0.99 1.72 1.52 1.13 0.82 0.50 0.27 0.14 0.10 0.10 0.11 0.10 0.12 0.12 0.09 0.06 0.04 0.02 0.02 0.00 0.00 0.00 0.00 0.00 0.00 0.00 0.00 0.00 0.00 0.00 0.00 0.00 0.00 0.00 0.00 0.01 0.01 0.04
1.75 1.42 1.46 1.29 1.63 1.88 1.21 1.35 0.62 0.58 0.66 0.54 0.20 0.24 0.14 0.10 0.13 0.14 0.18 0.09 0.06 0.03 0.02 0.01 0.03 0.00 0.00 0.00 0.00 0.00 0.00 0.00 0.00 0.00 0.00 0.00 0.00 0.00 0.00 0.01 0.06 0.08
1.36 1.39 1.36 2.02 2.10 2.31 1.43 0.76 0.67 0.48 0.77 1.00 0.61 0.39 0.34 0.21 0.16 0.17 0.14 0.13 0.08 0.07 0.07 0.06 0.05 0.02 0.01 0.00 0.00 0.01 0.01 0.01 0.00 0.01 0.00 0.01 0.01 0.02 0.01 0.01 0.02 0.05
1.84 1.80 1.86 2.11 2.33 2.00 1.40 1.33 1.07 1.00 0.77 0.94 0.73 0.96 0.77 0.54 0.25 0.24 0.09 0.07 0.10 0.05 0.14 0.09 0.04 0.02 0.01 0.01 0.00 0.00 0.00 0.00 0.00 0.01 0.02 0.02 0.02 0.02 0.02 0.02 0.16 0.50
1.48 1.55 1.86 2.72 2.27 1.62 1.15 1.27 1.05 1.01 1.22 1.47 1.42 1.11 0.65 0.33 0.11 0.07 0.11 0.24 0.22 0.21 0.19 0.11 0.05 0.03 0.01 0.01 0.01 0.02 0.01 0.02 0.02 0.01 0.02 0.01 0.02 0.01 0.03 0.07 0.12 0.37
1.56 2.13 1.63 1.42 1.93 2.03 1.84 1.55 1.85 1.98 1.60 2.00 1.38 0.53 0.26 0.12 0.16 0.16 0.11 0.58 0.45 0.33 0.15 0.06 0.05 0.05 0.06 0.04 0.04 0.03 0.02 0.02 0.03 0.02 0.05 0.04 0.05 0.08 0.04 0.12 0.29 0.29
1.66 1.31 1.80 1.80 1.92 1.90 1.79 1.92 2.08 2.15 2.17 2.03 1.30 1.10 0.91 0.96 0.90 0.34 0.33 1.03 1.21 0.51 0.27 0.16 0.10 0.05 0.19 0.29 0.34 0.02 0.03 0.05 0.05 0.05 0.08 0.07 0.08 0.31 0.30 0.39 0.14 0.09
0.72 0.79 0.96 1.82 2.24 1.69 1.97 2.43 2.27 1.97 1.73 1.51 1.16 1.10 1.10 1.01 0.91 1.19 2.11 1.90 1.86 1.63 0.38 0.26 0.27 0.40 0.37 0.38 0.71 0.84 0.98 0.87 0.28 0.16 0.15 0.32 0.31 0.58 0.82 0.29 0.32 0.12
0.37 0.31 0.31 0.97 0.45 0.83 2.56 2.47 3.18 2.77 1.57 1.34 1.36 1.67 1.52 1.70 1.85 1.57 1.19 1.41 1.14 0.55 0.37 0.33 0.37 0.49 0.77 0.28 0.63 1.01 0.47 0.59 0.62 0.21 0.21 0.29 0.27 0.32 0.74 0.38 0.21 0.18

ECMWFNIL_prec_precacc_108.txt.gz
Total_Precipitation_Accumulation
0.08 0.04 0.03 0.09 0.09 0.05 0.08 0.09 0.10 0.03 0.02 0.07 0.01 0.01 0.01 0.01 0.01 0.00 0.00 0.01 0.01 0.01 0.01 0.03 0.02 0.03 0.04 0.03 0.04 0.03 0.03 0.05 0.09 0.04 0.03 0.02 0.03 0.02 0.02 0.01 0.01 0.01
0.07 0.02 0.03 0.03 0.03 0.06 0.13 0.04 0.02 0.07 0.02 0.05 0.03 0.06 0.01 0.01 0.00 0.00 0.01 0.01 0.01 0.00 0.02 0.02 0.02 0.02 0.03 0.04 0.04 0.03 0.05 0.03 0.08 0.03 0.02 0.02 0.02 0.03 0.02 0.01 0.01 0.00
0.02 0.05 0.07 0.05 0.06 0.19 0.17 0.12 0.06 0.10 0.04 0.03 0.03 0.05 0.06 0.00 0.01 0.00 0.01 0.01 0.00 0.01 0.01 0.02 0.04 0.02 0.02 0.04 0.06 0.03 0.07 0.05 0.10 0.02 0.04 0.03 0.02 0.03 0.04 0.02 0.02 0.02
0.01 0.03 0.04 0.03 0.03 0.07 0.04 0.04 0.15 0.02 0.02 0.04 0.02 0.02 0.00 0.06 0.01 0.03 0.00 0.00 0.00 0.01 0.01 0.01 0.02 0.02 0.03 0.02 0.05 0.03 0.05 0.05 0.03 0.02 0.04 0.06 0.02 0.03 0.03 0.03 0.01 0.03
0.00 0.01 0.02 0.02 0.01 0.02 0.01 0.03 0.06 0.03 0.04 0.07 0.00 0.01 0.00 0.06 0.01 0.01 0.01 0.01 0.00 0.00 0.01 0.01 0.01 0.02 0.02 0.02 0.04 0.06 0.02 0.06 0.03 0.02 0.04 0.07 0.02 0.01 0.04 0.02 0.03 0.01
0.00 0.00 0.00 0.00 0.00 0.01 0.04 0.03 0.01 0.02 0.03 0.01 0.02 0.02 0.00 0.00 0.02 0.04 0.01 0.00 0.00 0.00 0.03 0.03 0.05 0.00 0.01 0.02 0.02 0.03 0.05 0.03 0.04 0.03 0.02 0.02 0.02 0.02 0.01 0.01 0.01 0.01
0.00 0.00 0.00 0.00 0.01 0.01 0.01 0.01 0.00 0.00 0.02 0.01 0.06 0.01 0.01 0.01 0.00 0.01 0.00 0.02 0.01 0.00 0.01 0.01 0.01 0.03 0.02 0.01 0.01 0.02 0.02 0.02 0.06 0.08 0.03 0.02 0.01 0.01 0.01 0.02 0.01 0.01
0.00 0.00 0.00 0.00 0.00 0.00 0.01 0.02 0.02 0.00 0.03 0.01 0.02 0.01 0.00 0.00 0.02 0.00 0.02 0.01 0.01 0.00 0.00 0.01 0.08 0.01 0.01 0.01 0.02 0.02 0.01 0.01 0.03 0.02 0.03 0.01 0.01 0.02 0.01 0.00 0.01 0.01
0.00 0.00 0.01 0.00 0.00 0.00 0.01 0.01 0.01 0.01 0.00 0.01 0.01 0.03 0.01 0.01 0.01 0.02 0.01 0.01 0.01 0.01 0.01 0.02 0.02 0.02 0.01 0.02 0.03 0.04 0.01 0.00 0.02 0.01 0.01 0.01 0.01 0.00 0.01 0.01 0.01 0.01
0.05 0.03 0.00 0.00 0.00 0.03 0.03 0.10 0.04 0.01 0.01 0.01 0.01 0.00 0.01 0.02 0.01 0.05 0.01 0.01 0.02 0.04 0.04 0.03 0.03 0.04 0.02 0.01 0.01 0.02 0.01 0.00 0.01 0.01 0.00 0.03 0.01 0.01 0.01 0.00 0.01 0.01
0.08 0.07 0.02 0.01 0.03 0.08 0.05 0.05 0.04 0.05 0.03 0.01 0.00 0.01 0.04 0.09 0.04 0.05 0.10 0.13 0.12 0.11 0.10 0.06 0.05 0.03 0.01 0.01 0.00 0.01 0.02 0.07 0.02 0.01 0.06 0.02 0.01 0.00 0.01 0.01 0.01 0.01
0.20 0.14 0.07 0.14 0.08 0.03 0.06 0.02 0.01 0.00 0.00 0.01 0.02 0.05 0.06 0.08 0.10 0.18 0.22 0.21 0.15 0.12 0.10 0.07 0.02 0.00 0.00 0.01 0.00 0.01 0.02 0.01 0.02 0.00 0.01 0.01 0.01 0.00 0.00 0.01 0.01 0.00
0.55 0.57 0.40 0.25 0.07 0.07 0.16 0.22 0.12 0.01 0.02 0.03 0.04 0.11 0.22 0.21 0.24 0.24 0.21 0.18 0.14 0.10 0.06 0.03 0.01 0.00 0.01 0.01 0.01 0.00 0.01 0.02 0.00 0.01 0.01 0.01 0.00 0.00 0.01 0.00 0.00 0.01
0.38 0.73 0.75 0.37 0.35 0.20 0.21 0.13 0.23 0.14 0.12 0.15 0.29 0.30 0.29 0.31 0.28 0.26 0.22 0.16 0.09 0.04 0.03 0.02 0.01 0.01 0.01 0.00 0.04 0.01 0.02 0.01 0.01 0.00 0.01 0.00 0.02 0.01 0.00 0.00 0.02 0.01
0.42 0.67 1.16 0.65 0.30 0.53 0.36 0.21 0.36 0.30 0.35 0.37 0.26 0.38 0.41 0.33 0.22 0.14 0.07 0.04 0.02 0.03 0.02 0.03 0.02 0.04 0.04 0.02 0.04 0.01 0.02 0.01 0.01 0.00 0.01 0.00 0.02 0.04 0.03 0.03 0.00 0.01
0.65 0.88 1.03 0.89 0.59 1.51 1.93 0.61 0.60 0.70 0.68 0.54 0.37 0.35 0.26 0.17 0.11 0.07 0.05 0.03 0.02 0.01 0.02 0.03 0.04 0.05 0.01 0.02 0.01 0.03 0.04 0.02 0.02 0.01 0.00 0.00 0.00 0.01 0.01 0.03 0.02 0.02
1.57 0.99 0.77 0.87 1.47 1.43 1.43 1.48 0.87 0.39 0.30 0.31 0.26 0.17 0.14 0.13 0.12 0.10 0.07 0.04 0.02 0.03 0.03 0.06 0.05 0.06 0.03 0.00 0.00 0.00 0.02 0.02 0.01 0.00 0.01 0.00 0.03 0.00 0.01 0.00 0.00 0.01
1.69 2.10 1.58 0.97 1.15 1.98 1.90 1.41 0.97 0.64 0.43 0.18 0.11 0.14 0.14 0.11 0.12 0.12 0.09 0.07 0.04 0.02 0.04 0.06 0.05 0.02 0.00 0.00 0.00 0.00 0.00 0.00 0.02 0.03 0.03 0.02 0.02 0.02 0.01 0.01 0.01 0.05
1.77 1.44 1.50 1.54 1.92 2.13 2.09 2.07 1.07 0.90 0.99 0.84 0.38 0.44 0.39 0.14 0.16 0.15 0.18 0.10 0.06 0.04 0.04 0.04 0.05 0.00 0.00 0.00 0.00 0.00 0.00 0.00 0.00 0.02 0.02 0.00 0.01 0.01 0.01 0.01 0.07 0.08
1.39 1.42 1.40 2.11 2.23 2.49 1.64 0.96 1.16 0.58 0.86 1.19 0.65 0.43 0.40 0.31 0.27 0.20 0.14 0.16 0.08 0.12 0.09 0.07 0.05 0.02 0.01 0.00 0.00 0.01 0.01 0.01 0.00 0.01 0.00 0.01 0.01 0.03 0.03 0.03 0.05 0.08
1.87 1.82 1.89 2.16 2.39 2.07 1.47 1.47 1.19 1.07 0.82 1.10 1.02 1.12 0.78 0.57 0.29 0.26 0.13 0.10 0.13 0.08 0.19 0.11 0.04 0.02 0.01 0.01 0.00 0.00 0.00 0.00 0.00 0.01 0.02 0.02 0.02 0.03 0.04 0.11 0.41 0.75
1.50 1.57 1.88 2.76 2.46 1.70 1.22 1.38 1.16 1.13 1.33 1.53 1.45 1.12 0.80 0.37 0.24 0.22 0.15 0.26 0.25 0.25 0.20 0.11 0.05 0.03 0.01 0.01 0.01 0.02 0.01 0.02 0.02 0.01 0.02 0.01 0.02 0.06 0.06 0.12 0.24 0.52
1.58 2.15 1.65 1.48 2.02 2.19 1.98 1.68 2.10 2.25 1.77 2.06 1.42 0.55 0.32 0.38 0.23 0.22 0.13 0.63 0.48 0.38 0.18 0.06 0.05 0.06 0.06 0.04 0.04 0.03 0.02 0.02 0.03 0.02 0.05 0.04 0.06 0.08 0.18 0.41 0.35 0.41
1.67 1.33 1.81 1.83 1.93 2.00 1.92 2.02 2.17 2.25 2.38 2.33 1.45 1.23 1.03 1.21 1.11 0.37 0.34 1.06 1.24 0.53 0.29 0.17 0.11 0.07 0.20 0.29 0.34 0.02 0.03 0.05 0.05 0.05 0.12 0.11 0.13 0.42 0.69 0.66 0.24 0.28
0.72 0.79 0.96 1.87 2.31 1.71 2.10 2.53 2.42 2.07 1.87 1.69 1.48 1.20 1.24 1.18 1.12 1.39 2.28 2.00 1.95 1.70 0.44 0.28 0.28 0.41 0.38 0.39 0.71 0.84 0.98 0.87 0.30 0.19 0.21 0.32 0.34 0.60 0.93 0.33 0.37 0.13
0.37 0.31 0.31 0.98 0.57 0.84 2.57 2.57 3.25 2.92 1.98 1.74 1.59 1.94 1.67 1.80 1.96 1.71 1.44 1.70 1.48 0.70 0.52 0.44 0.44 0.54 0.80 0.28 0.63 1.01 0.47 0.59 0.65 0.24 0.27 0.30 0.27 0.32 0.74 0.38 0.21 0.18

ECMWFNIL_prec_precacc_114.txt.gz
Total_Precipitation_Accumulation
0.08 0.04 0.03 0.09 0.09 0.05 0.08 0.09 0.10 0.03 0.02 0.07 0.01 0.01 0.01 0.01 0.01 0.00 0.00 0.01 0.01 0.01 0.01 0.03 0.02 0.03 0.04 0.03 0.04 0.03 0.03 0.05 0.09 0.04 0.03 0.02 0.03 0.02 0.02 0.01 0.01 0.01
0.07 0.02 0.03 0.03 0.03 0.06 0.13 0.04 0.02 0.07 0.02 0.05 0.03 0.06 0.01 0.01 0.00 0.00 0.01 0.01 0.01 0.00 0.02 0.02 0.02 0.02 0.03 0.04 0.04 0.03 0.05 0.03 0.08 0.03 0.02 0.02 0.02 0.03 0.02 0.01 0.01 0.00
0.02 0.05 0.07 0.05 0.06 0.19 0.17 0.12 0.06 0.10 0.04 0.03 0.03 0.05 0.06 0.00 0.01 0.00 0.01 0.01 0.00 0.01 0.01 0.02 0.04 0.02 0.02 0.04 0.06 0.03 0.07 0.05 0.10 0.02 0.04 0.03 0.02 0.03 0.04 0.02 0.02 0.02
0.01 0.03 0.04 0.03 0.03 0.07 0.04 0.04 0.15 0.02 0.02 0.04 0.02 0.02 0.00 0.06 0.01 0.03 0.00 0.00 0.00 0.01 0.01 0.01 0.02 0.02 0.03 0.02 0.05 0.03 0.05 0.05 0.03 0.02 0.04 0.06 0.02 0.03 0.03 0.03 0.01 0.03
0.00 0.01 0.02 0.02 0.01 0.02 0.01 0.03 0.06 0.03 0.04 0.07 0.00 0.01 0.00 0.06 0.01 0.01 0.01 0.01 0.00 0.00 0.01 0.01 0.01 0.02 0.02 0.02 0.04 0.06 0.02 0.06 0.03 0.02 0.04 0.07 0.02 0.01 0.04 0.02 0.03 0.01
0.00 0.00 0.00 0.00 0.00 0.01 0.04 0.03 0.01 0.02 0.03 0.01 0.02 0.02 0.00 0.00 0.02 0.04 0.01 0.00 0.00 0.00 0.03 0.03 0.05 0.00 0.01 0.02 0.02 0.03 0.05 0.03 0.04 0.03 0.02 0.02 0.02 0.02 0.01 0.01 0.01 0.01
0.00 0.00 0.00 0.00 0.01 0.01 0.01 0.01 0.00 0.00 0.02 0.01 0.06 0.01 0.01 0.01 0.00 0.01 0.00 0.02 0.01 0.00 0.01 0.01 0.01 0.03 0.02 0.01 0.01 0.02 0.02 0.02 0.06 0.08 0.03 0.02 0.01 0.01 0.01 0.02 0.01 0.01
0.00 0.00 0.00 0.00 0.00 0.01 0.01 0.02 0.02 0.00 0.03 0.01 0.02 0.01 0.00 0.00 0.02 0.00 0.02 0.01 0.02 0.00 0.00 0.01 0.08 0.01 0.01 0.01 0.02 0.02 0.01 0.01 0.03 0.02 0.03 0.01 0.01 0.02 0.01 0.00 0.01 0.01
0.00 0.00 0.01 0.00 0.00 0.00 0.01 0.01 0.01 0.01 0.00 0.01 0.01 0.03 0.01 0.01 0.01 0.02 0.01 0.01 0.01 0.01 0.01 0.02 0.02 0.02 0.01 0.02 0.03 0.04 0.01 0.00 0.02 0.01 0.01 0.01 0.01 0.00 0.01 0.01 0.01 0.01
0.05 0.04 0.00 0.00 0.00 0.03 0.03 0.10 0.05 0.01 0.01 0.01 0.01 0.00 0.01 0.02 0.01 0.05 0.01 0.01 0.02 0.04 0.04 0.03 0.03 0.04 0.02 0.01 0.01 0.02 0.01 0.00 0.01 0.01 0.00 0.03 0.01 0.01 0.01 0.00 0.01 0.01
0.08 0.07 0.02 0.01 0.03 0.08 0.05 0.05 0.04 0.06 0.03 0.02 0.01 0.01 0.04 0.09 0.04 0.05 0.10 0.13 0.12 0.11 0.10 0.06 0.05 0.03 0.01 0.01 0.00 0.01 0.02 0.07 0.02 0.01 0.06 0.02 0.01 0.00 0.01 0.01 0.01 0.01
0.25 0.20 0.07 0.14 0.08 0.03 0.06 0.02 0.01 0.01 0.00 0.01 0.02 0.05 0.06 0.08 0.10 0.18 0.22 0.21 0.15 0.12 0.10 0.07 0.02 0.01 0.00 0.01 0.00 0.01 0.02 0.01 0.02 0.00 0.01 0.01 0.01 0.00 0.00 0.01 0.01 0.00
0.65 0.82 0.68 0.30 0.07 0.07 0.16 0.22 0.12 0.01 0.03 0.03 0.04 0.11 0.22 0.21 0.24 0.24 0.21 0.18 0.14 0.10 0.06 0.03 0.01 0.00 0.01 0.01 0.01 0.00 0.01 0.02 0.00 0.01 0.01 0.01 0.00 0.00 0.01 0.00 0.00 0.01
0.45 0.75 0.76 0.38 0.35 0.20 0.21 0.13 0.23 0.14 0.12 0.15 0.29 0.30 0.29 0.31 0.28 0.26 0.22 0.16 0.09 0.04 0.03 0.02 0.01 0.01 0.01 0.00 0.04 0.01 0.03 0.01 0.01 0.00 0.01 0.00 0.02 0.01 0.00 0.00 0.02 0.02
0.60 0.82 1.21 0.65 0.30 0.53 0.36 0.21 0.36 0.30 0.35 0.37 0.26 0.39 0.42 0.34 0.22 0.14 0.07 0.04 0.02 0.03 0.04 0.03 0.03 0.04 0.04 0.02 0.04 0.01 0.02 0.01 0.01 0.00 0.01 0.01 0.02 0.04 0.04 0.03 0.03 0.08
0.66 0.89 1.04 0.89 0.59 1.51 1.93 0.61 0.60 0.70 0.68 0.54 0.37 0.35 0.26 0.17 0.11 0.08 0.05 0.03 0.03 0.01 0.05 0.03 0.04 0.05 0.01 0.02 0.01 0.03 0.04 0.02 0.02 0.01 0.05 0.07 0.02 0.03 0.11 0.10 0.06 0.08
1.57 0.99 0.77 0.87 1.47 1.43 1.43 1.48 0.87 0.39 0.30 0.31 0.26 0.17 0.14 0.13 0.12 0.10 0.08 0.05 0.03 0.04 0.03 0.10 0.05 0.06 0.03 0.00 0.00 0.00 0.02 0.02 0.01 0.04 0.13 0.05 0.07 0.03 0.01 0.03 0.09 0.10
1.70 2.10 1.58 0.98 1.15 1.98 1.90 1.41 0.97 0.64 0.43 0.18 0.11 0.17 0.15 0.17 0.21 0.15 0.11 0.07 0.05 0.04 0.06 0.06 0.05 0.03 0.00 0.00 0.00 0.00 0.00 0.00 0.03 0.04 0.15 0.16 0.12 0.07 0.12 0.07 0.11 0.06
1.78 1.44 1.50 1.54 1.92 2.13 2.09 2.07 1.07 0.90 1.00 0.84 0.39 0.45 0.40 0.15 0.17 0.24 0.21 0.29 0.07 0.05 0.04 0.04 0.05 0.00 0.00 0.00 0.00 0.00 0.00 0.01 0.04 0.11 0.12 0.06 0.02 0.02 0.06 0.09 0.09 0.11
1.64 1.65 1.82 2.38 2.45 2.60 1.69 0.98 1.16 0.58 0.86 1.20 0.66 0.44 0.41 0.31 0.27 0.20 0.14 0.16 0.08 0.13 0.09 0.07 0.05 0.02 0.01 0.00 0.00 0.01 0.01 0.02 0.01 0.11 0.21 0.13 0.02 0.13 0.15 0.03 0.05 0.08
1.98 1.84 1.91 2.24 2.46 2.12 1.47 1.47 1.20 1.08 0.83 1.13 1.05 1.15 0.80 0.58 0.32 0.27 0.13 0.10 0.13 0.08 0.20 0.11 0.04 0.03 0.02 0.01 0.00 0.00 0.00 0.00 0.03 0.20 0.32 0.02 0.03 0.03 0.04 0.11 0.42 0.75
1.52 1.59 1.90 2.94 2.88 1.76 1.23 1.39 1.16 1.13 1.34 1.60 1.49 1.16 0.85 0.42 0.28 0.30 0.18 0.26 0.25 0.25 0.21 0.15 0.06 0.03 0.01 0.01 0.01 0.02 0.01 0.02 0.04 0.18 0.24 0.03 0.03 0.07 0.06 0.12 0.24 0.52
1.59 2.15 1.65 1.49 2.09 2.32 2.24 2.43 2.50 2.35 1.79 2.09 1.47 0.66 0.36 0.41 0.27 0.27 0.18 0.66 0.50 0.39 0.20 0.09 0.11 0.07 0.07 0.05 0.04 0.03 0.02 0.03 0.03 0.03 0.06 0.05 0.08 0.10 0.19 0.42 0.35 0.41
1.72 1.35 1.86 2.33 2.05 2.11 2.06 2.14 2.29 2.34 2.41 2.33 1.47 1.29 1.11 1.32 1.16 0.47 1.43 1.75 1.30 0.57 0.31 0.18 0.12 0.08 0.21 0.29 0.35 0.03 0.04 0.05 0.05 0.06 0.12 0.12 0.13 0.42 0.69 0.67 0.24 0.28
0.84 1.00 1.28 2.10 2.34 1.73 2.11 2.53 2.44 2.10 1.92 1.72 1.50 1.25 1.28 1.25 1.24 1.70 3.19 2.75 2.27 1.87 0.53 0.33 0.30 0.42 0.38 0.39 0.71 0.84 0.98 0.87 0.30 0.19 0.21 0.33 0.34 0.60 0.93 0.33 0.37 0.13
0.42 0.37 0.51 1.00 0.60 0.84 2.57 2.57 3.26 2.93 2.12 1.94 1.69 2.09 1.89 2.09 2.52 2.23 2.04 2.20 1.75 1.12 1.12 0.91 0.83 0.73 0.93 0.33 0.64 1.01 0.48 0.59 0.65 0.24 0.27 0.30 0.28 0.32 0.74 0.38 0.21 0.18

ECMWFNIL_prec_precacc_117.txt.gz
Total_Precipitation_Accumulation
0.08 0.04 0.03 0.09 0.09 0.05 0.08 0.09 0.10 0.03 0.02 0.07 0.01 0.01 0.01 0.01 0.01 0.00 0.00 0.01 0.01 0.01 0.01 0.03 0.02 0.03 0.04 0.03 0.04 0.03 0.03 0.05 0.09 0.04 0.03 0.02 0.03 0.02 0.02 0.01 0.01 0.01
0.07 0.02 0.03 0.03 0.03 0.06 0.13 0.04 0.02 0.07 0.02 0.05 0.03 0.06 0.01 0.01 0.00 0.00 0.01 0.01 0.01 0.00 0.02 0.02 0.02 0.02 0.03 0.04 0.04 0.03 0.05 0.03 0.08 0.03 0.02 0.02 0.02 0.03 0.02 0.01 0.01 0.00
0.02 0.05 0.07 0.05 0.06 0.19 0.17 0.12 0.06 0.10 0.04 0.03 0.03 0.05 0.06 0.00 0.01 0.00 0.01 0.01 0.00 0.01 0.01 0.02 0.04 0.02 0.02 0.04 0.06 0.03 0.07 0.05 0.10 0.02 0.04 0.03 0.02 0.03 0.04 0.02 0.02 0.02
0.01 0.03 0.04 0.03 0.03 0.07 0.04 0.04 0.15 0.02 0.02 0.04 0.02 0.02 0.00 0.06 0.01 0.03 0.00 0.00 0.00 0.01 0.01 0.01 0.02 0.02 0.03 0.02 0.05 0.03 0.05 0.05 0.03 0.02 0.04 0.06 0.02 0.03 0.03 0.03 0.01 0.03
0.00 0.01 0.02 0.02 0.01 0.02 0.01 0.03 0.06 0.03 0.04 0.07 0.00 0.01 0.00 0.06 0.01 0.01 0.01 0.01 0.00 0.00 0.01 0.01 0.01 0.02 0.02 0.02 0.04 0.06 0.02 0.06 0.03 0.02 0.04 0.07 0.02 0.01 0.04 0.02 0.03 0.01
0.00 0.00 0.00 0.00 0.00 0.01 0.04 0.03 0.01 0.02 0.03 0.01 0.02 0.02 0.00 0.00 0.02 0.04 0.01 0.00 0.00 0.00 0.03 0.03 0.05 0.00 0.01 0.02 0.02 0.03 0.05 0.03 0.04 0.03 0.02 0.02 0.02 0.02 0.01 0.01 0.01 0.01
0.00 0.00 0.00 0.00 0.01 0.01 0.01 0.01 0.00 0.00 0.02 0.01 0.06 0.01 0.01 0.01 0.00 0.01 0.00 0.02 0.01 0.00 0.01 0.01 0.01 0.03 0.02 0.01 0.01 0.02 0.02 0.02 0.06 0.08 0.03 0.02 0.01 0.01 0.01 0.02 0.01 0.01
0.00 0.00 0.00 0.00 0.00 0.01 0.01 0.02 0.02 0.00 0.03 0.01 0.02 0.01 0.00 0.00 0.02 0.00 0.02 0.01 0.02 0.00 0.00 0.01 0.08 0.01 0.01 0.01 0.02 0.02 0.01 0.01 0.03 0.02 0.03 0.01 0.01 0.02 0.01 0.00 0.01 0.01
0.00 0.00 0.01 0.00 0.00 0.00 0.01 0.01 0.01 0.01 0.00 0.01 0.01 0.03 0.01 0.01 0.01 0.02 0.01 0.01 0.01 0.01 0.01 0.02 0.02 0.02 0.01 0.02 0.03 0.04 0.01 0.00 0.02 0.01 0.01 0.01 0.01 0.00 0.01 0.01 0.01 0.01
0.05 0.04 0.00 0.00 0.00 0.03 0.03 0.10 0.05 0.01 0.01 0.01 0.01 0.00 0.01 0.02 0.01 0.05 0.01 0.01 0.02 0.04 0.04 0.03 0.03 0.04 0.02 0.01 0.01 0.02 0.01 0.00 0.01 0.01 0.00 0.03 0.01 0.01 0.01 0.00 0.01 0.01
0.08 0.07 0.02 0.01 0.03 0.08 0.05 0.05 0.04 0.06 0.03 0.02 0.01 0.01 0.04 0.09 0.04 0.05 0.10 0.13 0.12 0.11 0.10 0.06 0.05 0.03 0.01 0.01 0.00 0.01 0.02 0.07 0.02 0.01 0.06 0.02 0.01 0.00 0.01 0.01 0.01 0.01
0.25 0.20 0.07 0.14 0.08 0.03 0.06 0.02 0.01 0.01 0.00 0.01 0.02 0.05 0.06 0.08 0.10 0.18 0.22 0.21 0.15 0.12 0.10 0.07 0.02 0.01 0.00 0.01 0.00 0.01 0.02 0.01 0.02 0.00 0.01 0.01 0.01 0.00 0.00 0.01 0.01 0.00
0.65 0.82 0.68 0.31 0.07 0.07 0.16 0.22 0.12 0.01 0.03 0.03 0.04 0.11 0.22 0.21 0.24 0.24 0.21 0.18 0.14 0.10 0.06 0.03 0.01 0.00 0.01 0.01 0.01 0.00 0.01 0.02 0.00 0.01 0.01 0.01 0.00 0.00 0.01 0.00 0.00 0.01
0.45 0.75 0.76 0.38 0.35 0.20 0.21 0.13 0.23 0.14 0.12 0.15 0.29 0.30 0.29 0.31 0.28 0.26 0.22 0.16 0.09 0.04 0.03 0.02 0.01 0.01 0.01 0.00 0.04 0.01 0.03 0.01 0.01 0.00 0.01 0.00 0.02 0.02 0.01 0.00 0.02 0.02
0.60 0.82 1.21 0.66 0.31 0.54 0.36 0.21 0.36 0.30 0.35 0.37 0.26 0.39 0.42 0.34 0.22 0.14 0.07 0.04 0.02 0.03 0.04 0.03 0.03 0.04 0.04 0.02 0.04 0.01 0.02 0.01 0.01 0.00 0.01 0.08 0.05 0.11 0.04 0.03 0.03 0.08
0.71 0.94 1.05 0.89 0.59 1.51 1.93 0.61 0.60 0.70 0.68 0.54 0.37 0.35 0.26 0.17 0.11 0.08 0.05 0.03 0.03 0.01 0.05 0.03 0.04 0.05 0.01 0.02 0.01 0.03 0.04 0.02 0.02 0.01 0.07 0.08 0.02 0.03 0.11 0.10 0.06 0.08
2.13 1.42 1.11 1.25 1.79 1.60 1.52 1.49 0.87 0.39 0.30 0.31 0.26 0.17 0.14 0.13 0.12 0.10 0.08 0.05 0.03 0.04 0.03 0.10 0.05 0.06 0.03 0.00 0.00 0.00 0.02 0.02 0.01 0.05 0.13 0.05 0.08 0.03 0.01 0.03 0.09 0.10
1.98 2.39 1.93 1.46 1.49 2.44 2.11 1.41 0.97 0.64 0.43 0.18 0.11 0.17 0.15 0.17 0.21 0.15 0.11 0.07 0.05 0.04 0.06 0.06 0.05 0.03 0.00 0.00 0.00 0.00 0.00 0.00 0.03 0.04 0.15 0.16 0.12 0.07 0.12 0.07 0.11 0.06
2.06 1.80 1.83 1.72 2.42 2.59 2.55 2.10 1.08 0.92 1.01 0.84 0.39 0.45 0.40 0.15 0.17 0.24 0.21 0.29 0.07 0.05 0.04 0.04 0.05 0.00 0.00 0.00 0.00 0.00 0.00 0.01 0.04 0.11 0.12 0.06 0.02 0.02 0.06 0.09 0.09 0.11
1.69 1.74 1.90 2.41 2.60 2.84 2.30 1.29 1.40 0.81 0.89 1.21 0.66 0.44 0.41 0.31 0.27 0.20 0.14 0.16 0.08 0.13 0.09 0.07 0.05 0.02 0.01 0.00 0.00 0.01 0.01 0.02 0.01 0.11 0.21 0.13 0.02 0.13 0.15 0.03 0.05 0.08
2.13 2.03 1.97 2.29 2.52 2.26 1.55 1.51 1.31 1.23 1.06 1.46 1.23 1.18 0.80 0.58 0.32 0.27 0.13 0.10 0.13 0.08 0.20 0.11 0.04 0.03 0.02 0.01 0.00 0.00 0.00 0.00 0.03 0.20 0.32 0.02 0.03 0.03 0.04 0.11 0.42 0.75
1.77 1.75 2.01 3.04 2.97 1.99 1.46 1.63 1.28 1.23 1.55 1.92 1.74 1.34 1.09 0.74 0.41 0.31 0.18 0.26 0.25 0.25 0.21 0.15 0.06 0.03 0.01 0.01 0.01 0.02 0.01 0.02 0.04 0.18 0.24 0.03 0.03 0.07 0.06 0.12 0.24 0.52
1.76 2.32 1.84 1.63 2.15 2.41 2.32 2.55 2.57 2.44 1.87 2.15 1.57 0.88 0.58 0.70 0.58 0.49 0.20 0.66 0.50 0.39 0.20 0.09 0.11 0.07 0.07 0.05 0.04 0.03 0.02 0.03 0.03 0.03 0.06 0.05 0.08 0.10 0.19 0.42 0.35 0.41
1.81 1.41 1.93 2.39 2.10 2.15 2.11 2.29 2.53 2.50 2.85 2.75 1.91 1.44 1.37 1.77 1.57 0.54 1.43 1.75 1.30 0.57 0.31 0.18 0.12 0.08 0.21 0.29 0.35 0.03 0.04 0.05 0.05 0.06 0.12 0.12 0.13 0.42 0.69 0.67 0.24 0.28
0.91 1.07 1.36 2.16 2.39 1.78 2.16 2.63 2.47 2.22 2.12 1.95 1.73 1.54 1.82 2.17 2.01 2.12 3.24 2.76 2.27 1.88 0.54 0.34 0.31 0.42 0.38 0.39 0.71 0.84 0.98 0.87 0.30 0.19 0.21 0.33 0.34 0.60 0.93 0.33 0.37 0.13
0.47 0.42 0.57 1.10 0.70 1.03 2.65 2.64 3.35 3.03 2.23 2.01 1.90 2.60 2.67 2.38 2.67 2.28 2.07 2.25 1.80 1.16 1.20 0.98 0.88 0.79 0.96 0.35 0.66 1.02 0.48 0.60 0.65 0.24 0.27 0.30 0.28 0.32 0.74 0.38 0.21 0.18

ECMWFNIL_prec_precacc_120.txt.gz
Total_Precipitation_Accumulation
0.08 0.04 0.03 0.09 0.09 0.05 0.08 0.09 0.10 0.03 0.02 0.07 0.01 0.01 0.01 0.01 0.01 0.00 0.00 0.01 0.01 0.01 0.01 0.03 0.02 0.03 0.04 0.03 0.04 0.03 0.03 0.05 0.09 0.04 0.03 0.02 0.03 0.02 0.02 0.01 0.01 0.01
0.07 0.02 0.03 0.03 0.03 0.06 0.13 0.04 0.02 0.07 0.02 0.05 0.03 0.06 0.01 0.01 0.00 0.00 0.01 0.01 0.01 0.00 0.02 0.02 0.02 0.02 0.03 0.04 0.04 0.03 0.05 0.03 0.08 0.03 0.02 0.02 0.02 0.03 0.02 0.01 0.01 0.00
0.02 0.05 0.07 0.05 0.06 0.19 0.17 0.12 0.06 0.10 0.04 0.03 0.03 0.05 0.06 0.00 0.01 0.00 0.01 0.01 0.00 0.01 0.01 0.02 0.04 0.02 0.02 0.04 0.06 0.03 0.07 0.05 0.10 0.02 0.04 0.03 0.02 0.03 0.04 0.02 0.02 0.02
0.01 0.03 0.04 0.03 0.03 0.07 0.04 0.04 0.15 0.02 0.02 0.04 0.02 0.02 0.00 0.06 0.01 0.03 0.00 0.00 0.00 0.01 0.01 0.01 0.02 0.02 0.03 0.02 0.05 0.03 0.05 0.05 0.03 0.02 0.04 0.06 0.02 0.03 0.03 0.03 0.01 0.03
0.00 0.01 0.02 0.02 0.01 0.02 0.01 0.03 0.06 0.03 0.04 0.07 0.00 0.01 0.00 0.06 0.01 0.01 0.01 0.01 0.00 0.00 0.01 0.01 0.01 0.02 0.02 0.02 0.04 0.06 0.02 0.06 0.03 0.02 0.04 0.07 0.02 0.01 0.04 0.02 0.03 0.01
0.00 0.00 0.00 0.00 0.00 0.01 0.04 0.03 0.01 0.02 0.03 0.01 0.02 0.02 0.00 0.00 0.02 0.04 0.01 0.00 0.00 0.00 0.03 0.03 0.05 0.00 0.01 0.02 0.02 0.03 0.05 0.03 0.04 0.03 0.02 0.02 0.02 0.02 0.01 0.01 0.01 0.01
0.00 0.00 0.00 0.00 0.01 0.01 0.01 0.01 0.00 0.00 0.02 0.01 0.06 0.01 0.01 0.01 0.00 0.01 0.00 0.02 0.01 0.00 0.01 0.01 0.01 0.03 0.02 0.01 0.01 0.02 0.02 0.02 0.06 0.08 0.03 0.02 0.01 0.01 0.01 0.02 0.01 0.01
0.00 0.00 0.00 0.00 0.00 0.01 0.01 0.02 0.02 0.00 0.03 0.01 0.02 0.01 0.00 0.00 0.02 0.00 0.02 0.01 0.02 0.00 0.00 0.01 0.08 0.01 0.01 0.01 0.02 0.02 0.01 0.01 0.03 0.02 0.03 0.01 0.01 0.02 0.01 0.00 0.01 0.01
0.00 0.00 0.01 0.00 0.00 0.00 0.01 0.01 0.01 0.01 0.00 0.01 0.01 0.03 0.01 0.01 0.01 0.02 0.01 0.01 0.01 0.01 0.01 0.02 0.02 0.02 0.01 0.02 0.03 0.04 0.01 0.00 0.02 0.01 0.01 0.01 0.01 0.00 0.01 0.01 0.01 0.01
0.05 0.04 0.00 0.00 0.00 0.03 0.03 0.10 0.05 0.01 0.01 0.01 0.01 0.00 0.01 0.02 0.01 0.05 0.01 0.01 0.02 0.04 0.04 0.03 0.03 0.04 0.02 0.01 0.01 0.02 0.01 0.00 0.01 0.01 0.00 0.03 0.01 0.01 0.01 0.00 0.01 0.01
0.08 0.07 0.02 0.01 0.03 0.08 0.05 0.05 0.04 0.06 0.03 0.02 0.01 0.01 0.04 0.09 0.04 0.05 0.10 0.13 0.12 0.11 0.10 0.06 0.05 0.03 0.01 0.01 0.00 0.01 0.02 0.07 0.02 0.01 0.06 0.02 0.01 0.00 0.01 0.01 0.01 0.01
0.25 0.20 0.07 0.14 0.08 0.03 0.06 0.02 0.01 0.01 0.00 0.01 0.02 0.05 0.06 0.08 0.10 0.18 0.22 0.21 0.15 0.12 0.10 0.07 0.02 0.01 0.00 0.01 0.00 0.01 0.02 0.01 0.02 0.00 0.01 0.01 0.01 0.00 0.00 0.01 0.01 0.00
0.65 0.82 0.68 0.31 0.07 0.07 0.16 0.22 0.12 0.01 0.03 0.03 0.04 0.11 0.22 0.21 0.24 0.24 0.21 0.18 0.14 0.10 0.06 0.03 0.01 0.00 0.01 0.01 0.01 0.00 0.01 0.02 0.00 0.01 0.01 0.01 0.00 0.00 0.01 0.00 0.00 0.01
0.45 0.75 0.76 0.38 0.35 0.20 0.21 0.13 0.23 0.14 0.12 0.15 0.29 0.30 0.29 0.31 0.28 0.26 0.22 0.16 0.09 0.04 0.03 0.02 0.01 0.01 0.01 0.00 0.04 0.01 0.03 0.01 0.01 0.00 0.01 0.00 0.02 0.02 0.01 0.00 0.02 0.02
0.60 0.82 1.21 0.66 0.31 0.54 0.36 0.21 0.36 0.30 0.35 0.37 0.26 0.39 0.42 0.34 0.22 0.14 0.07 0.04 0.02 0.03 0.04 0.03 0.03 0.04 0.04 0.02 0.04 0.01 0.02 0.01 0.01 0.00 0.01 0.08 0.05 0.11 0.04 0.03 0.03 0.08
0.71 0.96 1.05 0.90 0.61 1.59 2.10 0.66 0.61 0.70 0.68 0.54 0.37 0.35 0.26 0.17 0.11 0.08 0.05 0.03 0.03 0.01 0.05 0.03 0.04 0.05 0.01 0.02 0.01 0.03 0.04 0.02 0.02 0.01 0.07 0.08 0.02 0.03 0.11 0.10 0.06 0.08
2.13 1.42 1.11 1.26 1.86 1.75 1.84 1.53 0.87 0.39 0.30 0.31 0.26 0.17 0.14 0.13 0.12 0.10 0.08 0.05 0.03 0.04 0.04 0.10 0.05 0.06 0.03 0.00 0.00 0.00 0.02 0.02 0.01 0.05 0.13 0.05 0.08 0.03 0.01 0.03 0.09 0.10
1.99 2.40 1.93 1.46 1.49 2.45 2.20 1.53 1.17 0.69 0.43 0.18 0.11 0.17 0.15 0.17 0.21 0.15 0.11 0.07 0.05 0.04 0.06 0.06 0.05 0.03 0.00 0.00 0.00 0.00 0.00 0.00 0.03 0.04 0.15 0.16 0.12 0.07 0.12 0.07 0.11 0.06
2.09 1.83 1.86 1.74 2.43 2.59 2.56 2.11 1.12 0.99 1.08 0.87 0.39 0.45 0.40 0.15 0.17 0.24 0.22 0.29 0.08 0.05 0.04 0.04 0.05 0.00 0.00 0.00 0.00 0.00 0.00 0.01 0.04 0.11 0.12 0.06 0.02 0.02 0.06 0.09 0.09 0.11
1.71 1.76 1.92 2.45 2.65 2.90 2.35 1.36 1.46 0.83 0.91 1.23 0.67 0.47 0.41 0.31 0.27 0.20 0.14 0.16 0.08 0.13 0.09 0.07 0.05 0.02 0.01 0.00 0.00 0.01 0.01 0.02 0.01 0.11 0.21 0.13 0.02 0.13 0.15 0.03 0.05 0.08
2.15 2.13 2.15 2.48 2.57 2.29 1.61 1.59 1.40 1.31 1.11 1.49 1.24 1.18 0.80 0.58 0.32 0.28 0.14 0.10 0.13 0.08 0.20 0.11 0.04 0.03 0.02 0.01 0.00 0.00 0.00 0.00 0.03 0.20 0.32 0.02 0.03 0.03 0.04 0.11 0.42 0.75
1.80 1.78 2.11 3.10 3.03 2.05 1.49 1.67 1.36 1.34 1.66 1.97 1.77 1.35 1.10 0.74 0.44 0.32 0.18 0.26 0.25 0.25 0.21 0.15 0.06 0.03 0.01 0.01 0.01 0.02 0.01 0.02 0.04 0.18 0.24 0.03 0.03 0.07 0.06 0.12 0.24 0.52
1.83 2.36 1.88 1.81 2.32 2.59 2.47 2.62 2.61 2.52 2.02 2.19 1.60 0.93 0.64 0.74 0.60 0.52 0.23 0.68 0.51 0.39 0.20 0.09 0.11 0.07 0.07 0.05 0.04 0.03 0.02 0.03 0.03 0.03 0.06 0.05 0.08 0.10 0.19 0.42 0.35 0.41
2.01 1.69 2.25 2.49 2.14 2.19 2.20 2.47 2.65 2.59 2.94 2.79 1.94 1.47 1.44 1.87 1.62 0.59 1.49 1.81 1.36 0.61 0.33 0.18 0.12 0.08 0.21 0.29 0.35 0.03 0.04 0.05 0.05 0.06 0.12 0.12 0.13 0.42 0.69 0.67 0.24 0.28
1.23 1.36 1.57 2.35 2.60 1.91 2.23 2.69 2.53 2.29 2.17 1.99 1.76 1.58 1.90 2.31 2.09 2.18 3.36 2.84 2.33 1.92 0.58 0.36 0.32 0.42 0.38 0.39 0.71 0.84 0.98 0.87 0.31 0.19 0.21 0.33 0.34 0.60 0.93 0.33 0.37 0.13
0.74 0.65 0.82 1.35 0.90 1.21 2.81 2.76 3.43 3.09 2.28 2.06 1.94 2.63 2.72 2.49 2.94 2.61 2.40 2.38 1.95 1.47 1.32 1.00 0.89 0.79 0.96 0.35 0.66 1.02 0.48 0.60 0.65 0.25 0.27 0.32 0.31 0.33 0.74 0.38 0.21 0.18

ECMWFNIL_prec_precacc_123.txt.gz
Total_Precipitation_Accumulation
0.08 0.04 0.03 0.09 0.09 0.05 0.08 0.09 0.10 0.03 0.02 0.07 0.01 0.01 0.01 0.01 0.01 0.00 0.00 0.01 0.01 0.01 0.01 0.03 0.02 0.03 0.04 0.03 0.04 0.03 0.03 0.05 0.09 0.04 0.03 0.02 0.03 0.02 0.02 0.01 0.01 0.01
0.07 0.02 0.03 0.03 0.03 0.06 0.13 0.04 0.02 0.07 0.02 0.05 0.03 0.06 0.01 0.01 0.00 0.00 0.01 0.01 0.01 0.00 0.02 0.02 0.02 0.02 0.03 0.04 0.04 0.03 0.06 0.03 0.08 0.03 0.02 0.02 0.02 0.03 0.02 0.01 0.01 0.00
0.02 0.05 0.07 0.05 0.06 0.19 0.17 0.12 0.06 0.10 0.04 0.03 0.03 0.05 0.06 0.00 0.01 0.00 0.01 0.01 0.00 0.01 0.01 0.02 0.04 0.02 0.02 0.04 0.06 0.03 0.07 0.05 0.10 0.02 0.04 0.03 0.02 0.03 0.04 0.02 0.02 0.02
0.01 0.03 0.04 0.03 0.03 0.07 0.04 0.04 0.15 0.02 0.02 0.05 0.02 0.02 0.00 0.06 0.01 0.03 0.00 0.00 0.00 0.01 0.01 0.01 0.02 0.02 0.03 0.02 0.05 0.03 0.05 0.05 0.03 0.02 0.05 0.06 0.02 0.03 0.03 0.03 0.01 0.03
0.00 0.01 0.02 0.02 0.01 0.02 0.01 0.03 0.06 0.03 0.04 0.07 0.00 0.01 0.00 0.06 0.01 0.01 0.01 0.01 0.00 0.00 0.01 0.01 0.01 0.02 0.02 0.02 0.04 0.06 0.02 0.06 0.03 0.02 0.04 0.08 0.03 0.01 0.04 0.02 0.03 0.01
0.00 0.00 0.00 0.00 0.00 0.01 0.04 0.03 0.01 0.02 0.03 0.01 0.02 0.02 0.00 0.00 0.03 0.04 0.02 0.00 0.00 0.00 0.03 0.03 0.05 0.01 0.01 0.02 0.02 0.03 0.05 0.03 0.04 0.03 0.02 0.02 0.02 0.02 0.01 0.01 0.01 0.01
0.00 0.00 0.00 0.00 0.01 0.01 0.01 0.01 0.00 0.00 0.02 0.01 0.06 0.01 0.01 0.01 0.00 0.01 0.00 0.02 0.01 0.00 0.01 0.01 0.01 0.03 0.02 0.01 0.01 0.02 0.02 0.02 0.07 0.08 0.04 0.02 0.01 0.01 0.01 0.02 0.01 0.02
0.00 0.00 0.00 0.00 0.00 0.01 0.01 0.02 0.02 0.00 0.03 0.01 0.02 0.01 0.00 0.00 0.02 0.00 0.02 0.01 0.02 0.00 0.00 0.01 0.08 0.01 0.01 0.01 0.02 0.02 0.01 0.01 0.03 0.02 0.03 0.01 0.01 0.02 0.01 0.00 0.01 0.01
0.00 0.00 0.01 0.00 0.00 0.00 0.01 0.01 0.01 0.01 0.00 0.01 0.01 0.03 0.01 0.01 0.01 0.02 0.01 0.01 0.01 0.01 0.01 0.02 0.02 0.02 0.01 0.02 0.03 0.04 0.01 0.00 0.02 0.02 0.02 0.01 0.01 0.01 0.01 0.01 0.01 0.01
0.05 0.04 0.00 0.00 0.00 0.03 0.03 0.10 0.05 0.01 0.02 0.01 0.01 0.00 0.01 0.02 0.01 0.05 0.02 0.01 0.02 0.04 0.04 0.03 0.03 0.04 0.03 0.01 0.01 0.02 0.01 0.00 0.01 0.01 0.01 0.03 0.01 0.01 0.01 0.01 0.01 0.01
0.08 0.07 0.02 0.01 0.03 0.08 0.05 0.05 0.04 0.06 0.03 0.02 0.01 0.01 0.04 0.09 0.04 0.05 0.10 0.14 0.13 0.11 0.11 0.07 0.06 0.03 0.02 0.01 0.01 0.01 0.02 0.08 0.02 0.01 0.06 0.02 0.01 0.00 0.01 0.01 0.01 0.01
0.25 0.20 0.07 0.14 0.08 0.03 0.06 0.02 0.01 0.01 0.00 0.01 0.02 0.05 0.06 0.08 0.10 0.18 0.22 0.21 0.15 0.12 0.10 0.07 0.03 0.01 0.01 0.01 0.00 0.01 0.02 0.01 0.02 0.01 0.02 0.01 0.01 0.01 0.01 0.01 0.01 0.01
0.65 0.82 0.68 0.31 0.07 0.07 0.16 0.22 0.12 0.01 0.03 0.03 0.04 0.11 0.22 0.21 0.24 0.24 0.21 0.18 0.14 0.10 0.06 0.03 0.01 0.01 0.01 0.02 0.01 0.01 0.01 0.02 0.00 0.01 0.01 0.02 0.01 0.01 0.01 0.00 0.01 0.01
0.45 0.75 0.76 0.38 0.35 0.20 0.21 0.13 0.23 0.14 0.12 0.15 0.29 0.30 0.29 0.31 0.28 0.26 0.22 0.16 0.09 0.04 0.03 0.02 0.02 0.01 0.01 0.00 0.04 0.01 0.03 0.01 0.01 0.01 0.03 0.15 0.06 0.09 0.06 0.02 0.03 0.02
0.60 0.82 1.21 0.66 0.31 0.54 0.37 0.21 0.36 0.30 0.35 0.37 0.26 0.39 0.42 0.34 0.22 0.14 0.07 0.04 0.02 0.03 0.04 0.04 0.03 0.04 0.04 0.03 0.04 0.01 0.03 0.02 0.06 0.12 0.10 0.09 0.07 0.16 0.06 0.07 0.07 0.08
0.71 0.96 1.05 0.90 0.61 1.59 2.10 0.66 0.61 0.70 0.68 0.54 0.37 0.35 0.26 0.17 0.11 0.08 0.05 0.03 0.03 0.03 0.07 0.05 0.04 0.05 0.01 0.02 0.01 0.03 0.19 0.06 0.07 0.03 0.09 0.18 0.03 0.03 0.11 0.11 0.08 0.08
2.13 1.42 1.11 1.26 1.86 1.75 1.84 1.53 0.87 0.39 0.30 0.31 0.26 0.17 0.14 0.13 0.12 0.10 0.08 0.05 0.03 0.05 0.04 0.10 0.05 0.06 0.03 0.00 0.00 0.00 0.09 0.14 0.06 0.14 0.18 0.06 0.08 0.03 0.01 0.03 0.10 0.10
2.00 2.41 1.93 1.46 1.49 2.45 2.20 1.53 1.17 0.69 0.43 0.18 0.11 0.17 0.15 0.17 0.21 0.15 0.11 0.07 0.05 0.04 0.06 0.07 0.05 0.03 0.00 0.00 0.00 0.00 0.00 0.00 0.05 0.10 0.20 0.20 0.15 0.08 0.12 0.08 0.11 0.06
2.64 2.11 1.89 1.74 2.43 2.59 2.56 2.11 1.12 0.99 1.08 0.87 0.39 0.45 0.40 0.15 0.17 0.24 0.22 0.29 0.08 0.05 0.04 0.04 0.05 0.00 0.00 0.00 0.00 0.00 0.00 0.01 0.04 0.15 0.12 0.07 0.03 0.03 0.07 0.10 0.10 0.11
1.73 1.77 1.93 2.45 2.65 2.90 2.35 1.36 1.46 0.83 0.91 1.23 0.67 0.47 0.41 0.31 0.27 0.20 0.14 0.16 0.08 0.13 0.09 0.07 0.05 0.02 0.01 0.00 0.00 0.01 0.01 0.02 0.01 0.11 0.21 0.14 0.02 0.13 0.16 0.04 0.06 0.09
2.26 2.17 2.18 2.50 2.60 2.31 1.61 1.59 1.40 1.31 1.11 1.49 1.24 1.19 0.80 0.58 0.32 0.28 0.14 0.10 0.13 0.08 0.20 0.11 0.04 0.03 0.02 0.01 0.00 0.00 0.00 0.00 0.03 0.20 0.32 0.03 0.03 0.04 0.05 0.12 0.43 0.77
2.25 2.22 2.71 3.58 3.61 2.55 1.76 1.75 1.37 1.34 1.66 1.98 1.78 1.36 1.10 0.74 0.44 0.32 0.18 0.26 0.25 0.25 0.21 0.15 0.06 0.03 0.01 0.01 0.01 0.02 0.01 0.02 0.04 0.18 0.24 0.03 0.03 0.07 0.07 0.12 0.24 0.53
2.34 2.98 2.48 2.28 2.61 2.82 2.64 2.78 2.71 2.71 2.30 2.25 1.62 0.94 0.65 0.74 0.60 0.52 0.23 0.68 0.51 0.39 0.20 0.09 0.11 0.07 0.07 0.05 0.04 0.03 0.02 0.03 0.03 0.03 0.06 0.05 0.08 0.10 0.19 0.42 0.35 0.41
2.55 2.19 2.70 2.81 2.39 2.51 2.48 2.74 2.97 2.77 3.16 2.84 1.98 1.49 1.46 1.88 1.64 0.60 1.49 1.81 1.36 0.61 0.33 0.18 0.12 0.08 0.21 0.29 0.35 0.03 0.04 0.05 0.05 0.06 0.12 0.12 0.13 0.42 0.69 0.67 0.24 0.28
1.73 2.08 2.32 2.96 3.23 2.41 2.52 2.92 2.65 2.41 2.38 2.12 1.87 1.63 1.95 2.39 2.18 2.20 3.37 2.85 2.34 1.92 0.58 0.36 0.32 0.42 0.38 0.39 0.71 0.84 0.98 0.87 0.31 0.19 0.21 0.33 0.34 0.60 0.93 0.33 0.37 0.13
1.17 1.02 1.15 1.65 1.21 1.50 3.07 2.99 3.66 3.32 2.61 2.29 2.15 2.84 2.86 2.61 3.00 2.69 2.42 2.40 1.96 1.47 1.32 1.00 0.89 0.80 0.97 0.35 0.66 1.02 0.48 0.60 0.65 0.25 0.27 0.32 0.31 0.33 0.74 0.41 0.26 0.19

ECMWFNIL_prec_precacc_126.txt.gz
Total_Precipitation_Accumulation
0.08 0.04 0.03 0.09 0.09 0.05 0.08 0.09 0.10 0.03 0.02 0.07 0.02 0.02 0.01 0.01 0.01 0.00 0.00 0.01 0.01 0.01 0.01 0.04 0.02 0.03 0.04 0.03 0.05 0.04 0.03 0.05 0.09 0.04 0.03 0.02 0.03 0.02 0.02 0.01 0.01 0.01
0.07 0.02 0.03 0.03 0.03 0.06 0.13 0.04 0.02 0.07 0.02 0.05 0.03 0.06 0.01 0.01 0.00 0.00 0.01 0.01 0.01 0.01 0.02 0.03 0.03 0.02 0.03 0.04 0.05 0.04 0.06 0.03 0.08 0.04 0.02 0.02 0.02 0.03 0.02 0.01 0.01 0.00
0.02 0.05 0.07 0.05 0.06 0.19 0.17 0.12 0.06 0.10 0.04 0.03 0.04 0.05 0.06 0.00 0.02 0.00 0.01 0.01 0.01 0.01 0.01 0.02 0.04 0.02 0.02 0.05 0.06 0.03 0.07 0.05 0.10 0.02 0.04 0.03 0.02 0.03 0.04 0.02 0.02 0.02
0.01 0.03 0.04 0.03 0.03 0.07 0.04 0.04 0.15 0.02 0.02 0.05 0.02 0.02 0.00 0.06 0.01 0.03 0.00 0.00 0.00 0.01 0.02 0.01 0.02 0.02 0.03 0.02 0.06 0.03 0.05 0.06 0.03 0.02 0.05 0.06 0.02 0.03 0.03 0.03 0.01 0.03
0.00 0.01 0.02 0.02 0.01 0.02 0.01 0.03 0.06 0.03 0.04 0.07 0.00 0.02 0.00 0.06 0.01 0.01 0.01 0.01 0.00 0.00 0.01 0.01 0.01 0.02 0.02 0.02 0.04 0.06 0.03 0.06 0.03 0.02 0.04 0.08 0.03 0.01 0.04 0.02 0.03 0.01
0.00 0.00 0.00 0.00 0.00 0.01 0.04 0.03 0.01 0.02 0.03 0.01 0.02 0.02 0.00 0.00 0.03 0.04 0.02 0.00 0.00 0.01 0.03 0.03 0.05 0.01 0.01 0.02 0.02 0.03 0.06 0.03 0.04 0.03 0.02 0.02 0.02 0.02 0.01 0.01 0.01 0.01
0.00 0.00 0.00 0.00 0.01 0.01 0.01 0.01 0.00 0.00 0.02 0.01 0.06 0.01 0.01 0.01 0.01 0.01 0.00 0.02 0.01 0.00 0.01 0.01 0.02 0.03 0.02 0.02 0.02 0.02 0.02 0.02 0.07 0.08 0.04 0.02 0.02 0.01 0.01 0.02 0.01 0.02
0.00 0.00 0.00 0.00 0.00 0.01 0.01 0.02 0.02 0.00 0.03 0.01 0.02 0.01 0.00 0.00 0.02 0.00 0.02 0.01 0.02 0.00 0.00 0.01 0.08 0.01 0.01 0.01 0.02 0.02 0.01 0.01 0.04 0.02 0.03 0.01 0.01 0.02 0.01 0.01 0.01 0.01
0.00 0.00 0.01 0.00 0.00 0.00 0.01 0.01 0.01 0.01 0.00 0.01 0.01 0.03 0.01 0.01 0.01 0.02 0.01 0.01 0.01 0.01 0.01 0.02 0.02 0.02 0.01 0.02 0.03 0.04 0.01 0.00 0.02 0.02 0.02 0.01 0.01 0.01 0.01 0.01 0.01 0.01
0.05 0.04 0.00 0.00 0.00 0.03 0.03 0.10 0.05 0.01 0.02 0.01 0.01 0.00 0.01 0.02 0.01 0.05 0.02 0.01 0.02 0.04 0.04 0.03 0.03 0.04 0.03 0.01 0.01 0.02 0.01 0.00 0.01 0.01 0.01 0.03 0.01 0.01 0.01 0.01 0.01 0.01
0.08 0.07 0.02 0.01 0.03 0.08 0.05 0.05 0.04 0.06 0.03 0.02 0.01 0.01 0.04 0.09 0.04 0.05 0.10 0.14 0.13 0.11 0.11 0.07 0.06 0.03 0.02 0.01 0.01 0.01 0.02 0.08 0.02 0.01 0.06 0.02 0.01 0.00 0.01 0.01 0.01 0.01
0.25 0.20 0.07 0.14 0.08 0.03 0.06 0.02 0.01 0.01 0.00 0.01 0.02 0.05 0.06 0.08 0.10 0.18 0.22 0.21 0.15 0.12 0.10 0.08 0.03 0.02 0.01 0.02 0.01 0.01 0.02 0.01 0.02 0.01 0.02 0.01 0.01 0.01 0.01 0.01 0.01 0.01
0.65 0.82 0.68 0.31 0.07 0.07 0.16 0.22 0.12 0.01 0.03 0.03 0.04 0.11 0.22 0.21 0.24 0.24 0.21 0.18 0.14 0.10 0.06 0.03 0.01 0.01 0.02 0.02 0.01 0.01 0.01 0.02 0.00 0.02 0.02 0.10 0.01 0.06 0.06 0.02 0.01 0.01
0.55 0.83 0.76 0.38 0.35 0.20 0.21 0.13 0.23 0.14 0.12 0.15 0.29 0.30 0.29 0.31 0.28 0.26 0.22 0.16 0.09 0.04 0.03 0.02 0.02 0.02 0.02 0.02 0.05 0.01 0.04 0.05 0.01 0.02 0.04 0.16 0.06 0.10 0.06 0.06 0.08 0.08
1.06 1.23 1.59 0.66 0.31 0.54 0.37 0.21 0.36 0.30 0.35 0.37 0.26 0.39 0.42 0.34 0.22 0.14 0.07 0.04 0.02 0.03 0.04 0.04 0.03 0.05 0.04 0.04 0.08 0.02 0.04 0.03 0.22 0.19 0.12 0.14 0.11 0.18 0.06 0.08 0.08 0.09
1.23 1.46 1.53 1.35 0.90 1.78 2.15 0.66 0.61 0.70 0.68 0.54 0.37 0.35 0.26 0.17 0.11 0.08 0.05 0.03 0.03 0.03 0.07 0.05 0.04 0.05 0.02 0.02 0.02 0.06 0.23 0.06 0.09 0.05 0.13 0.21 0.07 0.08 0.15 0.16 0.12 0.14
2.65 1.91 1.46 1.60 1.98 1.92 2.20 1.72 0.89 0.39 0.30 0.31 0.26 0.18 0.14 0.14 0.12 0.10 0.08 0.05 0.03 0.05 0.04 0.10 0.05 0.06 0.03 0.00 0.00 0.00 0.09 0.14 0.07 0.14 0.19 0.09 0.20 0.07 0.07 0.14 0.19 0.19
2.21 3.00 2.40 1.88 1.84 2.82 2.53 1.87 1.45 0.69 0.43 0.18 0.11 0.17 0.15 0.17 0.21 0.16 0.11 0.07 0.05 0.04 0.06 0.07 0.05 0.03 0.00 0.00 0.00 0.00 0.00 0.00 0.05 0.10 0.20 0.21 0.18 0.14 0.17 0.24 0.26 0.26
2.74 2.49 2.03 2.36 3.04 3.32 3.00 2.59 1.54 1.11 1.09 0.87 0.39 0.45 0.41 0.15 0.17 0.27 0.24 0.33 0.08 0.05 0.05 0.04 0.05 0.27 0.01 0.00 0.00 0.00 0.00 0.01 0.05 0.16 0.13 0.11 0.08 0.09 0.15 0.15 0.18 0.27
1.83 1.87 2.06 2.55 2.85 3.37 2.90 1.75 1.82 1.00 0.98 1.23 0.67 0.47 0.42 0.31 0.27 0.21 0.15 0.18 0.09 0.13 0.11 0.11 0.08 0.04 0.01 0.00 0.00 0.01 0.01 0.02 0.03 0.12 0.24 0.22 0.08 0.21 0.22 0.14 0.19 0.20
2.48 2.41 2.41 2.86 2.90 2.64 2.07 2.39 1.68 1.51 1.30 1.71 1.27 1.19 0.81 0.58 0.33 0.28 0.14 0.10 0.14 0.09 0.20 0.19 0.05 0.03 0.02 0.01 0.00 0.00 0.00 0.00 0.03 0.22 0.37 0.08 0.09 0.17 0.14 0.26 0.57 0.92
2.42 2.44 3.08 4.11 4.18 3.01 2.21 2.16 1.82 1.68 1.83 2.06 1.88 1.41 1.16 0.79 0.47 0.32 0.22 0.26 0.25 0.26 0.22 0.19 0.08 0.03 0.01 0.01 0.01 0.02 0.01 0.02 0.04 0.18 0.25 0.05 0.17 0.24 0.33 0.39 0.52 0.89
2.57 3.24 2.86 2.68 2.82 3.06 2.89 3.12 2.96 3.13 2.62 2.48 1.82 1.21 0.82 0.78 0.63 0.53 0.40 0.93 0.69 0.51 0.23 0.12 0.11 0.07 0.07 0.05 0.04 0.03 0.02 0.03 0.03 0.03 0.07 0.06 0.08 0.29 0.43 0.65 0.57 0.58
3.00 2.66 3.11 3.22 2.71 2.85 2.75 3.02 3.20 2.95 3.31 2.98 2.21 1.75 1.78 2.24 2.04 0.79 1.59 2.05 1.57 0.81 0.41 0.22 0.13 0.11 0.21 0.29 0.35 0.03 0.04 0.05 0.05 0.06 0.12 0.12 0.14 0.42 0.70 0.67 0.25 0.30
2.11 2.53 2.85 3.45 3.67 2.77 2.87 3.23 2.94 2.65 2.58 2.37 2.12 1.85 2.18 2.59 2.54 2.63 3.74 3.05 2.50 2.07 0.74 0.43 0.34 0.77 0.46 0.39 0.71 0.84 0.98 0.87 0.31 0.19 0.21 0.34 0.35 0.60 0.93 0.33 0.37 0.13
1.52 1.36 1.56 2.11 1.76 1.93 3.41 3.33 4.00 3.67 2.94 2.55 2.39 3.10 3.18 2.96 3.29 2.98 2.68 2.71 2.20 1.69 1.59 1.12 1.13 0.97 1.19 0.41 0.67 1.02 0.48 0.60 0.65 0.25 0.28 0.32 0.31 0.33 0.75 0.42 0.27 0.20

ECMWFNIL_prec_precacc_132.txt.gz
Total_Precipitation_Accumulation
0.08 0.04 0.03 0.09 0.09 0.05 0.08 0.09 0.10 0.03 0.02 0.07 0.02 0.02 0.01 0.01 0.01 0.00 0.00 0.01 0.01 0.01 0.01 0.04 0.02 0.03 0.04 0.04 0.06 0.04 0.03 0.06 0.21 0.05 0.05 0.06 0.04 0.03 0.05 0.01 0.02 0.03
0.07 0.02 0.03 0.03 0.03 0.06 0.13 0.04 0.02 0.07 0.02 0.05 0.03 0.06 0.01 0.01 0.00 0.00 0.01 0.01 0.01 0.01 0.02 0.03 0.03 0.02 0.03 0.04 0.06 0.04 0.06 0.04 0.15 0.09 0.02 0.04 0.03 0.05 0.02 0.01 0.02 0.02
0.02 0.05 0.07 0.05 0.06 0.19 0.17 0.12 0.06 0.10 0.04 0.03 0.04 0.05 0.06 0.00 0.02 0.00 0.01 0.01 0.01 0.03 0.03 0.02 0.05 0.02 0.02 0.05 0.06 0.04 0.07 0.06 0.10 0.02 0.04 0.05 0.04 0.05 0.04 0.02 0.05 0.04
0.01 0.03 0.04 0.03 0.03 0.07 0.04 0.04 0.15 0.02 0.02 0.05 0.02 0.02 0.00 0.06 0.01 0.03 0.00 0.00 0.00 0.01 0.02 0.02 0.02 0.02 0.03 0.02 0.06 0.03 0.05 0.06 0.03 0.03 0.05 0.08 0.03 0.04 0.04 0.05 0.03 0.05
0.00 0.01 0.02 0.02 0.01 0.02 0.01 0.03 0.06 0.03 0.04 0.07 0.00 0.02 0.00 0.06 0.01 0.01 0.01 0.01 0.00 0.00 0.01 0.01 0.01 0.02 0.02 0.02 0.04 0.07 0.03 0.06 0.03 0.02 0.04 0.08 0.03 0.02 0.04 0.02 0.03 0.02
0.00 0.00 0.00 0.00 0.00 0.01 0.04 0.03 0.01 0.02 0.03 0.01 0.02 0.02 0.00 0.00 0.03 0.04 0.02 0.00 0.00 0.01 0.03 0.03 0.05 0.01 0.01 0.02 0.02 0.03 0.07 0.04 0.04 0.04 0.03 0.02 0.03 0.02 0.01 0.01 0.01 0.01
0.00 0.00 0.00 0.00 0.01 0.01 0.01 0.01 0.00 0.00 0.02 0.01 0.06 0.01 0.01 0.01 0.01 0.01 0.00 0.02 0.01 0.00 0.01 0.01 0.02 0.03 0.02 0.02 0.02 0.02 0.02 0.02 0.07 0.08 0.04 0.08 0.02 0.01 0.01 0.02 0.01 0.02
0.00 0.00 0.00 0.00 0.00 0.01 0.01 0.02 0.02 0.00 0.03 0.01 0.02 0.01 0.00 0.00 0.03 0.01 0.02 0.01 0.02 0.00 0.00 0.01 0.08 0.01 0.01 0.01 0.02 0.02 0.02 0.03 0.04 0.02 0.03 0.01 0.01 0.02 0.01 0.01 0.01 0.01
0.00 0.00 0.01 0.00 0.00 0.00 0.01 0.01 0.01 0.01 0.00 0.01 0.01 0.04 0.02 0.01 0.01 0.03 0.01 0.01 0.01 0.01 0.01 0.02 0.02 0.02 0.01 0.02 0.03 0.04 0.01 0.02 0.02 0.02 0.02 0.01 0.01 0.02 0.02 0.01 0.01 0.01
0.08 0.04 0.00 0.00 0.00 0.03 0.03 0.10 0.05 0.01 0.02 0.01 0.01 0.00 0.01 0.02 0.01 0.05 0.02 0.01 0.02 0.04 0.04 0.04 0.04 0.04 0.03 0.05 0.01 0.02 0.01 0.00 0.01 0.02 0.02 0.04 0.02 0.03 0.03 0.02 0.02 0.02
0.11 0.11 0.04 0.04 0.04 0.08 0.05 0.05 0.04 0.06 0.03 0.02 0.01 0.01 0.04 0.09 0.04 0.06 0.11 0.14 0.13 0.11 0.12 0.07 0.06 0.03 0.02 0.01 0.01 0.02 0.02 0.08 0.03 0.01 0.06 0.02 0.01 0.01 0.01 0.01 0.01 0.02
0.27 0.23 0.12 0.16 0.09 0.04 0.07 0.03 0.01 0.01 0.00 0.02 0.03 0.06 0.08 0.09 0.11 0.20 0.24 0.21 0.16 0.12 0.11 0.08 0.03 0.02 0.02 0.03 0.01 0.02 0.03 0.01 0.02 0.03 0.02 0.02 0.01 0.01 0.01 0.01 0.03 0.04
0.66 0.85 0.97 0.51 0.13 0.19 0.16 0.22 0.13 0.01 0.03 0.04 0.05 0.11 0.22 0.23 0.26 0.25 0.21 0.19 0.15 0.12 0.06 0.03 0.02 0.02 0.03 0.04 0.03 0.02 0.02 0.04 0.01 0.02 0.02 0.10 0.03 0.12 0.09 0.03 0.06 0.05
0.57 0.92 0.87 0.53 0.65 0.56 0.29 0.14 0.26 0.15 0.13 0.16 0.30 0.31 0.32 0.39 0.35 0.30 0.24 0.18 0.14 0.13 0.10 0.05 0.05 0.03 0.03 0.03 0.09 0.04 0.06 0.08 0.04 0.06 0.07 0.18 0.08 0.13 0.09 0.07 0.10 0.12
1.06 1.24 1.65 0.98 0.53 0.88 0.72 0.25 0.38 0.33 0.39 0.48 0.40 0.51 0.64 0.39 0.40 0.24 0.11 0.12 0.12 0.07 0.34 0.13 0.09 0.18 0.06 0.09 0.25 0.14 0.07 0.15 0.26 0.23 0.16 0.17 0.18 0.24 0.16 0.15 0.16 0.11
1.27 1.47 1.54 1.36 0.97 1.90 2.35 1.06 0.94 1.21 1.26 1.05 0.87 0.89 0.65 0.61 0.27 0.13 0.07 0.05 0.07 0.10 0.18 0.41 0.35 0.27 0.12 0.14 0.17 0.22 0.48 0.15 0.17 0.14 0.34 0.31 0.14 0.17 0.22 0.31 0.13 0.15
2.73 1.98 1.47 1.61 1.99 1.92 2.25 1.92 1.27 0.91 0.79 0.77 0.70 0.60 0.53 0.35 0.21 0.15 0.12 0.06 0.06 0.10 0.28 0.56 0.23 0.39 0.24 0.47 0.20 0.11 0.28 0.26 0.13 0.27 0.38 0.19 0.24 0.11 0.09 0.17 0.22 0.22
2.32 3.27 2.55 2.00 1.97 2.84 2.55 1.95 1.74 1.11 0.84 0.58 0.41 0.45 0.30 0.36 0.24 0.20 0.14 0.09 0.06 0.09 0.32 0.45 0.47 0.31 0.58 0.52 0.09 0.00 0.00 0.06 0.18 0.19 0.30 0.37 0.27 0.21 0.20 0.26 0.29 0.29
3.12 3.96 2.91 2.55 3.09 3.35 3.02 2.64 1.60 1.33 1.28 1.17 0.55 0.72 0.74 0.42 0.27 0.31 0.28 0.39 0.17 0.30 0.62 0.21 0.25 0.63 0.07 0.05 0.00 0.00 0.00 0.02 0.18 0.34 0.27 0.25 0.13 0.19 0.24 0.23 0.45 0.62
2.33 2.48 2.32 2.64 2.87 3.40 2.95 1.79 1.84 1.03 1.12 1.48 1.04 0.91 0.80 0.55 0.56 0.62 0.39 0.43 0.20 0.29 0.34 0.53 0.33 0.11 0.06 0.05 0.00 0.01 0.01 0.02 0.05 0.16 0.31 0.30 0.45 0.81 0.58 0.49 0.46 0.50
2.85 2.81 2.65 2.99 2.97 2.69 2.13 2.50 1.73 1.57 1.35 1.84 1.53 1.47 1.29 0.88 0.47 0.40 0.43 0.30 0.26 0.41 0.49 0.27 0.45 0.13 0.03 0.01 0.00 0.00 0.00 0.00 0.03 0.29 0.47 0.18 0.43 0.35 0.32 0.61 0.86 1.35
2.74 2.99 3.43 4.39 4.27 3.10 2.32 2.33 2.14 1.99 1.90 2.12 1.94 1.47 1.22 0.87 0.51 0.41 0.40 0.49 0.47 0.52 0.30 0.33 0.10 0.04 0.01 0.01 0.01 0.02 0.01 0.02 0.04 0.25 0.33 0.21 0.46 0.64 0.78 1.01 0.86 1.13
2.69 3.51 3.17 3.05 3.03 3.21 3.10 3.32 3.29 3.26 2.71 2.56 1.90 1.29 0.89 0.83 0.67 0.56 0.42 1.07 0.97 0.87 0.58 0.55 0.18 0.31 0.07 0.05 0.04 0.03 0.03 0.03 0.05 0.13 0.29 0.34 0.82 0.89 0.64 0.92 1.11 1.34
3.18 2.96 3.60 3.86 3.03 3.13 3.13 3.48 3.61 3.24 3.53 3.16 2.53 2.03 2.05 2.41 2.11 0.82 1.61 2.07 1.59 0.82 0.41 0.23 0.13 0.11 0.27 0.35 0.35 0.03 0.05 0.06 0.09 0.39 0.43 0.56 0.62 1.10 1.30 1.06 0.61 0.75
2.22 2.65 3.12 3.88 4.10 3.08 3.32 3.92 3.39 3.02 2.89 2.76 2.49 2.34 2.62 2.96 2.67 2.70 3.81 3.11 2.54 2.09 0.75 0.44 0.34 0.77 0.73 0.81 1.29 1.01 1.03 0.89 0.37 0.41 0.62 0.57 0.73 1.44 1.93 0.49 0.69 0.32
1.61 1.48 1.70 2.35 2.28 3.06 4.56 4.14 4.83 4.82 4.45 3.44 3.29 3.78 3.71 3.41 3.56 3.16 2.83 2.83 2.29 1.78 1.67 1.18 1.16 0.99 1.22 0.53 0.79 1.27 0.63 1.03 1.36 0.39 0.51 0.53 0.54 0.73 0.93 1.10 0.90 0.51

ECMWFNIL_prec_precacc_135.txt.gz
Total_Precipitation_Accumulation
0.08 0.04 0.03 0.09 0.09 0.05 0.08 0.09 0.10 0.03 0.02 0.07 0.02 0.02 0.01 0.01 0.01 0.00 0.00 0.01 0.01 0.01 0.01 0.04 0.02 0.03 0.04 0.04 0.06 0.04 0.03 0.06 0.21 0.05 0.05 0.06 0.04 0.03 0.05 0.01 0.02 0.03
0.07 0.02 0.03 0.03 0.03 0.06 0.13 0.04 0.02 0.07 0.02 0.05 0.03 0.06 0.01 0.01 0.00 0.00 0.01 0.01 0.01 0.01 0.02 0.03 0.03 0.02 0.03 0.04 0.06 0.04 0.06 0.04 0.15 0.09 0.02 0.04 0.03 0.05 0.02 0.01 0.02 0.02
0.02 0.05 0.07 0.05 0.06 0.19 0.17 0.12 0.06 0.10 0.04 0.03 0.04 0.05 0.06 0.00 0.02 0.00 0.01 0.01 0.01 0.03 0.03 0.02 0.05 0.02 0.02 0.05 0.06 0.04 0.07 0.06 0.10 0.02 0.04 0.05 0.04 0.05 0.04 0.02 0.05 0.04
0.01 0.03 0.04 0.03 0.03 0.07 0.04 0.04 0.15 0.02 0.02 0.05 0.02 0.02 0.00 0.06 0.01 0.03 0.00 0.00 0.00 0.01 0.02 0.02 0.02 0.02 0.03 0.02 0.06 0.03 0.05 0.06 0.03 0.03 0.05 0.08 0.03 0.04 0.04 0.05 0.03 0.05
0.00 0.01 0.02 0.02 0.01 0.02 0.01 0.03 0.06 0.03 0.04 0.07 0.00 0.02 0.00 0.06 0.01 0.01 0.01 0.01 0.00 0.00 0.01 0.01 0.01 0.02 0.02 0.02 0.04 0.07 0.03 0.06 0.03 0.02 0.04 0.08 0.03 0.02 0.04 0.02 0.03 0.02
0.00 0.00 0.00 0.00 0.00 0.01 0.04 0.03 0.01 0.02 0.03 0.01 0.02 0.02 0.00 0.00 0.03 0.04 0.02 0.00 0.00 0.01 0.03 0.03 0.05 0.01 0.01 0.02 0.02 0.03 0.07 0.04 0.04 0.04 0.03 0.02 0.03 0.02 0.01 0.01 0.02 0.01
0.00 0.00 0.00 0.00 0.01 0.01 0.01 0.01 0.00 0.00 0.02 0.01 0.06 0.01 0.01 0.01 0.01 0.01 0.00 0.02 0.01 0.00 0.01 0.01 0.02 0.03 0.02 0.02 0.02 0.02 0.02 0.02 0.07 0.08 0.04 0.08 0.02 0.01 0.01 0.02 0.01 0.02
0.00 0.00 0.00 0.00 0.00 0.01 0.01 0.02 0.02 0.00 0.03 0.01 0.02 0.01 0.00 0.00 0.03 0.01 0.02 0.01 0.02 0.00 0.00 0.01 0.08 0.01 0.01 0.01 0.02 0.02 0.02 0.03 0.04 0.02 0.03 0.01 0.01 0.02 0.01 0.01 0.01 0.01
0.00 0.00 0.01 0.00 0.00 0.00 0.01 0.01 0.01 0.01 0.00 0.01 0.01 0.04 0.02 0.01 0.01 0.03 0.01 0.01 0.01 0.01 0.01 0.02 0.02 0.02 0.01 0.02 0.03 0.04 0.01 0.02 0.02 0.02 0.02 0.01 0.01 0.02 0.02 0.01 0.01 0.01
0.08 0.04 0.00 0.00 0.00 0.03 0.03 0.10 0.05 0.01 0.02 0.01 0.01 0.00 0.01 0.02 0.01 0.05 0.02 0.01 0.02 0.04 0.04 0.04 0.04 0.04 0.03 0.05 0.01 0.02 0.01 0.00 0.01 0.02 0.02 0.04 0.02 0.03 0.03 0.02 0.02 0.02
0.11 0.11 0.04 0.04 0.04 0.08 0.05 0.05 0.04 0.06 0.03 0.02 0.01 0.01 0.04 0.11 0.04 0.06 0.11 0.14 0.13 0.11 0.12 0.10 0.14 0.06 0.08 0.20 0.13 0.12 0.04 0.08 0.03 0.01 0.06 0.02 0.01 0.01 0.01 0.01 0.01 0.04
0.27 0.23 0.12 0.16 0.09 0.04 0.07 0.03 0.01 0.01 0.00 0.02 0.03 0.06 0.08 0.09 0.11 0.20 0.24 0.21 0.16 0.12 0.13 0.17 0.23 0.20 0.27 0.40 0.18 0.17 0.19 0.16 0.08 0.03 0.02 0.02 0.01 0.01 0.01 0.01 0.03 0.04
0.66 0.85 0.97 0.51 0.13 0.19 0.17 0.22 0.13 0.02 0.03 0.04 0.05 0.11 0.22 0.23 0.26 0.25 0.21 0.19 0.17 0.14 0.19 0.15 0.25 0.26 0.47 0.48 0.38 0.21 0.33 0.26 0.05 0.02 0.02 0.11 0.04 0.12 0.09 0.03 0.06 0.08
0.60 0.93 0.89 0.56 0.65 0.57 0.29 0.14 0.26 0.15 0.13 0.16 0.30 0.31 0.32 0.39 0.35 0.30 0.24 0.18 0.14 0.13 0.10 0.25 0.41 0.35 0.24 0.21 0.20 0.11 0.11 0.08 0.04 0.07 0.07 0.18 0.08 0.13 0.09 0.07 0.12 0.22
1.34 1.61 1.69 1.01 0.53 0.88 0.72 0.25 0.38 0.33 0.39 0.48 0.40 0.51 0.64 0.39 0.40 0.24 0.11 0.12 0.12 0.08 0.35 0.30 0.44 0.21 0.08 0.09 0.25 0.14 0.15 0.20 0.26 0.23 0.16 0.17 0.18 0.24 0.16 0.18 0.24 0.24
1.73 1.60 1.72 1.76 1.20 1.93 2.35 1.06 0.94 1.21 1.26 1.05 0.87 0.89 0.65 0.61 0.27 0.13 0.07 0.05 0.07 0.10 0.18 0.42 0.36 0.27 0.12 0.15 0.17 0.22 0.49 0.19 0.18 0.14 0.35 0.33 0.14 0.17 0.22 0.32 0.22 0.49
3.02 2.61 1.76 1.80 2.13 2.00 2.25 1.92 1.27 0.91 0.79 0.77 0.70 0.60 0.53 0.35 0.21 0.15 0.12 0.07 0.07 0.10 0.28 0.56 0.23 0.39 0.24 0.47 0.20 0.11 0.28 0.26 0.13 0.27 0.38 0.19 0.24 0.11 0.14 0.35 0.27 0.22
2.40 3.28 2.56 2.01 1.99 2.86 2.55 1.95 1.74 1.11 0.84 0.58 0.41 0.45 0.30 0.36 0.24 0.20 0.14 0.09 0.07 0.09 0.32 0.45 0.47 0.31 0.58 0.52 0.09 0.00 0.00 0.06 0.18 0.19 0.30 0.37 0.27 0.21 0.24 0.28 0.29 0.29
3.23 3.99 2.98 2.55 3.09 3.36 3.02 2.64 1.60 1.33 1.28 1.17 0.55 0.72 0.74 0.42 0.27 0.31 0.28 0.39 0.17 0.30 0.62 0.21 0.25 0.63 0.07 0.05 0.00 0.00 0.00 0.02 0.18 0.34 0.27 0.28 0.13 0.20 0.24 0.23 0.46 0.62
2.34 2.48 2.32 2.64 2.87 3.40 2.95 1.79 1.84 1.03 1.12 1.48 1.04 0.91 0.80 0.55 0.56 0.62 0.39 0.43 0.20 0.29 0.34 0.53 0.33 0.11 0.06 0.05 0.00 0.01 0.01 0.02 0.05 0.16 0.31 0.30 0.45 0.81 0.58 0.49 0.46 0.50
2.87 2.81 2.65 2.99 2.98 2.70 2.14 2.52 1.76 1.60 1.39 1.86 1.53 1.47 1.29 0.88 0.47 0.40 0.43 0.30 0.26 0.41 0.49 0.27 0.45 0.13 0.03 0.01 0.00 0.00 0.00 0.00 0.03 0.29 0.47 0.18 0.43 0.35 0.32 0.61 0.86 1.35
2.76 3.01 3.46 4.41 4.28 3.12 2.35 2.36 2.15 2.00 1.90 2.17 1.95 1.47 1.22 0.87 0.51 0.41 0.40 0.49 0.47 0.52 0.30 0.33 0.10 0.04 0.01 0.01 0.01 0.02 0.01 0.02 0.04 0.25 0.33 0.21 0.46 0.64 0.78 1.01 0.86 1.13
2.70 3.64 3.33 3.14 3.05 3.21 3.10 3.33 3.29 3.26 2.76 2.68 1.94 1.29 0.89 0.83 0.67 0.56 0.42 1.07 0.98 0.87 0.58 0.55 0.18 0.31 0.07 0.05 0.04 0.03 0.03 0.03 0.05 0.13 0.29 0.34 0.82 0.89 0.64 0.92 1.11 1.34
3.27 3.04 3.69 4.05 3.17 3.15 3.14 3.48 3.61 3.24 3.54 3.28 2.59 2.06 2.11 2.44 2.14 0.84 1.64 2.16 1.68 0.82 0.42 0.23 0.13 0.11 0.27 0.35 0.35 0.03 0.05 0.06 0.09 0.39 0.43 0.56 0.63 1.10 1.30 1.06 0.61 0.76
2.28 2.74 3.17 3.92 4.15 3.12 3.34 3.93 3.39 3.03 2.90 2.89 2.67 2.48 2.66 3.05 2.85 2.79 4.16 3.52 2.60 2.09 0.76 0.44 0.35 0.77 0.73 0.81 1.29 1.01 1.03 0.89 0.37 0.42 0.63 0.57 0.73 1.44 1.93 0.49 0.69 0.32
1.69 1.51 1.73 2.36 2.30 3.16 4.71 4.27 4.84 4.82 4.47 3.52 3.42 3.96 3.88 3.65 3.95 3.88 3.57 3.14 2.42 2.00 1.80 1.57 1.50 1.03 1.23 0.53 0.79 1.27 0.63 1.03 1.36 0.39 0.51 0.53 0.54 0.73 0.93 1.10 0.90 0.51